     2              OBSERVATION DATA    GPS                 RINEX VERSION / TYPE
teqc 1999Oct8 rxk 20000118 18:46:56UTC                      PGM / RUN BY / DATE
                                                            COMMENT
Original Marker Name: TROY                                  COMMENT
Campaign Name: Hector Mine                                  COMMENT
4-Character Station Name: TROY                              COMMENT
6-Character Antenna Code: DMRCHT                            COMMENT
Vertical Measurement Point: RRP                             COMMENT
Vertical Offset to Rinex Ref. Point: 0.0000                 COMMENT
Radial Measurement Point: RRP                               COMMENT
Radial Offset to Rinex Ref. Point: 0.0000                   COMMENT
Antenna Height from Field Measurement: 0.0614 m             COMMENT
Additional Antenna Identification Info.:                    COMMENT
Turborogue and Ashtech Choke Ring                           COMMENT
                                                            COMMENT
Original XYZ: -2341105.4327 -4689265.0220 3623536.2930      COMMENT
New XYZ position is based on association with SCEC monument COMMENT
E1F2T3R1+0011. Position of that monument is believed to be  COMMENT
valid to within 1 m horizontally; vertical accuracy         COMMENT
should be no worse than 3-times this value.                 COMMENT
                                                            COMMENT
Revised Rinex header created by UCSD GPS archive for        COMMENT
GSAC on 10-Mar-2000 (2000:070) 02:51:12 GMT                 COMMENT
For assistance contact dagnew@ucsd.edu or hjohnson@ucsd.edu COMMENT
                                                            COMMENT
3057 S                                                      MARKER NAME
GNOG JET PROPULSION LABORATORY                              OBSERVER / AGENCY
263 TURBOROGUE SNR-8000 1998.12.27                          REC # / TYPE / VERS
329 DORNE-MARGOL. TYPE T                                    ANT # / TYPE
 -2341102.8673 -4689264.8648  3623535.1886                  APPROX POSITION XYZ
        0.0614        0.0000        0.0000                  ANTENNA: DELTA H/E/N
     1     1     0                                          WAVELENGTH FACT L1/2
     4    L1    L2    P2    C1                              # / TYPES OF OBSERV
    30                                                      INTERVAL
  1999    12     9     0     0    0.000000                  TIME OF FIRST OBS
  1999    12     9    23    59    0.000000                  TIME OF LAST OBS
                                                            END OF HEADER
 99 12  9  0  0  0.0000000  0  6G27G26G 8G13G 7G19
 -22940448.67549 -17875640.55045  21018638.436    21018633.716
 -14130136.68349 -11010459.18144  22361611.301    22361604.287
 -12416318.59349  -9675025.01444  22602524.728    22602516.040
 -12312617.16349  -9594219.54844  23101617.595    23101610.646
 -20907874.16849 -16291807.80646  20625494.276    20625489.241
  -7109783.51149  -5540083.80044  23635169.718    23635159.789
 99 12  9  0  1  0.0000000  0  6G27G26G 8G13G 7G19
 -22820648.73249 -17782289.94845  21041435.835    21041430.944
 -14145296.39349 -11022271.80044  22358725.927    22358719.458
 -12606114.67349  -9822917.68844  22566407.346    22566398.783
 -12119312.64049  -9443592.81444  23138402.227    23138395.283
 -20963682.08649 -16335294.37246  20614874.335    20614869.310
  -6915697.48749  -5388848.13244  23672102.978    23672093.298
 99 12  9  0  2  0.0000000  0  6G27G26G 8G13G 7G19
 -22699091.31849 -17687569.89045  21064567.456    21064562.555
 -14158222.25249 -11032343.73244  22356266.165    22356259.445
 -12795401.20649  -9970413.30944  22530386.444    22530378.384
 -11925249.38549  -9292374.86544  23175331.230    23175324.430
 -21017563.69749 -16377279.92046  20604620.812    20604615.754
  -6720828.14649  -5237002.03544  23709185.318    23709176.010
 99 12  9  0  3  0.0000000  0  6G27G26G 8G13G 7G19
 -22575706.43349 -17591425.83644  21088046.724    21088041.783
 -14168951.34349 -11040703.90444  22354224.534    22354217.486
 -12983985.87549 -10117362.02144  22494499.920    22494491.891
 -11730528.35949  -9140644.37844  23212385.318    23212378.790
 -21069543.42649 -16417783.48246  20594729.308    20594724.376
  -6525174.01049  -5084544.39244  23746416.823    23746407.764
 99 12  9  0  4  0.0000000  0  6G27G26G 8G13G 7G19
 -22450544.46649 -17493897.03444  21111864.325    21111859.456
 -14177597.24249 -11047440.81444  22352578.924    22352572.384
 -13171892.20149 -10263782.16744  22458741.617    22458734.229
 -11535338.70449  -8988548.71844  23249528.572    23249522.367
 -21119753.15049 -16456907.82546  20585174.665    20585169.636
  -6328770.82949  -4931503.06244  23783790.602    23783782.138
 99 12  9  0  5  0.0000000  0  6G27G26G 8G13G 7G19
 -22323590.45749 -17394971.83244  21136022.831    21136017.846
 -14183979.36049 -11052413.75344  22351364.345    22351357.891
 -13359118.92649 -10409672.74644  22423113.678    22423106.091
 -11339578.62849  -8836008.57244  23286780.887    23286774.326
 -21168092.66249 -16494574.86446  20575975.898    20575971.000
  -6131462.48849  -4777756.42344  23821340.123    23821328.954
 99 12  9  0  6  0.0000000  0  6G27G26G 8G13G 7G19
 -22194844.02249 -17294649.93944  21160522.397    21160517.571
 -14187991.74849 -11055540.15644  22350600.739    22350594.161
 -13545677.80049 -10555042.95544  22387612.088    22387604.869
 -11143179.26249  -8682970.27644  23324154.831    23324148.056
 -21214478.23149 -16530719.36046  20567148.798    20567144.001
  -5933204.21149  -4623269.59644  23859065.098    23859056.236
 99 12  9  0  7  0.0000000  0  6G27G26G 8G13G 7G19
 -22064380.61549 -17192990.14544  21185348.872    21185343.995
 -14189733.67449 -11056897.38144  22350268.933    22350262.415
 -13731528.07149 -10699861.01644  22352245.330    22352238.628
 -10946207.69149  -8529486.12244  23361637.019    23361630.632
 -21258923.50449 -16565351.94246  20558691.098    20558686.236
  -5734082.80548  -4468110.21844  23896957.550    23896947.870
 99 12  9  0  8  0.0000000  0  6G26G 8G27G13G 7G19
 -14189404.87749 -11056641.06744  22350331.327    22350324.905
 -13916751.76849 -10844190.88244  22316998.551    22316991.516
 -21932261.95849 -17090040.55344  21210490.243    21210485.268
 -10748792.53349  -8375656.30944  23399205.017    23399197.729
 -21301584.28249 -16598594.01246  20550572.851    20550567.925
  -5534278.52647                                  23934969.224
 99 12  9  0  9  0.0000000  0  6G26G 8G27G13G 7G19
 -14187017.77749 -11054780.87844  22350785.731    22350779.328
 -14101356.62249 -10988038.54744  22281869.449    22281862.034
 -21798455.55749 -16985775.83544  21235952.706    21235947.735
 -10550954.58949  -8221497.05144  23436852.606    23436845.102
 -21342461.89749 -16630446.60146  20542794.076    20542789.236
  -5333803.57447                                  23973118.069
 99 12  9  0 10  0.0000000  0  7G26G 8G27G13G 7G 9G19
 -14182386.10449 -11051171.66344  22351666.871    22351660.729
 -14285139.62249 -11131245.83644  22246895.653    22246889.223
 -21662763.80649 -16880042.00944  21261773.967    21261769.061
 -10352463.26949  -8066828.67044  23474624.207    23474616.724
 -21381342.29749 -16660742.92046  20535395.225    20535390.539
        -0.01357                                  25083249.840
  -5132477.83247  -3999327.68944  24011439.118    24011429.344
 99 12  9  0 11  0.0000000  0  7G26G 8G27G13G 7G 9G19
 -14175638.92849 -11045913.99644  22352950.489    22352944.242
 -14468172.78449 -11273868.83644  22212065.496    22212058.711
 -21525338.53049 -16772957.38744  21287925.282    21287920.219
 -10153521.17549  -7911809.03144  23512481.537    23512474.228
 -21418390.02049 -16689611.17646  20528345.258    20528340.561
   -203551.90147                                  25044514.161
  -4930434.62948  -3841891.57444  24049887.137    24049877.209
 99 12  9  0 12  0.0000000  0  7G26G 8G27G13G 7G 9G19
 -14166777.26649 -11039008.68544  22354637.006    22354630.399
 -14650473.74549 -11415921.28944  22177375.253    22177367.886
 -21386254.05849 -16664579.88444  21314391.788    21314387.218
  -9954242.84049  -7756527.40244  23550403.463    23550395.779
 -21453664.48449 -16717097.66646  20521632.522    20521627.852
   -407102.37547                                  25005779.622
  -4727712.57449                                  24088454.127
 99 12  9  0 13  0.0000000  0  7G26G 8G27G13G 7G 9G19
 -14155710.97349 -11030385.49544  22356742.697    22356736.482
 -14831978.67849 -11557353.44944  22142835.119    22142828.409
 -21245428.45349 -16554845.65144  21341190.107    21341185.357
  -9754547.86949  -7600921.11544  23588404.034    23588396.799
 -21487086.65749 -16743140.80846  20515272.256    20515267.629
   -610637.67047                                  24967048.117
  -4524248.25049                                  24127172.117
 99 12  9  0 14  0.0000000  0  7G26G 8G27G13G 7G 9G19
 -14142450.77849 -11020052.75344  22359265.263    22359259.814
 -15012707.27549 -11698180.63544  22108443.607    22108436.712
 -21102846.64249 -16443742.95844  21368322.717    21368317.809
  -9554437.29749  -7444991.02144  23626483.830    23626476.587
 -21518652.62049 -16767737.55146  20509265.462    20509260.801
   -814136.36547                                  24928323.346
  -4320098.97049  -3366305.77644  24166029.757    24166020.821
 99 12  9  0 15  0.0000000  0  7G26G 8G27G13G 7G 9G19
 -14127140.38149 -11008122.45244  22362179.551    22362172.906
 -15192681.09949 -11838419.67344  22074195.438    22074188.373
 -20958660.24749 -16331389.93044  21395760.404    21395755.618
  -9354022.62949  -7288823.96944  23664622.668    23664614.472
 -21548445.15349 -16790952.39846  20503595.911    20503591.296
  -1017571.39447                                  24889610.675
  -4115392.86849  -3206794.65244  24204985.552    24204975.127
 99 12  9  0 16  0.0000000  0  7G26G 8G27G13G 7G 9G19
 -14109824.60549 -10994629.54644  22365474.143    22365467.660
 -15371847.00749 -11978029.13444  22040100.730    22040093.832
 -20812958.03749 -16217855.75344  21423486.785    21423481.836
  -9153412.86949  -7132504.88844  23702796.648    23702789.403
 -21576529.25149 -16812835.99946  20498251.514    20498247.006
  -1220921.89847                                  24850914.104
  -3910146.57449  -3046862.57544  24244043.180    24244032.259
 99 12  9  0 17  0.0000000  0  7G26G 8G27G13G 7G 9G19
 -14090378.58249 -10979476.69844  22369174.085    22369168.308
 -15550097.47949 -12116925.26044  22006180.354    22006173.863
 -20665620.52649 -16103047.32744  21451524.220    21451519.165
  -8952581.14749  -6976012.84444  23741014.587    23741006.547
 -21602876.43149 -16833366.15746  20493237.892    20493233.392
  -1424164.57348                                  24812238.089
  -3704216.82549  -2886397.93544  24283230.651    24283219.606
 99 12  9  0 18  0.0000000  0  7G26G 8G27G13G 7G 9G19
 -14068688.52549 -10962575.26144  22373302.226    22373295.821
 -15727421.23249 -12255099.26144  21972436.348    21972430.130
 -20516544.20649 -15986883.98444  21479892.499    21479887.458
  -8751439.22249  -6819279.10244  23779290.990    23779282.717
 -21627417.82649 -16852489.21246  20488567.621    20488563.173
  -1627272.05347                                  24773587.404
  -3497564.40149  -2725370.15944  24322555.403    24322544.357
 99 12  9  0 19  0.0000000  0  7G26G 8G27G13G 7G 9G19
 -14044809.16949 -10943967.86844  22377845.410    22377839.805
 -15903895.31749 -12392611.20444  21938854.264    21938847.996
 -20365799.68849 -15869420.73944  21508578.221    21508573.194
  -8550016.66649  -6662326.68544  23817620.496    23817612.304
 -21650081.12249 -16870148.81546  20484254.865    20484250.356
  -1830246.48847                                  24734962.463
  -3290278.88649  -2563849.05544  24361999.437    24361989.508
 99 12  9  0 20  0.0000000  0  7G26G 8G27G13G 7G 9G19
 -14018878.97549 -10923762.42544  22382779.839    22382773.956
 -16079471.40549 -12529423.43044  21905442.859    21905436.865
 -20213469.29549 -15750721.75044  21537565.766    21537560.721
  -8348348.50349  -6505182.88144  23855996.211    23855988.632
 -21670824.40049 -16886312.30046  20480307.435    20480302.997
  -2033051.87948                                  24696369.763
  -3082440.80649  -2401897.38844  24401550.545    24401539.872
 99 12  9  0 21  0.0000000  0  7G26G 8G27G13G 7G 9G19
 -13990988.14649 -10902029.20744  22388087.149    22388081.330
 -16254095.04449 -12665493.51844  21872212.988    21872206.794
 -20059547.73849 -15630782.90744  21566856.224    21566851.046
  -8146542.42449  -6347931.62344  23894398.948    23894391.299
 -21689728.94149 -16901043.00346  20476710.071    20476705.584
  -2235671.93848                                  24657811.804
  -2874119.91049  -2239569.49944  24441191.603    24441181.923
 99 12  9  0 22  0.0000000  0  7G26G 8G27G13G 7G 9G19
 -13961047.88749 -10878699.03144  22393784.738    22393778.760
 -16427730.02149 -12800793.25744  21839170.892    21839165.004
 -19903913.61149 -15509509.58944  21596472.157    21596467.292
  -7944584.12749  -6190561.76144  23932830.497    23932822.858
 -21706879.11949 -16914406.67146  20473446.351    20473441.910
  -2437987.85048                                  24619312.515
  -2665257.09748                                  24480927.171
 99 12  9  0 23  0.0000000  0  7G26G 8G27G13G 7G 9G19
 -13928953.20449 -10853690.08044  22399891.872    22399886.166
 -16600412.91549 -12935351.14544  21806310.361    21806304.211
 -19746565.14849 -15386900.41744  21626414.645    21626409.752
  -7742365.56449  -6032989.10444  23971312.284    23971303.968
 -21722214.78649 -16926356.43846  20470528.019    20470523.665
  -2639937.18148                                  24580882.327
  -2455746.77448                                  24520795.827
 99 12  9  0 24  0.0000000  0  7G26G 8G27G13G 7G 9G19
 -13894697.91549 -10826997.55244  22406410.142    22406404.619
 -16772157.01749 -13069177.51744  21773628.367    21773622.130
 -19587661.27149 -15263079.24544  21656653.449    21656648.059
  -7539878.72649  -5875207.41944  24009843.878    24009836.091
 -21735728.70949 -16936886.66946  20467956.183    20467951.907
  -2841633.03848                                  24542500.412
  -2245537.12547  -1749765.01244  24560805.642    24560797.326
 99 12  9  0 25  0.0000000  0  8G26G 8G27G13G 4G 7G 9G19
 -13858294.10749 -10798630.86344  22413337.759    22413331.837
 -16942824.25749 -13202164.79444  21741151.341    21741145.153
 -19427234.31549 -15138071.27044  21687181.558    21687176.456
  -7337223.70349  -5717294.68444  24048408.416    24048400.344
        -0.71156                                  24060197.880
 -21747469.67149 -16946035.37446  20465721.871    20465717.537
  -3043137.41948                                  24504154.631
  -2034656.92347  -1585442.89544  24600935.084    24600926.656
 99 12  9  0 26  0.0000000  0  8G26G 8G27G13G 4G 7G 9G19
 -13819827.79549 -10768657.04444  22420657.998    22420651.637
 -17112372.41649 -13334280.04544  21708887.006    21708881.155
 -19265324.39649 -15011907.72944  21717991.771    21717986.837
  -7134602.93449  -5559408.63744  24086965.674    24086957.914
   -209531.20046                                  24020325.220
 -21757551.75149 -16953891.43646  20463803.173    20463798.813
  -3244534.32349                                  24465829.491
  -1823302.45747                                  24641146.100
 99 12  9  0 27  0.0000000  0  8G26G 8G27G13G 4G 7G 9G19
 -13779375.35849 -10737135.60844  22428355.284    22428349.408
 -17280833.11449 -13465547.91344  21676829.856    21676824.216
 -19101898.92449 -14884563.24644  21749090.957    21749085.656
  -6932068.19249  -5401589.62444  24125506.919    24125499.161
   -419110.56647                                  23980443.126
 -21765914.15949 -16960407.49446  20462211.845    20462207.483
  -3445875.06048                                  24427515.217
  -1611572.77346                                  24681436.738
 99 12  9  0 28  0.0000000  0  8G26G 8G27G13G 4G 7G 9G19
 -13737004.28949 -10704119.14244  22436418.508    22436412.484
 -17448328.98649 -13596063.95344  21644956.208    21644950.477
 -18936978.48149 -14756053.86444  21780474.272    21780469.116
  -6729597.85549  -5243820.78844  24164036.972    24164028.160
   -628813.48147                                  23940537.498
 -21772448.96949 -16965499.45346  20460968.184    20460963.886
  -3647081.43549                                  24389226.262
  -1399422.75946                                  24721807.724
 99 12  9  0 29  0.0000000  0  8G26G 8G27G13G 4G 7G 9G19
 -13692717.35549 -10669609.80344  22444845.618    22444839.783
 -17614814.36749 -13725792.58344  21613274.543    21613269.055
 -18770534.04249 -14626356.95044  21812147.528    21812142.527
  -6527163.05849  -5086079.66344  24202557.771    24202550.487
   -838605.68948                                  23900614.788
 -21777218.21949 -16969215.65146  20460060.448    20460056.229
  -3847935.95749  -2998380.21744  24351014.101    24351004.453
  -1186818.78846                                  24762264.756
 99 12  9  0 30  0.0000000  0  8G26G 8G27G13G 4G 7G 9G19
 -13646475.91849 -10633577.48944  22453645.322    22453639.369
 -17780165.54749 -13854637.40144  21581809.207    21581803.544
 -18602571.99249 -14495477.47244  21844109.499    21844104.610
  -6324728.43649  -4928338.68644  24241080.854    24241072.789
  -1048458.17949   -816976.27344  23860689.163    23860680.616
 -21780282.10449 -16971602.99246  20459477.166    20459473.101
  -4048306.62648                                  24312874.455
   -973785.79946                                  24802803.875
 99 12  9  0 31  0.0000000  0  8G26G 8G27G13G 4G 7G 9G19
 -13598263.84349 -10596009.61844  22462819.678    22462813.535
 -17944387.36749 -13982602.18844  21550558.517    21550552.836
 -18433106.58949 -14363426.54844  21876357.632    21876352.841
  -6122284.39649  -4770590.41544  24279604.769    24279596.698
  -1258305.09449   -980492.58444  23820755.319    23820747.593
 -21781613.03749 -16972639.97946  20459223.929    20459219.815
  -4248315.31749  -3310363.13944  24274824.731    24274814.306
   -760377.40645                                  24843413.933
 99 12  9  0 32  0.0000000  0  8G26G 8G27G13G 4G 7G 9G19
 -13548032.94949 -10556868.65044  22472378.343    22472372.303
 -18107479.93049 -14109687.02944  21519522.628    21519517.367
 -18262114.71849 -14230186.16044  21908896.163    21908891.459
  -5919835.99949  -4612838.70544  24318128.934    24318121.529
  -1468029.53149  -1143913.36844  23780847.167    23780837.611
 -21781184.28849 -16972305.79046  20459305.464    20459301.117
  -4448037.52049                                  24236807.513
   -546523.98745                                  24884108.241
 99 12  9  0 33  0.0000000  0  8G26G 8G27G13G 4G 7G 9G19
 -13495761.59849 -10516137.71344  22482325.325    22482319.238
 -18269353.35149 -14235821.89044  21488718.885    21488713.565
 -18089608.37549 -14095765.66244  21941723.651    21941718.404
  -5717348.70849  -4455056.69644  24356661.889    24356653.858
  -1677663.79649  -1307263.85144  23740954.131    23740944.947
 -21779006.55549 -16970608.75946  20459719.818    20459715.613
  -4647388.29649  -3621328.15744  24198883.173    24198872.624
   -332107.19645                                  24924911.010
 99 12  9  0 34  0.0000000  0  7G26G 8G27G13G 4G 7G 9
 -13441669.47349 -10473987.99144  22492618.063    22492612.877
 -18430146.87249 -14361115.27544  21458120.756    21458115.475
 -17915838.01649 -13960360.21544  21974790.691    21974785.776
  -5515055.18949  -4297425.67444  24395159.114    24395149.310
  -1887485.20749  -1470760.16544  23701025.132    23701016.547
 -21775306.84249 -16967725.77746  20460423.644    20460419.663
  -4846464.66749  -3776452.15144  24160999.064    24160988.763
 99 12  9  0 35  0.0000000  0  8G26G 8G27G13G 4G 7G 9G 2
 -13385640.65449 -10430329.14844  22503280.366    22503274.662
 -18589686.21049 -14485431.38944  21427761.049    21427756.007
 -17740618.51149 -13823825.57144  22008134.086    22008128.948
  -5312923.17649  -4139920.52644  24433622.045    24433614.027
  -2097234.69549  -1634200.45444  23661110.340    23661101.901
 -21769889.85149 -16963504.65946  20461454.430    20461450.295
  -5045088.68649  -3931223.61544  24123201.393    24123191.712
        -1.13159        -0.12555  21230127.225    21230123.054
 99 12  9  0 36  0.0000000  0  8G26G 8G27G13G 4G 7G 9G 2
 -13327569.69149 -10385079.02844  22514331.220    22514325.016
 -18747790.54249 -14608629.32344  21397674.663    21397669.306
 -17563784.19649 -13686032.63344  22041784.707    22041779.566
  -5110909.39749  -3982507.50244  24472063.357    24472056.113
  -2306572.68749  -1797320.15644  23621273.210    23621265.647
 -21762652.70149 -16957865.23646  20462831.456    20462827.435
  -5243154.44249  -4085559.99044  24085510.118    24085500.314
     26681.71349     20791.77545  21235204.847    21235200.678
 99 12  9  0 37  0.0000000  0  8G26G 8G27G13G 4G 7G 9G 2
 -13267544.58049 -10338306.19144  22525753.115    22525747.527
 -18904585.56049 -14730807.02244  21367837.188    21367831.926
 -17385488.40149 -13547100.86444  22075712.926    22075708.078
  -4909108.76149                                  24510457.760
  -2515658.18749  -1960243.22544  23581485.228    23581477.254
 -21753758.35249 -16950934.48946  20464523.936    20464519.891
  -5440812.58949  -4239578.68844  24047897.014    24047887.210
     54091.29649     42149.95945  21240420.619    21240416.355
 99 12  9  0 38  0.0000000  0  8G26G 8G27G13G 4G 7G 9G 2
 -13205510.91549 -10289968.24644  22537557.620    22537552.247
 -19060120.37649 -14852002.75344  21338239.497    21338234.635
 -17205739.34849 -13407036.69644  22109918.332    22109913.187
  -4707412.60848                                  24548839.564
  -2724558.61549  -2123022.18744  23541731.654    23541724.397
 -21743200.64649 -16942707.61546  20466533.017    20466528.892
  -5637989.60349  -4393222.51344  24010372.732    24010364.997
     82201.03949     64053.72245  21245769.789    21245765.523
 99 12  9  0 39  0.0000000  0  8G26G 8G27G13G 4G 7G 9G 2
 -13141747.54149 -10240282.46544  22549691.655    22549686.066
 -19214597.71749 -14972374.48144  21308843.605    21308838.579
 -17024780.28549 -13266029.66644  22144353.804    22144348.610
  -4506020.77848                                  24587163.295
  -2933462.54349  -2285803.94344  23501978.163    23501970.865
 -21731199.65549 -16933356.10346  20468816.521    20468812.438
  -5834835.40649  -4546608.20444  23972913.855    23972906.544
    110740.35449     86292.21545  21251200.512    21251196.228
 99 12  9  0 40  0.0000000  0  8G26G 8G27G13G 4G 7G 9G 2
 -13076210.73649 -10189214.78144  22562162.758    22562156.999
 -19367794.64049 -15091748.49144  21279690.610    21279686.060
 -16842463.22449 -13123964.45444  22179047.793    22179042.333
  -4304873.61848                                  24625440.894
  -3142108.28949  -2448384.56244  23462274.154    23462266.692
 -21717555.32349 -16922724.06646  20471412.773    20471408.813
  -6031160.10449  -4699587.90644  23935554.325    23935546.692
    139909.30049    109021.33045  21256750.822    21256746.785
 99 12  9  0 41  0.0000000  0  8G26G 8G27G13G 4G 7G 9G 2
 -13008890.60349 -10136757.50444  22574973.146    22574967.390
 -19519716.14549 -15210128.68344  21250780.956    21250776.195
 -16658847.81349 -12980887.54744  22213988.368    22213983.370
  -4104088.91347                                  24663649.055
  -3350546.48549  -2610803.48744  23422609.308    23422601.905
 -21702270.38349 -16910813.63646  20474321.302    20474317.324
  -6227038.20549  -4852219.64544  23898280.531    23898271.843
    169727.85949    132256.63845  21262425.046    21262420.988
 99 12  9  0 42  0.0000000  0  8G26G 8G27G13G 4G 7G 9G 2
 -12939640.22649 -10082796.14744  22588151.477    22588145.351
 -19670299.61349 -15327466.26845  21222125.549    21222120.814
 -16473923.33849 -12836790.58944  22249178.517    22249173.373
  -3903606.47747                                  24701799.822
  -3558805.99149  -2773083.18044  23382978.530    23382971.335
 -21685312.53349 -16897599.64246  20477548.222    20477544.107
  -6422507.41049  -5004532.79244  23861083.725    23861074.913
    200115.24149    155935.19445  21268207.526    21268203.519
 99 12  9  0 43  0.0000000  0  8G26G 8G27G13G 4G 7G 9G 2
 -12868437.40449 -10027313.40944  22601700.849    22601695.105
 -19819368.36849 -15443623.56645  21193758.515    21193753.785
 -16287567.87149 -12691578.56144  22284640.689    22284635.644
  -3703310.84746                                  24739916.570
  -3766756.04049  -2935121.75644  23343406.181    23343399.354
 -21666615.83349 -16883030.69746  20481106.083    20481102.068
  -6617489.76949  -5156466.57744  23823977.979    23823970.676
    231138.69949    180109.39645  21274111.081    21274107.122
 99 12  9  0 44  0.0000000  0  7G26G 8G27G 4G 7G 9G 2
 -12795459.77349  -9970447.70244  22615587.830    22615582.247
 -19966898.78049 -15558582.16345  21165684.338    21165679.613
 -16099840.69549 -12545297.66744  22320363.842    22320358.675
  -3974304.14149  -3096847.14344  23303910.202    23303903.934
 -21646264.11549 -16867172.12946  20484978.740    20484974.709
  -6811852.87749  -5307917.88944  23786991.703    23786984.352
    262868.34049    204833.88245  21280148.806    21280144.992
 99 12  9  0 45  0.0000000  0  7G26G 8G27G 4G 7G 9G 2
 -12720831.07949  -9912295.47044  22629789.220    22629783.344
 -20112950.24949 -15672388.33445  21137891.294    21137886.958
 -15910840.72449 -12398024.98744  22356329.390    22356324.191
  -4181423.27349  -3258238.30344  23264496.360    23264490.105
 -21624320.42349 -16850073.06646  20489154.357    20489150.459
  -7005452.81449  -5458774.43944  23750152.162    23750142.234
    295313.81449    230116.17045  21286322.745    21286318.881
 99 12  9  0 46  0.0000000  0  7G26G 8G27G 4G 7G 9G 2
 -12644460.27949  -9852785.75944  22644321.751    22644316.258
 -20257551.01949 -15785064.08145  21110374.618    21110369.983
 -15720493.86749 -12249702.79444  22392551.181    22392545.953
  -4388099.94849  -3419284.70244  23225167.751    23225160.447
 -21600688.23849 -16831658.29946  20493651.349    20493647.382
  -7198259.95449  -5609013.29044  23713460.054    23713451.739
    328456.72949    255941.92045  21292629.703    21292625.706
 99 12  9  0 47  0.0000000  0  7G26G 8G27G 4G 7G 9G 2
 -12566454.84049  -9792002.30344  22659166.069    22659160.302
 -20400948.12549 -15896801.90645  21083086.932    21083082.424
 -15528948.18549 -12100446.43644  22429001.340    22428996.064
  -4594506.68649  -3580120.79044  23185888.937    23185882.334
 -21575597.44249 -16812106.95146  20498425.927    20498422.045
  -7390654.20349  -5758930.39744  23676848.374    23676839.935
    362102.11949    282159.20845  21299031.913    21299028.174
 99 12  9  0 48  0.0000000  0  7G26G 8G27G 4G 7G 9G 2
 -12486644.43149  -9729812.37444  22674353.445    22674347.759
 -20542935.67049 -16007441.36345  21056067.251    21056062.850
 -15336146.00949 -11950210.99044  22465690.234    22465685.146
  -4800520.53949  -3740650.74844  23146685.307    23146679.069
 -21549042.19849 -16791414.47546  20503479.070    20503475.301
  -7582662.78449  -5908546.94744  23640309.913    23640302.043
    396445.97649    308920.74945  21305567.536    21305563.626
 99 12  9  0 49  0.0000000  0  7G26G 8G27G 4G 7G 9G 2
 -12404864.71249  -9666087.90544  22689915.402    22689910.022
 -20683242.26849 -16116770.98745  21029367.650    21029363.377
 -15142048.26249 -11798966.01044  22502625.329    22502620.576
  -5006015.12049  -3900776.05344  23107580.809    23107574.260
 -21520926.91649 -16769506.38446  20508829.103    20508825.334
  -7774039.15849  -6057670.91244  23603891.287    23603883.778
    431681.90549    336377.40845  21312272.534    21312268.627
 99 12  9  0 50  0.0000000  0  7G26G 8G27G 4G 7G 9G 2
 -12321270.13649  -9600949.25644  22705823.063    22705817.310
 -20821877.25649 -16224798.06345  21002986.026    21002981.951
 -14946695.71849 -11646743.25544  22539800.184    22539795.106
  -5211013.24649  -4060514.47544  23068570.356    23068564.235
 -21491225.30049 -16746362.18746  20514481.050    20514477.291
  -7964674.44549  -6206217.37344  23567614.223    23567606.765
    467639.17749    364396.15045  21319114.936    21319111.032
 99 12  9  0 51  0.0000000  0  7G26G 8G27G 4G 7G 9G 2
 -12235983.11749  -9534491.81744  22722052.691    22722046.556
 -20958964.01349 -16331618.73045  20976899.136    20976894.997
 -14750049.05549 -11493512.10044  22577220.527    22577215.722
  -5415445.40649  -4219811.84244  23029668.024    23029661.656
 -21459872.01949 -16721930.98046  20520447.359    20520443.538
  -8154510.11849  -6354140.78844  23531489.364    23531482.447
    504198.55449    392884.05945  21326071.854    21326068.006
 99 12  9  0 52  0.0000000  0  7G26G 8G27G 4G 7G 9G 2
 -12149016.57949  -9466725.65144  22738601.557    22738595.949
 -21094580.41149 -16437293.66845  20951091.972    20951087.789
 -14552205.09449 -11339347.98444  22614869.723    22614864.075
  -5619315.84349  -4378671.46344  22990872.729    22990866.202
 -21426917.22649 -16696251.84446  20526718.516    20526714.668
  -8343553.93749  -6501447.20244  23495513.656    23495508.290
    541421.02049    421888.65545  21333154.939    21333151.254
 99 12  9  0 53  0.0000000  0  7G26G 8G27G 4G 7G 9G 2
 -12060425.07849  -9397693.27244  22755459.753    22755454.588
 -21228641.34849 -16541756.56645  20925580.943    20925576.754
 -14353279.78449 -11184341.27444  22652723.508    22652718.477
  -5822663.50849  -4537123.72044  22952176.247    22952170.158
 -21392412.03749 -16669364.60846  20533284.362    20533280.710
  -8531915.61049  -6648222.09744  23459669.945    23459663.835
    579399.54049    451482.38245  21340381.775    21340378.248
 99 12  9  0 54  0.0000000  0  7G 2G26G 8G27G 4G 7G 9
    618195.68449    481713.22145  21347764.519    21347760.955
 -11970242.15049  -9327420.82144  22772621.234    22772615.631
 -21360944.57249 -16644849.82545  20900404.193    20900400.241
 -14153210.50349 -11028443.16344  22690795.902    22690790.358
  -6025412.56249  -4695109.52144  22913593.160    22913587.903
 -21356337.02849 -16641254.13746  20540149.234    20540145.496
  -8719568.63749  -6794444.82144  23423959.458    23423954.300
 99 12  9  0 55  0.0000000  0  7G 2G26G 8G27G 4G 7G 9
    657740.03549    512527.07445  21355289.468    21355285.838
 -11878465.49149  -9255906.52344  22790085.995    22790080.019
 -21491426.18649 -16746523.65445  20875574.262    20875570.277
 -13951898.87349 -10871576.99044  22729104.008    22729098.865
  -6227485.70449  -4852568.64244  22875139.187    22875134.316
 -21318749.92349 -16611965.40846  20547301.615    20547297.789
  -8906447.51549  -6940064.31044  23388398.284    23388391.616
 99 12  9  0 56  0.0000000  0  7G 2G26G 8G27G 4G 7G 9
    697920.65949    543836.73045  21362935.501    21362931.965
 -11785081.20749  -9183139.52744  22807856.037    22807850.550
 -21620314.87249 -16846956.25145  20851047.385    20851043.373
 -13749430.24249 -10713809.26944  22767632.113    22767627.218
  -6428957.55449  -5009559.23944  22836800.675    22836795.055
 -21279836.56349 -16581643.22846  20554706.540    20554702.682
  -9092580.18749  -7085102.34244  23352977.807    23352971.337
 99 12  9  0 57  0.0000000  0  7G 2G26G 8G27G 4G 7G 9
    738814.78249    575702.34545  21370717.038    21370713.416
 -11689995.48349  -9109046.74944  22825950.290    22825944.731
 -21747690.16549 -16946209.59145  20826808.598    20826804.557
 -13545859.17349 -10555182.50044  22806370.509    22806365.413
  -6629830.99049  -5166083.54044  22798575.529    22798569.725
 -21239529.09349 -16550234.71846  20562376.713    20562373.156
  -9277938.99549  -7229537.35944  23317705.282    23317698.577
 99 12  9  0 58  0.0000000  0  7G 2G26G 8G27G 4G 7G 9
    780461.20149    608154.18945  21378642.123    21378638.739
 -11593293.26849  -9033694.36844  22844352.169    22844346.615
 -21873506.45349 -17044248.12045  20802866.332    20802862.453
 -13341228.57249 -10395730.13444  22845310.470    22845305.278
  -6830105.26749  -5322140.98844  22760463.819    22760458.386
 -21197726.13049 -16517660.89746  20570331.282    20570327.835
  -9462532.67749  -7373376.17044  23282577.190    23282570.863
 99 12  9  0 59  0.0000000  0  7G 2G26G 8G27G 4G 7G 9
    822851.38849    641185.59345  21386708.527    21386705.007
 -11495053.23949  -8957143.68544  22863046.659    22863041.012
 -21997633.83549 -17140970.61345  20779245.511    20779241.749
 -13135592.67049 -10235494.38244  22884441.196    22884436.564
  -7029731.60349  -5477693.59244  22722475.779    22722470.667
 -21154405.77049 -16483904.67646  20578575.024    20578571.431
  -9646299.83449  -7516570.95144  23247608.332    23247601.116
 99 12  9  1  0  0.0000000  0  7G26G 8G27G 4G 7G 9G 2
 -11395325.58049  -8879433.81744  22882024.152    22882018.516
 -22120031.51849 -17236345.28845  20755953.847    20755950.160
 -12928949.77649 -10074473.95444  22923764.667    22923759.419
  -7228599.58249  -5632655.30044  22684631.963    22684626.971
 -21109667.43349 -16449043.53246  20587088.298    20587084.630
  -9829207.17349  -7659095.73144  23212800.736    23212795.206
    865919.86849    674745.53845  21394904.254    21394900.822
 99 12  9  1  1  0.0000000  0  7G26G 8G27G 4G 7G 9G 2
 -11294098.98649  -8800555.93744  22901286.896    22901281.334
 -22240630.07449 -17330318.04345  20733004.582    20733000.768
 -12721220.08449  -9912606.69344  22963294.424    22963289.138
  -7426594.57249  -5786936.79644  22646954.498    22646949.587
 -21063540.53649 -16413100.39046  20595865.785    20595862.046
 -10011198.21249  -7800906.54044  23178169.608    23178163.048
    909679.45349    708844.00245  21403231.099    21403227.799
 99 12  9  1  2  0.0000000  0  7G 2G26G 8G27G 4G 7G 9
    954176.02049    743516.72945  21411698.834    21411695.368
 -11191438.53949  -8720560.75744  22920822.293    22920816.848
 -22359403.23049 -17422868.41245  20710402.503    20710398.906
 -12512428.08349  -9749911.67944  23003026.001    23003020.846
  -7623795.92049  -5940599.88944  22609428.103    22609423.115
 -21016038.89449 -16376086.02246  20604904.986    20604901.421
 -10192273.63349  -7942003.88544  23143710.711    23143705.156
 99 12  9  1  3  0.0000000  0  7G 2G26G 8G27G 4G 7G 9
    999293.20749    778673.05345  21420284.125    21420280.670
 -11087522.96549  -8639587.55044  22940597.034    22940591.457
 -22476521.76749 -17514129.47245  20688115.671    20688111.924
 -12302758.48149  -9586532.83144  23042924.567    23042919.770
  -7820437.71149  -6093826.97944  22572007.844    22572003.271
 -20967331.34149 -16338131.99546  20614173.441    20614170.172
 -10372638.32649  -8082547.45344  23109388.015    23109382.196
 99 12  9  1  4  0.0000000  0  7G26G27G 8G 4G 7G 9G 2
 -10982082.04049  -8557425.75344  22960661.555    22960656.135
 -12092038.18749  -9422335.28644  23083023.551    23083018.420
 -22591827.86949 -17603978.24645  20666173.447    20666169.855
  -8016234.60249  -6246395.70544  22534747.897    22534744.186
 -20917122.68649 -16299008.28746  20623727.710    20623724.435
 -10552086.73549  -8222377.04344  23075240.183    23075234.106
   1045279.21449    814506.37845  21429035.114    21429031.675
 99 12  9  1  5  0.0000000  0  7G26G 8G27G 4G 7G 9G 2
 -10875142.83749  -8474096.45744  22981010.978    22981005.961
 -22705391.05849 -17692468.91045  20644562.847    20644559.247
 -11880336.57949  -9257373.08644  23123308.808    23123303.880
  -8211079.52049  -6398222.62444  22497670.902    22497666.324
 -20865371.42749 -16258682.55845  20633575.673    20633572.303
 -10730599.26349  -8361477.39344  23041270.107    23041263.911
   1092058.10949    850957.53245  21437936.410    21437932.971
 99 12  9  1  6  0.0000000  0  7G26G 8G27G 4G 7G 9G 2
 -10766826.23149  -8389693.87644  23001623.326    23001617.672
 -22817057.19549 -17779481.35845  20623313.260    20623309.658
 -11667672.11849  -9091660.59444  23163777.982    23163772.782
  -8404929.65449  -6549274.36844  22460782.647    22460777.578
 -20812140.07849 -16217203.51545  20643705.369    20643701.672
 -10908102.87449  -8499791.59744  23007491.669    23007485.742
   1139557.93249    887970.44245  21446975.380    21446971.980
 99 12  9  1  7  0.0000000  0  7G26G 8G27G 4G 7G 9G 2
 -10657158.83949  -8304238.73444  23022492.828    23022486.557
 -22926600.45949 -17864839.62045  20602467.939    20602464.386
 -11453973.20649  -8925142.02344  23204443.659    23204438.488
  -8597806.70449  -6699567.86144  22424078.477    22424074.130
 -20757585.85149 -16174693.65745  20654086.662    20654082.904
 -11084519.58549  -8637258.89344  22973920.015    22973914.819
   1187807.73149    925567.75545  21456156.891    21456153.640
 99 12  9  1  8  0.0000000  0  7G26G 8G27G 4G 7G 9G 2
 -10545910.27349  -8217551.52544  23043662.480    23043656.317
 -23034002.15349 -17948529.12745  20582029.940    20582026.467
 -11239181.63349  -8757772.01444  23245317.842    23245311.997
  -8789681.42449  -6849080.32444  22387565.758    22387561.387
 -20701715.14149 -16131157.97045  20664718.373    20664714.897
 -11259762.22649  -8773811.33044  22940572.580    22940567.130
   1236946.19849    963857.53445  21465507.581    21465504.323
 99 12  9  1  9  0.0000000  0  7G26G 8G27G 4G 7G 9G 2
 -10433452.73749  -8129922.26744  23065062.092    23065056.535
 -23139966.72549 -18031098.80145  20561865.486    20561861.919
 -11023831.32549  -8589966.61844  23286296.652    23286291.833
  -8980954.26449  -6998123.79944  22351167.267    22351163.020
 -20644902.53449 -16086888.34045  20675529.291    20675526.057
 -11434281.84349  -8909800.36644  22907362.059    22907357.018
   1286579.88449   1002533.19245  21474952.596    21474949.275
 99 12  9  1 10  0.0000000  0  7G26G 8G27G 4G 7G 9G 2
 -10319504.57749  -8041131.48144  23086745.688    23086740.180
 -23244123.79549 -18112260.03645  20542044.866    20542041.341
 -10807581.61149  -8421460.37344  23327447.083    23327442.743
  -9171149.95949  -7146327.96044  22314973.865    22314969.735
 -20586664.70749 -16041508.15345  20686611.369    20686608.208
 -11607679.21949  -9044914.95044  22874365.674    22874360.185
   1337099.96449   1041899.55045  21484566.165    21484562.869
 99 12  9  1 11  0.0000000  0  7G26G 8G27G 4G 7G 9G 2
 -10204132.72149  -7951231.32544  23108700.179    23108694.623
 -23346143.91949 -18191756.11945  20522630.874    20522627.483
 -10590277.08849  -8252132.22044  23368798.542    23368794.568
  -9360103.54549  -7293564.26944  22279017.016    22279012.912
 -20526838.53049 -15994890.29245  20697995.802    20697992.610
 -11779794.57449  -9179030.54144  22841612.585    22841607.444
   1388701.61549   1082108.68945  21494385.589    21494382.250
 99 12  9  1 12  0.0000000  0  7G26G 8G27G 4G 7G 9G 2
 -10087674.96749  -7860485.00344  23130861.139    23130856.042
 -23446169.08249 -18269697.68645  20503596.558    20503593.316
 -10372125.77948  -8082144.25544  23410312.610    23410307.272
  -9548077.05649  -7440036.89944  22243246.228    22243242.506
 -20465730.16949 -15947273.32145  20709624.412    20709620.955
 -11950922.51549  -9312376.72344  22809048.166    22809042.797
   1441104.06549   1122941.82445  21504357.315    21504354.055
 99 12  9  1 13  0.0000000  0  7G26G 8G27G 4G 7G 9G 2
  -9970032.82749  -7768815.79444  23153247.740    23153242.590
 -23544202.33549 -18346087.11745  20484941.421    20484937.954
 -10153134.78248  -7911502.00044  23451984.800    23451979.801
  -9735032.66649  -7585716.36444  22207669.967    22207665.864
 -20403386.85949 -15898694.04745  20721488.291    20721484.463
 -12121083.24649  -9444969.23044  22776666.394    22776662.032
   1494280.18049   1164377.81945  21514476.220    21514473.048
 99 12  9  1 14  0.0000000  0  7G26G 8G27G 4G 7G 9G 2
  -9851126.99149  -7676161.89344  23175875.424    23175869.351
 -23640252.86249 -18420931.57745  20466663.611    20466660.179
  -9933422.60848  -7740297.79044  23493795.954    23493789.756
  -9920914.08149  -7730558.81344  22172297.638    22172293.762
 -20339819.56049 -15849161.01845  20733584.499    20733580.939
 -12290223.77849  -9576766.78944  22744480.392    22744475.509
   1548205.66149   1206397.73645  21524737.900    21524734.737
 99 12  9  1 15  0.0000000  0  7G26G 8G27G 4G 7G 9G 2
  -9730897.39849  -7582476.50944  23198754.166    23198748.328
 -23734307.43149 -18494220.74745  20448765.486    20448762.194
  -9713027.70248  -7568561.56444  23535735.465    23535729.613
 -10105642.05549  -7874502.49044  22137144.812    22137140.966
 -20274958.22049 -15798619.65545  20745927.063    20745923.824
 -12458183.94349  -9707644.58044  22712517.888    22712513.746
   1602934.00749   1249043.25445  21535152.265    21535149.082
 99 12  9  1 16  0.0000000  0  7G26G 8G27G 4G 7G 9G 2
  -9609363.10649  -7487774.48844  23221881.039    23221875.528
 -23826355.32549 -18565946.27045  20431249.133    20431245.912
  -9491825.71149  -7396196.46244  23577827.828    23577823.103
 -10289205.57549  -8017538.80344  22102213.578    22102209.964
 -20208817.16249 -15747081.12045  20758513.237    20758510.102
 -12624846.87249  -9837511.54044  22680803.340    22680798.823
   1658493.27849   1292336.23945  21545724.878    21545721.611
 99 12  9  1 17  0.0000000  0  7G26G 8G27G 4G 7G 9G 2
  -9486658.61049  -7392160.63544  23245231.145    23245225.164
 -23916365.81149 -18636084.20145  20414120.672    20414117.522
  -9269775.11849  -7223170.09044  23620083.125    23620077.992
 -10471662.51849  -8159712.84844  22067492.863    22067489.305
 -20141513.32049 -15694636.52445  20771320.334    20771317.165
 -12790266.59749  -9966409.78144  22649324.660    22649320.167
   1714850.23549   1336250.79445  21556449.059    21556445.808
 99 12  9  1 18  0.0000000  0  6G26G 8G27G 4G 7G 9
  -9362932.74649  -7295750.91944  23268775.213    23268769.487
 -24004258.44549 -18704571.85945  20397395.064    20397391.797
  -9046925.06549  -7049520.74344  23662490.372    23662484.882
 -10652988.72849  -8301005.77944  22032987.692    22032983.847
 -20073120.71949 -15641343.53945  20784334.945    20784331.649
 -12954529.92049 -10094406.94044  22618065.541    22618061.539
 99 12  9  1 19  0.0000000  0  7G26G 8G27G 4G 7G 9G 5
  -9238206.87649  -7198561.97044  23292510.005    23292504.298
 -24090028.48049 -18771405.54345  20381073.578    20381070.373
  -8823397.45549  -6875343.42444  23705026.844    23705021.055
 -10833132.51449  -8441377.34544  21998706.846    21998703.600
 -20003619.00049 -15587186.29345  20797560.658    20797557.247
 -13117679.96249 -10221536.61944  22587019.538    22587015.018
        -0.66657                                  25217530.670
 99 12  9  1 20  0.0000000  0  7G26G 8G27G 4G 7G 9G 5
  -9112186.55049  -7100364.35344  23316490.545    23316485.328
 -24173666.77649 -18836578.13145  20365157.499    20365154.275
  -8599157.06049  -6700610.69744  23747698.210    23747692.439
 -11011945.39449  -8580711.82844  21964679.926    21964676.524
 -19932795.42949 -15531999.02445  20811038.095    20811034.806
 -13279528.30549 -10347651.99144  22556220.648    22556216.163
   -163413.77647                                  25186433.721
 99 12  9  1 21  0.0000000  0  7G26G 8G27G 4G 7G 9G 5
  -8984855.38849  -7001145.29944  23340721.032    23340715.665
 -24255298.75449 -18900187.35845  20349623.520    20349620.338
  -8374262.19549  -6525367.99544  23790494.449    23790488.466
 -11189438.01549  -8719017.52544  21930903.805    21930900.550
 -19860684.63249 -15475808.72245  20824760.536    20824757.350
 -13440017.75449 -10472708.50644  22525679.907    22525675.950
   -326979.08347                                  25155307.741
 99 12  9  1 22  0.0000000  0  7G26G 8G27G 4G 7G 9G 5
  -8856421.80049  -6901067.21744  23365160.842    23365155.547
 -24334898.80049 -18962213.26845  20334475.956    20334472.805
  -8148755.42849  -6349648.48744  23833406.917    23833401.082
 -11365653.69849  -8856328.19844  21897370.881    21897367.562
 -19787427.64049 -15418725.28746  20838700.999    20838697.811
 -13599193.77049 -10596741.57544  22495389.614    22495385.501
   -490712.16948   -382375.45444  25124158.016    25124150.110
 99 12  9  1 23  0.0000000  0  7G26G 8G27G 4G 7G 9G 5
  -8727102.98649  -6800299.35644  23389770.509    23389764.349
 -24412350.24449 -19022564.94445  20319737.405    20319734.244
  -7922681.49449  -6173487.02944  23876426.716    23876421.404
 -11540660.94649  -8992697.24644  21864068.022    21864064.607
 -19713125.47549 -15360827.43845  20852839.814    20852836.616
 -13757113.24749 -10719795.52944  22465338.589    22465334.298
   -654618.10547   -510093.85144  25092968.165    25092959.005
 99 12  9  1 24  0.0000000  0  7G26G 8G27G 4G 7G 9G 5
  -8596884.65749  -6698830.57644  23414549.875    23414544.104
 -24487579.26349 -19081184.86845  20305421.697    20305418.499
  -7695977.08849  -5996834.29944  23919568.952    23919562.009
 -11714382.50049  -9128064.47044  21831009.580    21831006.355
 -19637718.50649 -15302068.70645  20867188.835    20867185.508
 -13913788.72949 -10841880.12244  22435523.846    22435519.753
   -818717.14947   -637962.73444  25061741.329    25061731.649
 99 12  9  1 25  0.0000000  0  7G26G 8G27G 4G 7G 9G 5
  -8465677.20549  -6596591.03844  23439517.112    23439511.853
 -24560557.26549 -19138050.75645  20291534.390    20291531.246
  -7468557.89549  -5819624.59544  23962844.406    23962838.345
 -11886676.63549  -9262319.43744  21798223.004    21798219.716
 -19561118.00549 -15242379.95145  20881765.418    20881762.006
 -14069172.94349 -10962958.53144  22405955.236    22405951.017
   -983043.70147   -766008.82744  25030470.767    25030460.342
 99 12  9  1 26  0.0000000  0  7G26G 8G27G 4G 7G 9G 5
  -8333468.39349  -6493571.23744  23464676.886    23464670.607
 -24631368.77349 -19193228.47145  20278059.321    20278056.196
  -7240528.31149  -5641939.24744  24006236.765    24006231.206
 -12057577.42449  -9395488.69744  21765701.273    21765698.230
 -19483429.25549 -15181843.21745  20896549.111    20896545.909
 -14223230.36549 -11083003.05444  22376638.265    22376634.653
  -1147533.81247   -894182.53244  24999168.536    24999158.731
 99 12  9  1 27  0.0000000  0  7G26G 8G27G 4G 7G 9G 5
  -8200215.41949  -6389737.80244  23490033.247    23490027.790
 -24700079.20449 -19246768.98545  20264984.090    20264981.026
  -7011970.52049  -5463842.33644  24049729.578    24049724.032
 -12227139.28849  -9527614.64744  21733434.604    21733431.475
 -19404694.98449 -15120491.80345  20911531.906    20911528.860
 -14375883.22549 -11201953.10544  22347589.566    22347585.559
  -1312007.64347                                  24967860.106
 99 12  9  1 28  0.0000000  0  7G26G 8G27G 4G 7G 9G 5
  -8065969.41249  -6285130.55444  23515579.146    23515574.188
 -24766599.46049 -19298602.87245  20252325.642    20252322.490
  -6782852.02449  -5285308.49944  24093327.999    24093324.046
 -12395263.85849  -9658620.63644  21701441.484    21701438.342
 -19324880.02349 -15058298.29945  20926720.329    20926717.324
 -14527056.91449 -11319750.55344  22318821.497    22318817.700
  -1476460.96848                                  24936565.624
 99 12  9  1 29  0.0000000  0  7G26G 8G27G 4G 7G 9G 5
  -7930862.07649  -6179852.15744  23541290.248    23541284.331
 -24830816.16849 -19348641.79045  20240105.554    20240102.431
  -6553142.02749  -5106313.79244  24137042.665    24137036.293
 -12561851.33949  -9788428.90344  21669740.744    21669737.625
 -19243967.48849 -14995249.53645  20942117.534    20942114.398
 -14676827.23549 -11436454.46644  22290321.068    22290317.195
  -1641098.05048                                  24905235.983
 99 12  9  1 30  0.0000000  0  7G26G 8G27G 4G 7G 9G 5
  -7794990.03349  -6073977.86044  23567145.208    23567139.789
 -24892792.01649 -19396934.58345  20228311.880    20228308.768
  -6322984.93548  -4926970.66644  24180838.624    24180834.006
 -12726956.22749  -9917081.90544  21638322.273    21638319.028
 -19162082.32849 -14931442.87645  20957699.645    20957696.290
 -14825331.25049 -11552171.65344  22262062.015    22262057.962
  -1806119.51248                                  24873832.882
 99 12  9  1 31  0.0000000  0  7G26G 8G27G 4G 7G 9G 5
  -7658218.62349  -5967402.76644  23593171.979    23593166.632
 -24952468.52949 -19443435.69045  20216955.713    20216952.603
  -6092384.74448  -4747282.25844  24224722.027    24224715.813
 -12890480.21049 -10044503.03644  21607204.497    21607201.364
 -19079148.49449 -14866819.06245  20973481.222    20973477.693
 -14972383.77449 -11666757.81944  22234078.601    22234074.660
  -1971307.37748                                  24842398.134
 99 12  9  1 32  0.0000000  0  8G26G 8G27G24G 4G 7G 9G 5
  -7520440.94949  -5860043.57444  23619390.323    23619384.868
 -25009775.38849 -19488090.31645  20206050.504    20206047.427
  -5861202.56247  -4567140.35244  24268712.251    24268708.390
        -0.79156                                  24083501.573
 -13052350.58549 -10170635.65044  21576401.443    21576398.402
 -18994987.31449 -14801238.87045  20989496.444    20989493.099
 -15117748.91649 -11780029.15544  22206416.105    22206412.316
  -2136451.95448  -1664765.00544  24810981.323    24810972.105
 99 12  9  1 33  0.0000000  0  8G26G 8G27G24G 4G 7G 9G 5
  -7381891.87249  -5752083.28944  23645755.223    23645749.679
 -25064928.73749 -19531066.88446  20195555.142    20195552.078
  -5629628.59747                                  24312775.446
   -218053.51847                                  24042007.116
 -13212839.28449 -10295691.63344  21545861.416    21545858.278
 -18909791.01249 -14734852.09645  21005708.627    21005705.496
 -15261612.55749 -11892130.49844  22179039.517    22179035.920
  -2301735.32448  -1793556.49144  24779526.660    24779518.697
 99 12  9  1 34  0.0000000  0  8G26G 8G27G24G 4G 7G 9G 5
  -7242552.44049  -5643507.12544  23672270.197    23672265.107
 -25117897.45749 -19572341.14546  20185475.462    20185472.391
  -5397639.35547                                  24356921.658
   -436082.43447                                  24000517.152
 -13371882.52749 -10419621.28444  21515596.323    21515593.188
 -18823663.96049 -14667740.07145  21022098.002    21022095.121
 -15404031.39849 -12003106.04244  22151937.927    22151934.444
  -2467126.40948  -1922431.92744  24748054.355    24748045.382
 99 12  9  1 35  0.0000000  0  8G26G 8G27G24G 4G 7G 9G 5
  -7102449.91549  -5534336.34344  23698931.468    23698925.786
 -25168623.73449 -19611868.05046  20175822.618    20175819.533
  -5165311.70547                                  24401132.020
   -654032.11048   -509631.35944  23959049.794    23959041.981
 -13529380.90349 -10542347.15244  21485625.354    21485622.251
 -18736729.02749 -14599998.52945  21038641.185    21038638.334
 -15545099.43349 -12113029.01344  22125093.389    22125089.977
  -2632614.47348  -2051382.89644  24716560.957    24716553.896
 99 12  9  1 36  0.0000000  0  8G26G 8G27G24G 4G 7G 9G 5
  -6961618.56649  -5424597.66644  23725730.793    23725725.295
 -25217003.97349 -19649566.87846  20166616.013    20166612.976
  -4932642.03346                                  24445407.677
   -871779.58948   -679304.08544  23917612.743    23917605.646
 -13685240.41749 -10663795.98344  21455965.989    21455962.905
 -18648897.66349 -14531558.46645  21055354.914    21055351.946
 -15684690.84749 -12221801.38144  22098529.900    22098526.462
  -2798232.07248  -2180434.85544  24685046.934    24685037.005
 99 12  9  1 37  0.0000000  0  8G26G 8G27G24G 4G 7G 9G 5
  -6820110.60149  -5314331.74044  23752658.712    23752653.302
 -25262989.02749 -19685399.32646  20157865.243    20157862.268
  -4699594.55746                                  24489754.829
  -1089313.61649   -848810.49444  23876217.213    23876209.913
 -13839420.41049 -10783936.09144  21426626.330    21426623.206
 -18560081.12049 -14462350.72745  21072256.325    21072253.218
 -15822643.48749 -12329296.79644  22072278.575    22072274.819
  -2964058.18248  -2309649.40144  24653488.661    24653480.972
 99 12  9  1 38  0.0000000  0  8G26G 8G27G24G 4G 7G 9G 5
  -6678015.31849  -5203608.17044  23779698.623    23779692.986
 -25306673.67049 -19719439.24946  20149552.291    20149549.323
  -4466322.65946                                  24534145.308
  -1306766.16949  -1018253.42644  23834837.542    23834829.524
 -13992047.82449 -10902866.40644  21397582.272    21397579.284
 -18470346.84349 -14392427.86545  21089332.123    21089328.856
 -15959014.14649 -12435559.50744  22046327.944    22046324.158
  -3130168.03748  -2439085.14244  24621879.445    24621870.909
 99 12  9  1 39  0.0000000  0  8G26G 8G27G24G 4G 7G 9G 5
  -6535263.04949  -5092372.66844  23806863.356    23806857.832
 -25348052.75349 -19751682.63346  20141678.006    20141675.016
  -4232804.07646                                  24578582.515
  -1524115.65249  -1187616.03444  23793476.317    23793468.891
 -14142999.02249 -11020490.58944  21368857.059    21368854.075
 -18379683.50749 -14321781.06745  21106584.667    21106581.355
 -16093755.65849 -12540552.76044  22020686.890    22020683.495
  -3296399.14148  -2568615.46644  24590247.086    24590238.150
 99 12  9  1 40  0.0000000  0  8G26G 8G27G24G 4G 7G 9G 5
  -6391669.52449  -4980481.64544  23834189.583    23834183.044
 -25386945.27449 -19781988.43746  20134277.015    20134274.088
  -3998770.98445                                  24623117.535
  -1741095.33549  -1356690.51044  23752186.347    23752178.482
 -14292038.50849 -11136625.12844  21340495.582    21340492.662
 -18287918.07949 -14250275.50245  21124047.131    21124043.763
 -16226714.80849 -12644157.15744  21995385.735    21995382.175
  -3462482.63148  -2698030.83744  24558640.559    24558632.736
 99 12  9  1 41  0.0000000  0  8G26G 8G27G24G 4G 7G 9G 5
  -6247346.33449  -4868022.05844  23861651.654    23861646.796
 -25423465.67949 -19810445.83946  20127327.329    20127324.394
  -3764251.62745                                  24667745.354
  -1957722.78449  -1525490.52044  23710961.461    23710955.107
 -14439284.54649 -11251362.18244  21312475.504    21312472.692
 -18195161.62949 -14177997.71345  21141698.079    21141694.895
 -16358046.89549 -12746493.71744  21970393.812    21970390.547
  -3628562.98047  -2827443.80744  24527037.485    24527028.425
 99 12  9  1 42  0.0000000  0  8G26G 8G27G24G 4G 7G 9G 5
  -6102325.31349  -4755018.70244  23889249.145    23889243.258
 -25457598.54749 -19837042.82946  20120832.019    20120829.055
  -3529358.74745                                  24712444.060
  -2173927.79649  -1693961.37644  23669819.001    23669812.435
 -14584773.65249 -11364730.20644  21284789.554    21284787.005
 -18101445.53449 -14104972.15245  21159531.547    21159528.374
 -16487694.34349 -12847517.56844  21945722.571    21945719.172
  -3794710.53148  -2956909.16544  24495418.288    24495411.602
 99 12  9  1 43  0.0000000  0  7G26G 8G24G 4G 7G 9G 5
  -5956685.66449  -4641533.31444  23916964.059    23916957.729
 -25489306.29349 -19861750.11546  20114798.144    20114795.306
  -2389741.00249  -1862126.95544  23628750.418    23628743.967
 -14728474.41349 -11476704.71344  21257444.093    21257441.438
 -18006826.14249 -14031242.73145  21177536.698    21177533.692
 -16615608.86449 -12947191.08844  21921381.174    21921377.731
  -3960938.41448  -3086437.05144  24463785.346    24463779.281
 99 12  9  1 44  0.0000000  0  7G26G 8G24G 4G 7G 9G 5
  -5810612.46749  -4527710.09244  23944760.947    23944754.783
 -25518564.63949 -19884548.78246  20109230.507    20109227.570
  -2605268.89449  -2030070.26244  23587736.708    23587730.060
 -14870322.68849 -11587235.73244  21230451.329    21230448.634
 -17911390.46749 -13956877.24645  21195697.613    21195694.555
 -16741905.67549 -13045604.06144  21897347.720    21897344.102
  -4127237.19248  -3216020.14244  24432140.940    24432133.150
 99 12  9  1 45  0.0000000  0  8G26G 8G 2G24G 4G 7G 9G 5
  -5664164.00649  -4413594.44744  23972627.761    23972622.837
 -25545430.71449 -19905483.34446  20104117.864    20104114.889
        -0.71859        -0.98354  21925234.576    21925231.210
  -2820482.32949  -2197768.60644  23546782.306    23546775.890
 -15010348.52849 -11696346.67744  21203805.165    21203802.428
 -17815138.85849 -13881875.96945  21214013.775    21214010.669
 -16866603.44549 -13142771.02444  21873618.329    21873614.858
  -4293553.07748  -3345616.51244  24400492.912    24400484.429
 99 12  9  1 46  0.0000000  0  8G26G 8G 2G24G 4G 7G 9G 5
  -5517173.81049  -4299056.66444  24000600.272    24000594.063
 -25569985.85349 -19924617.17946  20099445.348    20099442.357
     82766.25749     64492.76744  21940984.813    21940981.409
  -3035344.49249  -2365193.27444  23505895.433    23505888.840
 -15148606.17449 -11804079.80844  21177495.455    21177492.762
 -17718081.91849 -13806247.15745  21232483.088    21232480.135
 -16989608.92349 -13238619.32344  21850210.963    21850207.539
  -4459972.28348  -3475293.29644  24368822.358    24368815.340
 99 12  9  1 47  0.0000000  0  8G26G 8G 2G24G 4G 7G 9G 5
  -5369485.31149  -4183974.73644  24028705.137    24028698.081
 -25592170.51449 -19941903.88546  20095223.596    20095220.793
    166504.89549    129743.65744  21956919.454    21956916.159
  -3249830.95049  -2532325.23944  23465078.913    23465073.161
 -15285115.44849 -11910450.57544  21151518.563    21151515.903
 -17620255.70049 -13730018.90345  21251098.610    21251095.765
 -17110808.80949 -13333060.67444  21827147.178    21827143.941
  -4626628.38248  -3605154.70744  24337108.326    24337101.212
 99 12  9  1 48  0.0000000  0  8G26G 8G 2G24G 4G 7G 9G 5
  -5221202.96749  -4068430.07544  24056921.125    24056915.201
 -25611886.96149 -19957267.31046  20091471.662    20091468.870
    251257.50649    195784.66844  21973047.504    21973044.391
  -3463911.41349  -2699140.89844  23424339.218    23424334.626
 -15419805.53849 -12015403.80144  21125887.616    21125885.034
 -17521641.96649 -13653176.99845  21269864.279    21269861.315
 -17230186.50449 -13426082.14044  21804430.459    21804427.155
  -4793505.63048  -3735188.44444  24305352.292    24305345.183
 99 12  9  1 49  0.0000000  0  8G26G 8G 2G24G 4G 7G 9G 5
  -5072592.42849  -3952629.68144  24085200.407    24085195.382
 -25629135.95049 -19970708.04546  20088189.309    20088186.431
    337113.02349    262685.10244  21989384.879    21989382.129
  -3677522.32349  -2865590.67244  23383691.421    23383685.470
 -15552579.41349 -12118863.86645  21100621.441    21100618.919
 -17422163.78349 -13575661.49445  21288794.370    21288791.228
 -17347749.56149 -13517689.60444  21782058.812    21782055.487
  -4960437.40248  -3865264.76944  24273584.543    24273578.856
 99 12  9  1 50  0.0000000  0  8G26G 8G 2G24G 4G 7G 9G 5
  -4923724.90149  -3836629.01944  24113528.911    24113523.889
 -25643989.08949 -19982281.88846  20085362.657    20085359.891
    424070.68049    330444.32944  22005932.800    22005929.680
  -3890641.78549  -3031657.52644  23343134.838    23343130.212
 -15683369.39049 -12220778.03545  21075732.858    21075730.466
 -17321760.47849 -13497425.12145  21307900.249    21307897.147
 -17463500.57749 -13607885.09944  21760031.905    21760028.631
  -5127294.64247  -3995283.03644  24241834.076    24241826.023
 99 12  9  1 51  0.0000000  0  8G26G 8G 2G24G 4G 7G 9G 5
  -4774426.48649  -3720292.61644  24141939.713    24141934.431
 -25656419.84549 -19991968.16446  20082997.283    20082994.527
    511968.55849    398936.19344  22022659.015    22022655.904
  -4103223.68449  -3197305.48844  23302682.451    23302676.887
 -15812188.75549 -12321156.66545  21051219.409    21051216.820
 -17220537.71949 -13418550.21545  21327162.279    21327159.153
 -17577491.76149 -13696709.29544  21738340.061    21738336.859
  -5294106.97348  -4125266.33244  24210091.336    24210083.121
 99 12  9  1 52  0.0000000  0  8G26G 8G 2G24G 4G 7G 9G 5
  -4624621.30649  -3603561.31044  24170448.404    24170441.547
 -25666348.52249 -19999704.76646  20081107.728    20081105.027
    600713.82849    468088.36144  22039546.462    22039543.383
  -4315244.63849  -3362516.35144  23262336.316    23262330.421
 -15939118.03549 -12420062.49445  21027065.289    21027062.844
 -17118645.60349 -13339153.73645  21346551.743    21346548.640
 -17689725.59249 -13784164.12344  21716982.829    21716979.665
  -5460960.35448  -4255281.68944  24178336.579    24178331.499
 99 12  9  1 53  0.0000000  0  8G26G 8G 2G24G 4G 7G 9G 5
  -4474410.91449  -3486514.26644  24199031.659    24199025.547
 -25673790.14449 -20005503.40246  20079691.509    20079688.954
    690416.15049    537986.27944  22056616.578    22056613.376
  -4526820.05149  -3527380.03044  23222074.337    23222068.778
 -16064170.97349 -12517506.25145  21003268.556    21003266.263
 -17016124.32749 -13259267.00445  21366060.891    21366057.861
 -17800134.74049 -13870197.11844  21695972.287    21695969.403
  -5627878.43348  -4385347.39644  24146575.334    24146568.027
 99 12  9  1 54  0.0000000  0  8G26G 8G 2G24G 4G 7G 9G 5
  -4323925.10748  -3369252.61444  24227667.629    24227661.779
 -25678779.92249 -20009391.51646  20078742.107    20078739.270
    781157.88249    608694.12544  22073884.096    22073880.933
  -4737962.31549  -3691906.20244  23181894.677    23181889.648
 -16187244.11149 -12613407.31045  20979848.309    20979846.068
 -16912841.38049 -13178786.75945  21385715.182    21385712.041
 -17908664.23949 -13954765.45344  21675319.823    21675316.676
  -5794879.22248  -4515477.54544  24114794.553    24114788.446
 99 12  9  1 55  0.0000000  0  8G26G 8G 2G24G 4G 7G 9G 5
  -4173210.84348  -3251812.96444  24256346.687    24256341.973
 -25681328.14849 -20011377.12446  20078257.147    20078254.407
    872951.05049    680221.28344  22091351.807    22091348.645
  -4948516.32449  -3855973.98744  23141827.966    23141822.346
 -16308282.46349 -12707722.82245  20956815.377    20956813.087
 -16808726.41649 -13097658.18645  21405527.516    21405524.446
 -18015301.19549 -14037859.08544  21655027.356    21655024.180
  -5961948.25148  -4645660.87244  24083003.243    24082996.298
 99 12  9  1 56  0.0000000  0  8G26G 8G 2G24G 4G 7G 9G 5
  -4022181.53548  -3134127.79444  24285086.698    24285081.939
 -25681365.37949 -20011406.11246  20078250.029    20078247.230
    965838.05649    752600.77744  22109027.633    22109024.381
  -5158266.59449  -4019415.45744  23101912.867    23101908.035
 -16427220.31449 -12800401.57845  20934182.307    20934179.917
 -16703796.90449 -13015894.90045  21425494.857    21425491.789
 -18119951.99949 -14119405.06244  21635112.893    21635109.779
  -6128986.59248  -4775820.27544  24051216.620    24051209.391
 99 12  9  1 57  0.0000000  0  8G26G 8G 2G24G 4G 7G 9G 5
  -3870855.43248  -3016211.39844  24313886.081    24313878.221
 -25678951.71549 -20009525.31046  20078709.305    20078706.624
   1059732.14249    825765.01044  22126894.950    22126891.819
  -5367277.90249  -4182281.10444  23062139.191    23062134.249
 -16544070.58249 -12891453.64745  20911946.310    20911943.968
 -16598160.30849 -12933580.63445  21445596.816    21445593.743
 -18222621.35949 -14199407.04944  21615575.223    21615572.537
  -6296087.74748  -4906028.59644  24019416.878    24019410.683
 99 12  9  1 58  0.0000000  0  8G26G 8G 2G24G 4G 7G 9G 5
  -3719186.44248  -2898027.80744  24342747.129    24342739.644
 -25674062.78749 -20005715.72946  20079639.612    20079636.975
   1154629.01149    899710.62744  22144953.145    22144950.061
  -5575688.93349  -4344679.02544  23022478.734    23022474.719
 -16658815.94249 -12980865.53645  20890110.919    20890108.690
 -16491799.12449 -12850701.75745  21465836.609    21465833.510
 -18323397.05349 -14277933.45644  21596398.378    21596395.382
  -6463263.15049  -5036294.78444  23987604.432    23987597.823
 99 12  9  1 59  0.0000000  0  8G26G 8G 2G24G 4G 7G 9G 5
  -3567118.45848  -2779533.32444  24371684.765    24371677.347
 -25666602.89049 -19999902.79246  20081059.204    20081056.461
   1250655.45449    974536.42444  22163226.480    22163223.374
  -5783443.30549  -4506565.26544  22982944.753    22982940.054
 -16771396.75349 -13068590.76545  20868687.400    20868685.128
 -16384653.38249 -12767211.53445  21486225.681    21486222.655
 -18422300.21849 -14355000.75644  21577577.622    21577574.435
  -6630368.45949  -5166506.32844  23955805.478    23955798.970
 99 12  9  2  0  0.0000000  0  8G26G 8G 2G24G 4G 7G 9G 5
  -3414990.25348  -2660991.90644  24400630.216    24400626.498
 -25656780.41049 -19992248.88246  20082928.353    20082925.517
   1347676.65049   1050137.35344  22181688.705    22181685.958
  -5990645.75149  -4668021.46744  22943515.570    22943510.502
 -16881991.28149 -13154768.23345  20847641.948    20847639.683
 -16276988.38849 -12683316.70145  21506713.644    21506710.614
 -18519455.72649 -14430706.25544  21559089.445    21559086.354
  -6797530.27149  -5296761.91444  23923994.420    23923988.897
 99 12  9  2  1  0.0000000  0  8G26G 8G 2G24G 4G 7G 9G 5
  -3262848.44548  -2542439.89644  24429584.917    24429577.868
 -25644513.75149 -19982690.41346  20085262.564    20085259.997
   1445736.76949   1126547.82544  22200349.002    22200345.951
  -6197097.10749  -4828892.42144  22904228.561    22904223.859
 -16990528.99149 -13239342.99145  20826987.626    20826985.539
 -16168762.65649 -12598984.92745  21527308.175    21527305.257
 -18614609.09849 -14504851.64744  21540982.176    21540979.412
  -6964769.33149  -5427077.70444  23892171.289    23892164.244
 99 12  9  2  2  0.0000000  0  8G26G 8G 2G24G 4G 7G 9G 5
  -3110547.27848  -2423763.74144  24458565.149    24458560.184
 -25629705.87349 -19971151.77646  20088080.335    20088077.724
   1544882.96749   1203804.59344  22219215.853    22219212.699
  -6402668.50449  -4989077.70744  22865109.384    22865104.763
 -17096968.33049 -13322282.65145  20806732.929    20806730.696
 -16059805.85649 -12514083.49345  21548042.016    21548039.033
 -18707584.95549 -14577300.27444  21523289.092    21523286.581
  -7132004.33049  -5557390.36144  23860346.167    23860340.257
 99 12  9  2  3  0.0000000  0  8G26G 8G 2G24G 4G 7G 9G 5
  -2958079.94648  -2304958.09144  24487579.324    24487574.003
 -25612461.77149 -19957714.78345  20091361.773    20091359.129
   1644984.66949   1281805.90444  22238264.812    22238261.481
  -6607507.57749  -5148692.37344  22826130.026    22826125.110
 -17201403.00749 -13403660.23845  20786859.663    20786857.528
 -15950159.02849 -12428644.37645  21568907.216    21568904.086
 -18798550.78649 -14648182.65344  21505979.151    21505976.256
  -7299196.06849  -5687669.35444  23828528.493    23828524.530
 99 12  9  2  4  0.0000000  0  8G26G 8G 2G24G 4G 7G 9G 5
  -2805428.58847  -2186009.05944  24516629.259    24516622.582
 -25592741.66249 -19942348.43545  20095114.274    20095111.710
   1746121.33849   1360613.68544  22257510.430    22257507.248
  -6811591.77149  -5307718.84044  22787294.033    22787289.031
 -17303669.80149 -13483348.56945  20767398.661    20767396.764
 -15839851.05949 -12342690.08645  21589897.982    21589894.820
 -18887578.94749 -14717555.17345  21489037.631    21489034.576
  -7466271.45849  -5817857.69944  23796735.022    23796730.959
 99 12  9  2  5  0.0000000  0  7G26G 8G24G 4G 7G 9G 5
  -2652720.81947  -2067016.08544  24545688.381    24545681.872
 -25570552.42649 -19925058.09345  20099336.740    20099334.172
  -7014933.48049  -5466166.75344  22748598.953    22748594.269
 -17403674.16149 -13561273.97345  20748368.399    20748366.506
 -15728993.35249 -12256307.42645  21610993.418    21610990.338
 -18974687.19349 -14785431.65745  21472461.426    21472458.528
  -7633345.72349  -5948045.17444  23764943.589    23764937.822
 99 12  9  2  6  0.0000000  0  7G26G 8G24G 4G 7G 9G 5
  -2500050.27747  -1948052.10144  24574740.220    24574734.151
 -25545909.88249 -19905856.09145  20104026.065    20104023.366
  -7217525.19349  -5624030.26144  22710046.702    22710042.013
 -17501431.95649 -13637448.80845  20729765.809    20729763.622
 -15617644.11149 -12169541.75245  21632182.345    21632179.452
 -19059823.86349 -14851771.84945  21456260.278    21456257.461
  -7800520.44949  -6078310.95044  23733129.882    23733125.182
 99 12  9  2  7  0.0000000  0  8G26G 8G16G24G 4G 7G 9G 5
  -2347300.88147  -1829026.74244  24603805.887    24603801.834
 -25518725.19949 -19884673.20245  20109199.235    20109196.573
        -0.23557         1.32554  25149743.377    25149740.271
  -7419230.80249  -5781203.30444  22671663.452    22671658.686
 -17596900.19449 -13711839.56945  20711598.489    20711596.587
 -15505675.37749 -12082293.35544  21653489.334    21653486.475
 -19142779.84249 -14916412.79845  21440474.303    21440471.296
  -7967607.32849  -6208508.29244  23701334.129    23701329.135
 99 12  9  2  8  0.0000000  0  7G26G 8G24G 4G 7G 9G 5
  -2194538.99047  -1709991.54644  24632875.541    24632871.105
 -25489045.71249 -19861546.31245  20114846.718    20114844.366
  -7620073.27049  -5937703.76944  22633444.062    22633439.640
 -17690240.09349 -13784571.88345  20693836.571    20693834.604
 -15393083.53549 -11994559.41944  21674915.047    21674911.957
 -19223669.75649 -14979443.82445  21425081.465    21425078.438
  -8134621.29449  -6338648.78244  23669552.268    23669547.270
 99 12  9  2  9  0.0000000  0  7G26G 8G24G 4G 7G 9G 5
  -2041865.82647  -1591025.54544  24661931.278    24661923.792
 -25456955.17349 -19836540.67945  20120953.482    20120951.014
  -7820082.22749  -6093554.75344  22595383.800    22595379.100
 -17781496.99649 -13855681.07745  20676470.919    20676468.902
 -15279910.76249 -11906372.81144  21696450.987    21696447.937
 -19302612.08949 -15040957.25445  21410059.145    21410056.166
  -8301680.86549  -6468824.81144  23637761.311    23637756.591
 99 12  9  2 10  0.0000000  0  7G26G 8G24G 4G 7G 9G 5
  -1889155.58947                                  24690983.894
 -25422352.43949 -19809577.49445  20127538.056    20127535.583
  -8019059.44849  -6248601.78944  22557519.570    22557514.889
 -17870391.06049 -13924949.09845  20659554.860    20659552.833
 -15166036.08049 -11817639.26544  21718120.349    21718117.670
 -19379434.73949 -15100818.97745  21395440.154    21395437.268
  -8468657.74649  -6598936.39844  23605986.446    23605981.711
 99 12  9  2 11  0.0000000  0  7G26G 8G24G 4G 7G 9G 5
  -1736499.28147                                  24720033.554
 -25385398.13249 -19780781.91745  20134570.348    20134567.718
  -8217089.36049  -6402910.67344  22519835.326    22519830.899
 -17957055.34149 -13992479.61545  20643062.969    20643061.097
 -15051640.57749 -11728499.88644  21739889.146    21739886.527
 -19454216.74749 -15159090.59045  21381209.615    21381206.735
  -8635621.70449  -6729037.91244  23574214.331    23574209.319
 99 12  9  2 12  0.0000000  0  8G26G 8G16G24G 4G 7G 9G 5
  -1583739.43447                                  24749102.807
 -25345928.94949 -19750026.69645  20142081.085    20142078.456
        -0.68157        -0.48154  25043827.064    25043824.716
  -8414067.89249  -6556400.30844  22482351.601    22482347.144
 -18041451.47649 -14058242.75245  20627002.908    20627001.021
 -14936606.39749 -11638862.84044  21761779.300    21761776.612
 -19526779.78049 -15215633.13545  21367401.191    21367398.380
  -8802437.27749  -6859023.78044  23542470.525    23542465.263
 99 12  9  2 13  0.0000000  0  8G26G 8G16G24G 4G 7G 9G 5
  -1430958.69947                                  24778175.883
 -25303854.47549 -19717241.37845  20150087.453    20150085.005
   -108036.85747                                  25023265.578
  -8610036.95449  -6709103.35144  22445059.239    22445055.432
 -18123573.40549 -14122233.78445  20611375.555    20611373.635
 -14820960.71349 -11548749.29544  21783785.956    21783783.433
 -19597086.94449 -15270417.86545  21354021.864    21354019.323
  -8969114.65849  -6988901.97344  23510752.245    23510747.453
 99 12  9  2 14  0.0000000  0  8G26G 8G16G24G 4G 7G 9G 5
  -1278396.55647   -996115.04544  24807211.412    24807208.069
 -25259370.33549 -19682578.39945  20158552.673    20158550.068
   -215168.15147                                  25002878.827
  -8805144.04249  -6861134.71144  22407931.800    22407927.636
 -18203444.17649 -14184470.67345  20596176.511    20596174.615
 -14704982.14949 -11458376.36644  21805855.831    21805853.404
 -19665320.37749 -15323586.70345  21341037.160    21341034.830
  -9135812.55449  -7118796.14944  23479029.999    23479025.441
 99 12  9  2 15  0.0000000  0  8G26G 8G16G24G 4G 7G 9G 5
  -1126167.79947                                  24836176.247
 -25212575.22249 -19646114.66345  20167457.264    20167454.827
   -321496.60549   -250516.41044  24982650.134    24982645.700
  -8999396.60149  -7012500.18944  22370966.935    22370962.515
 -18281072.74649 -14244960.39645  20581404.259    20581402.339
 -14588749.16549 -11367805.18644  21827974.240    21827971.636
 -19731595.95549 -15375229.94445  21328425.630    21328423.110
  -9302548.24149  -7248719.77244  23447301.036    23447296.673
 99 12  9  2 16  0.0000000  0  8G26G 8G16G24G 4G 7G 9G 5
   -974071.60847                                  24865118.968
 -25163222.99949 -19607658.37545  20176848.639    20176846.178
   -426688.91048                                  24962627.400
  -9192536.42649  -7162998.60144  22334212.733    22334209.044
 -18356324.99849 -14303598.45245  20567084.037    20567082.186
 -14471998.04949 -11276830.26944  21850191.040    21850188.662
 -19795723.08549 -15425199.07745  21316222.676    21316219.894
  -9469028.54249  -7378444.41444  23415620.713    23415616.083
 99 12  9  2 17  0.0000000  0  8G26G 8G16G24G 4G 7G 9G 5
   -822006.90347                                  24894056.162
 -25111286.78849 -19567188.59345  20186731.817    20186729.286
   -530576.35848                                  24942858.600
  -9384443.36849  -7312536.31344  22297694.323    22297690.262
 -18429143.99949 -14360340.46945  20553227.180    20553225.202
 -14354568.79049 -11185326.92444  21872537.261    21872534.527
 -19857566.45049 -15473388.65745  21304454.118    21304451.332
  -9635224.07949  -7507947.16644  23383994.421    23383990.280
 99 12  9  2 18  0.0000000  0  8G26G 8G16G24G 4G 7G 9G 5
   -670020.40747                                  24922978.297
 -25056916.35949 -19524822.01845  20197078.001    20197075.698
   -633215.05448   -493413.52744  24923329.440    24923327.018
  -9575117.44749  -7461113.35944  22261410.074    22261406.010
 -18499477.64049 -14415145.83845  20539843.040    20539841.169
 -14236514.44249 -11093336.49344  21895001.945    21894999.729
 -19917138.37049 -15519808.28545  21293117.942    21293115.159
  -9801293.22049  -7637351.42544  23352392.347    23352387.899
 99 12  9  2 19  0.0000000  0  8G26G 8G16G24G 4G 7G 9G 5
   -518270.03547                                  24951855.544
 -25000186.16649 -19480616.66045  20207873.525    20207871.138
   -734650.04748   -572453.68644  24904029.240    24904024.499
  -9764629.73849  -7608785.12544  22225346.679    22225342.827
 -18567415.44549 -14468084.32445  20526914.836    20526912.947
 -14117910.18149 -11000917.55244  21917572.012    21917569.196
 -19974540.97549 -15564537.54345  21282194.572    21282192.072
  -9967377.09749  -7766767.17044  23320787.063    23320783.276
 99 12  9  2 20  0.0000000  0  8G26G 8G16G24G 4G 7G 9G 5
   -366961.08147                                  24980648.661
 -24941121.86549 -19434592.52245  20219113.060    20219110.572
   -834905.62546   -650574.65744  24884950.909    24884945.021
  -9953115.63049  -7755657.10944  22189479.290    22189475.065
 -18633183.58449 -14519332.15945  20514399.547    20514397.665
 -13998840.45549 -10908135.92044  21940230.070    21940227.322
 -20029873.09649 -15607653.44145  21271665.093    21271662.629
 -10133486.05349  -7896202.44244  23289177.280    23289173.456
 99 12  9  2 21  0.0000000  0  8G26G 8G16G24G 4G 7G 9G 5
   -216056.43047                                  25009364.902
 -24879686.23149 -19386720.59345  20230804.032    20230801.383
   -933915.61848   -727725.12444  24866109.848    24866105.245
 -10140574.52949  -7901728.86744  22153806.358    22153802.755
 -18696773.84549 -14568882.94245  20502298.395    20502296.709
 -13879363.32349 -10815036.83544  21962965.688    21962962.862
 -20083054.30249 -15649093.30745  21261544.945    21261542.360
 -10299481.70249  -8025549.43844  23257589.085    23257585.549
 99 12  9  2 22  0.0000000  0  8G26G 8G16G24G 4G 7G 9G 5
    -65429.93046                                  25038028.219
 -24815895.41649 -19337013.45545  20242942.839    20242940.379
  -1031757.90349   -803965.69344  24847490.831    24847486.989
 -10326978.58849  -8046978.71344  22118335.110    22118331.303
 -18758012.04249 -14616600.95145  20490645.192    20490643.537
 -13759570.35049 -10721691.63444  21985761.918    21985758.821
 -20134059.60549 -15688837.66445  21251838.872    21251836.309
 -10465310.60849  -8154766.53544  23226032.465    23226029.255
 99 12  9  2 23  0.0000000  0  8G26G 8G16G24G 4G 7G 9G 5
     85006.75246                                  25066655.767
 -24749678.95249 -19285416.20045  20255543.425    20255541.064
  -1128400.85848   -879271.86044  24829099.589    24829095.711
 -10512198.59649  -8191305.91944  22083088.805    22083084.913
 -18816801.54649 -14662410.88845  20479457.942    20479456.207
 -13639438.84949 -10628082.64744  22008621.645    22008619.226
 -20182869.73949 -15726871.49645  21242550.605    21242548.211
 -10630934.15449  -8283823.61044  23194514.933    23194511.882
 99 12  9  2 24  0.0000000  0  8G26G 8G16G24G 4G 7G 9G 5
    235236.64846                                  25095243.399
 -24680935.33749 -19231849.74045  20268624.824    20268622.390
  -1223724.44647   -953549.73244  24810959.656    24810955.769
 -10696128.62849  -8334627.95744  22048088.099    22048083.998
 -18873223.88649 -14706376.28145  20468721.060    20468719.337
 -13518873.72449 -10534135.77344  22031564.311    22031561.885
 -20229391.83049 -15763122.43345  21233697.820    21233695.099
 -10796357.11449  -8412724.40444  23163036.266    23163032.759
 99 12  9  2 25  0.0000000  0  8G26G 8G16G24G 4G 7G 9G 5
    385064.40846                                  25123755.051
 -24609783.22949 -19176406.53245  20282164.566    20282162.277
  -1317774.58848  -1026835.45544  24793062.866    24793059.090
 -10878788.10749  -8476959.94044  22013329.167    22013325.077
 -18927403.60649 -14748594.18345  20458410.903    20458409.186
 -13397928.88249 -10439893.01744  22054579.219    22054576.795
 -20273621.96849 -15797587.43845  21225281.176    21225278.258
 -10961664.01949  -8541534.78444  23131579.222    23131575.878
 99 12  9  2 26  0.0000000  0  8G26G 8G16G24G 4G 7G 9G 5
    534492.17446                                  25152190.173
 -24536272.19249 -19119125.19945  20296153.339    20296150.966
  -1410508.81849  -1099095.75344  24775413.532    24775412.652
 -11060094.59449  -8618237.62644  21978827.463    21978823.573
 -18979143.69149 -14788911.06745  20448565.014    20448563.217
 -13276544.06749 -10345307.42744  22077678.580    22077675.572
 -20315595.27349 -15830293.87045  21217293.795    21217291.034
 -11126749.52449  -8670172.65844  23100164.230    23100160.910
 99 12  9  2 27  0.0000000  0  8G26G 8G16G24G 4G 7G 9G 5
    683675.09546                                  25180578.834
 -24460380.72449 -19059988.98245  20310594.946    20310592.586
  -1501765.98848                                  24758046.373
 -11239942.81949  -8758378.98644  21944603.353    21944599.448
 -19028196.60549 -14827134.05445  20439230.638    20439228.876
 -13154576.03049 -10250267.37344  22100888.021    22100885.388
 -20355341.05149 -15861264.56445  21209730.356    21209727.864
 -11291474.55449  -8798529.63044  23068818.257    23068814.797
 99 12  9  2 28  0.0000000  0  7G26G 8G24G 4G 7G 9G 5
    832435.39745                                  25208887.359
 -24382196.41349 -18999066.14245  20325472.951    20325470.579
 -11418455.46449  -8897479.61044  21910633.405    21910629.608
 -19074790.84349 -14863441.19145  20430363.878    20430362.117
 -13032152.50949 -10154872.40144  22124184.492    22124181.680
 -20392949.56949 -15890569.85745  21202573.533    21202571.153
 -11455996.63549  -8926728.46944  23037510.229    23037506.970
 99 12  9  2 29  0.0000000  0  7G 8G16G24G 4G 7G 9G 5
 -24301670.95549 -18936319.03245  20340796.458    20340794.119
        -1.00356                                  24724122.580
 -11595713.24049  -9035602.39644  21876902.212    21876898.520
 -19119146.87649 -14898004.27045  20421923.174    20421921.443
 -12909409.27149 -10059228.30144  22147541.782    22147538.879
 -20428388.05849 -15918184.22045  21195829.711    21195827.321
 -11620415.77949  -9054847.07744  23006222.079    23006218.628
 99 12  9  2 30  0.0000000  0  8G 2G 8G16G24G 4G 7G 9G 5
        -0.76359        -0.41054  22829026.142    22829022.983
 -24218796.14649 -18871741.25745  20356567.122    20356564.592
    -87201.93648    -67950.05544  24707532.977    24707530.673
 -11771825.85949  -9172832.86044  21843388.911    21843385.293
 -19161252.08049 -14930813.46245  20413910.650    20413908.978
 -12786351.48449  -9963339.08544  22170958.535    22170955.954
 -20461624.53749 -15944082.73145  21189505.143    21189502.565
 -11784701.96849  -9182862.07344  22974959.254    22974955.829
 99 12  9  2 31  0.0000000  0  8G 2G 8G16G24G 4G 7G 9G 5
    130130.97249    101400.93944  22853789.593    22853786.380
 -24133587.27949 -18805344.73945  20372781.645    20372779.264
   -172998.85649   -134804.65644  24691207.559    24691203.863
 -11946729.11149  -9309120.96944  21810105.854    21810102.290
 -19200875.91349 -14961689.11645  20406370.433    20406368.814
 -12662899.88249  -9867143.00744  22194450.714    22194448.193
 -20492512.67049 -15968151.35845  21183627.189    21183624.928
 -11948742.38549  -9310685.57144  22943743.029    22943739.711
 99 12  9  2 32  0.0000000  0  8G 2G 8G16G24G 4G 7G 9G 5
    261395.50049    203684.97444  22878767.972    22878765.079
 -24046044.95849 -18737129.94345  20389440.529    20389438.057
   -257291.02948   -200486.71144  24675166.052    24675162.982
 -12120255.69049  -9444336.35344  21777084.621    21777081.121
 -19237988.71949 -14990608.12645  20399308.093    20399306.545
 -12539053.37549  -9770639.21144  22218018.084    22218015.313
 -20521008.03049 -15990355.48645  21178204.634    21178202.339
 -12112519.92549  -9438304.22744  22912577.211    22912573.962
 99 12  9  2 33  0.0000000  0  8G 2G 8G16G24G 4G 7G 9G 5
    393715.39349    306791.34244  22903947.572    22903944.570
 -23956118.83649 -18667057.63845  20406552.893    20406550.511
   -340014.62149   -264946.56244  24659424.079    24659421.919
 -12292267.31549  -9578371.27144  21744351.779    21744348.417
 -19272698.58149 -15017654.71345  20392703.000    20392701.320
 -12414824.30149  -9673837.31144  22241657.915    22241655.129
 -20547152.24949 -16010727.55745  21173229.558    21173227.156
 -12276050.11349  -9565730.15044  22881458.100    22881454.970
 99 12  9  2 34  0.0000000  0  8G 2G 8G16G24G 4G 7G 9G 5
    526955.02249    410614.40144  22929302.326    22929299.109
 -23863938.60549 -18595228.88345  20424094.155    20424091.832
   -421320.35647   -328301.50544  24643951.014    24643948.473
 -12462869.23949  -9711307.71644  21711887.103    21711883.674
 -19305099.13949 -15042901.84645  20386537.249    20386535.628
 -12290322.24349  -9576822.69544  22265349.811    22265347.151
 -20571106.68049 -16029393.30145  21168670.958    21168668.480
 -12439406.02849  -9693020.29944  22850372.535    22850369.604
 99 12  9  2 35  0.0000000  0  8G 2G 8G16G24G 4G 7G 9G 5
    661236.35349    515249.19744  22954854.994    22954852.231
 -23769454.70849 -18521605.06445  20442073.866    20442071.534
   -501121.78547                                  24628761.983
 -12631993.12349  -9843092.44444  21679703.849    21679700.455
 -19334978.84849 -15066184.68345  20380851.353    20380849.763
 -12165461.50349  -9479528.58444  22289110.199    22289107.438
 -20592797.08549 -16046294.86845  21164543.394    21164541.058
 -12602414.86049  -9820040.02744  22819352.843    22819349.792
 99 12  9  2 36  0.0000000  0  8G 2G 8G16G24G 4G 7G 9G 5
    796495.96049    620646.27944  22980594.094    22980591.413
 -23672737.86649 -18446241.28545  20460478.412    20460476.023
   -579380.90148                                  24613870.937
 -12799651.84549  -9973735.48644  21647799.423    21647795.976
 -19362292.21549 -15087467.77145  20375653.780    20375652.063
 -12040308.51649  -9382006.74844  22312926.090    22312923.209
 -20612253.42449 -16061455.60645  21160841.038    21160838.773
 -12765080.10149  -9946792.02344  22788398.308    22788395.268
 99 12  9  2 37  0.0000000  0  8G 2G 8G16G24G 4G 7G 9G 5
    932794.11549    726852.60644  23006531.324    23006528.153
 -23573821.09149 -18369163.27145  20479301.579    20479299.265
   -656000.42548   -511168.71744  24599294.281    24599290.503
 -12965772.48449 -10103180.03044  21616187.454    21616184.137
 -19387119.60449 -15106813.73145  20370929.151    20370927.577
 -11914810.12549  -9284215.76444  22336807.343    22336804.576
 -20629422.19949 -16074833.83445  21157574.012    21157571.642
 -12927432.24349 -10073300.06844  22757503.722    22757500.501
 99 12  9  2 38  0.0000000  0  8G 2G 8G16G24G 4G 7G 9G 5
   1070204.12349    833925.31644  23032679.807    23032676.276
 -23472686.68649 -18290357.22945  20498546.948    20498544.532
   -730936.47049   -569560.35344  24585033.822    24585031.349
 -13130342.25949 -10231416.10344  21584870.697    21584867.331
 -19409585.42749 -15124319.51345  20366653.811    20366652.338
 -11788901.29049  -9186104.95244  22360767.143    22360764.356
 -20644183.96849 -16086336.47845  21154764.880    21154762.369
 -13089520.08349 -10199602.16344  22726659.093    22726656.089
 99 12  9  2 39  0.0000000  0  8G 2G 8G16G24G 4G 7G 9G 5
   1208821.50949    941938.83144  23059057.258    23059054.341
 -23369280.26649 -18209780.79345  20518224.678    20518222.050
   -804268.10049   -626701.83144  24571076.646    24571077.026
 -13293351.37949 -10358436.08844  21553851.155    21553847.795
 -19429676.90649 -15139975.15645  20362830.654    20362829.163
 -11662570.92749  -9087665.67544  22384806.887    22384804.241
 -20656551.47249 -16095973.46345  21152411.286    21152408.977
 -13251324.39149 -10325683.27544  22695868.751    22695865.744
 99 12  9  2 40  0.0000000  0  8G 2G 8G16G24G 4G 7G 9G 5
   1348719.25049   1050950.04644  23085678.827    23085676.111
 -23263550.27549 -18127393.78345  20538344.201    20538341.821
   -876039.38049   -682627.45444  24557420.394    24557419.482
 -13454787.78549 -10484230.58244  21523130.597    21523127.353
 -19447278.20149 -15153690.39745  20359481.096    20359479.639
 -11535854.33149  -8988925.43344  22408920.397    22408917.734
 -20666599.86149 -16103803.34845  21150499.102    21150496.795
 -13412769.39749 -10451484.47244  22665146.601    22665143.756
 99 12  9  2 41  0.0000000  0  8G 2G 8G16G24G 4G 7G 9G 5
   1489603.63949   1160730.08144  23112488.210    23112485.401
 -23155739.35049 -18043385.26545  20558859.994    20558857.633
   -946375.40848   -737434.63444  24544038.281    24544033.306
 -13614838.03449 -10608944.95644  21492673.964    21492670.756
 -19462517.90749 -15165565.43945  20356581.052    20356579.556
 -11409047.19249  -8890114.63844  22433050.277    22433048.061
 -20674522.33849 -16109976.68545  21148991.549    21148989.267
 -13574019.49349 -10577133.72844  22634461.783    22634458.626
 99 12  9  2 42  0.0000000  0  8G 2G 8G16G24G 4G 7G 9G 5
   1631435.57349   1271248.47044  23139478.258    23139475.326
 -23045781.41949 -17957703.75445  20579784.126    20579781.865
  -1015108.58747   -790992.75544  24530958.765    24530953.245
 -13773410.82949 -10732508.07344  21462498.591    21462495.326
 -19475293.87749 -15175520.68645  20354149.799    20354148.306
 -11282119.22349  -8791209.69844  22457204.319    22457201.703
 -20680197.72949 -16114399.04945  21147911.541    21147909.291
 -13734965.45549 -10702545.98244  22603834.597    22603831.418
 99 12  9  2 43  0.0000000  0  8G 2G 8G16G24G 4G 7G 9G 5
   1774323.86149   1382589.96744  23166668.012    23166666.187
 -22933598.24349 -17870288.28845  20601131.934    20601129.570
  -1082071.11248   -843171.20544  24518216.436    24518211.542
 -13930357.13649 -10854803.79744  21432632.601    21432629.396
 -19485507.16749 -15183479.04245  20352206.218    20352204.733
 -11154835.77149  -8692027.75944  22481425.425    22481423.012
 -20683501.07149 -16116973.06345  21147282.950    21147280.650
 -13895409.62449 -10827567.23944  22573302.809    22573300.003
 99 12  9  2 44  0.0000000  0  8G 2G 8G16G24G 4G 7G 9G 5
   1918293.03149   1494773.71944  23194065.374    23194062.326
 -22819236.24949 -17781175.04145  20622894.363    20622891.960
  -1147324.18747   -894017.62144  24505798.430    24505793.495
 -14085644.80649 -10975807.08444  21403082.373    21403079.220
 -19493228.46049 -15189495.58445  20350736.789    20350735.443
 -11027162.67749  -8592542.20344  22505720.784    22505718.526
 -20684483.71849 -16117738.74645  21147095.867    21147093.624
 -14055378.49149 -10952218.16044  22542861.499    22542858.722
 99 12  9  2 45  0.0000000  0  8G 2G 8G16G24G 4G 7G 9G 5
   2063368.80249   1607819.75244  23221672.963    23221669.563
 -22702721.98449 -17690384.70245  20645066.499    20645063.959
  -1210844.09247   -943513.51544  24493712.447    24493705.706
 -14239217.96949 -11095474.39044  21373858.117    21373854.963
 -19498486.29949 -15193592.55045  20349736.343    20349734.864
 -10899169.38749  -8492807.14944  22530077.175    22530074.884
 -20683178.68749 -16116721.82845  21147344.161    21147341.937
 -14214904.76049 -11076524.19544  22512504.762    22512501.676
 99 12  9  2 46  0.0000000  0  8G 2G 8G16G24G 4G 7G 9G 5
   2209493.67849   1721683.25844  23249479.037    23249476.029
 -22584080.44049 -17597936.74345  20667643.087    20667640.742
  -1272570.50549   -991611.86544  24481964.258    24481961.286
 -14391150.45849 -11213863.24044  21344946.305    21344943.119
 -19501309.33349 -15195792.26145  20349199.087    20349197.581
 -10770956.92649  -8392901.31144  22554475.512    22554472.791
 -20679616.43649 -16113946.03345  21148022.077    21148019.735
 -14374074.32049 -11200552.30044  22482215.400    22482212.892
 99 12  9  2 47  0.0000000  0  8G 2G 8G16G24G 4G 7G 9G 5
   2356656.22949   1836355.33644  23277482.463    23277480.055
 -22463350.29549 -17503861.30345  20690617.268    20690614.820
  -1332425.32449  -1038251.89444  24470574.363    24470571.197
 -14541511.55849 -11331027.63744  21316333.466    21316330.299
 -19501748.17749 -15196134.16245  20349115.446    20349114.044
 -10642485.36949  -8292793.58644  22578922.246    22578919.889
 -20673776.12949 -16109395.12945  21149133.384    21149131.050
 -14532896.97849 -11324310.11644  22451992.486    22451989.512
 99 12  9  2 48  0.0000000  0  8G 2G 8G16G24G 4G 7G 9G 5
   2504831.84949   1951816.84344  23305679.384    23305677.011
 -22340588.94749 -17408203.10845  20713977.975    20713975.433
  -1390512.42249  -1083514.45344  24459519.351    24459518.108
 -14690240.07349 -11446919.88544  21288031.245    21288028.126
 -19499867.11749 -15194668.34045  20349473.518    20349472.021
 -10513744.74449  -8192476.20344  22603420.849    22603418.326
 -20665618.01649 -16103038.14045  21150685.677    21150683.514
 -14691341.37649 -11447773.18044  22421840.988    22421838.742
 99 12  9  2 49  0.0000000  0  8G 2G 8G16G24G 4G 7G 9G 5
   2654038.57149   2068081.79744  23334072.877    23334070.163
 -22215812.57449 -17310974.76645  20737721.956    20737719.563
  -1447002.98649  -1127532.99144  24448767.116    24448767.072
 -14837276.14749 -11561493.34545  21260051.186    21260048.049
 -19495589.53249 -15191335.09345  20350287.369    20350285.906
 -10384862.61549  -8092048.54944  22627946.378    22627943.847
 -20655179.70249 -16094904.36945  21152672.123    21152669.897
 -14849357.86349 -11570902.81944  22391771.536    22391768.891
 99 12  9  2 50  0.0000000  0  8G 2G 8G16G24G 4G 7G 9G 5
   2804214.37649   2185101.87044  23362649.554    23362647.825
 -22089030.68349 -17212183.67545  20761847.629    20761845.450
  -1501949.04548  -1170348.03244  24438312.493    24438311.086
 -14982664.48649 -11674782.86245  21232384.635    21232381.503
 -19488861.77649 -15186092.62545  20351567.466    20351566.091
 -10255945.48949  -7991593.60444  22652477.980    22652476.068
 -20642534.10449 -16085050.63345  21155078.576    21155076.309
 -15007043.58049 -11693774.70344  22361764.992    22361762.373
 99 12  9  2 51  0.0000000  0  8G 2G 8G16G24G 4G 7G 9G 5
   2955352.86749   2302872.08344  23391411.602    23391408.568
 -21960215.35949 -17111808.09845  20786360.627    20786358.131
  -1555169.82849  -1211818.63744  24428183.918    24428183.480
 -15126384.01449 -11786772.00145  21205035.465    21205032.323
 -19479744.77349 -15178988.41145  20353302.294    20353300.902
 -10126812.58849  -7890970.52744  22677051.801    22677049.185
 -20627664.82249 -16073464.15445  21157907.900    21157905.789
 -15164353.61049 -11816353.84344  22331829.963    22331826.805
 99 12  9  2 52  0.0000000  0  8G 2G 8G16G24G 4G 7G 9G 5
   3107451.87949   2421390.74944  23420354.914    23420351.961
 -21829429.51649 -17009897.04945  20811248.369    20811246.018
  -1606462.34149  -1251786.70244  24418420.367    24418423.699
 -15268406.43449 -11897438.71645  21178009.385    21178006.315
 -19468334.77549 -15170097.44945  20355473.679    20355472.129
  -9997312.57449  -7790061.40344  22701694.361    22701692.216
 -20610516.44349 -16060101.75245  21161171.148    21161168.941
 -15321144.51849 -11938528.46044  22301993.509    22301990.570
 99 12  9  2 53  0.0000000  0  8G 2G 8G16G24G 4G 7G 9G 5
   3260551.40049   2540689.05244  23449489.071    23449485.906
 -21696679.75449 -16906455.67545  20836509.647    20836507.356
  -1655783.38849  -1290218.62044  24409036.504    24409037.434
 -15408659.69549 -12006726.87145  21151320.014    21151317.000
 -19454495.88649 -15159313.84745  20358106.925    20358105.533
  -9867432.34949  -7688855.99144  22726409.673    22726407.672
 -20591009.79349 -16044901.73745  21164883.280    21164881.006
 -15477311.09649 -12060216.58844  22272276.184    22272273.245
 99 12  9  2 54  0.0000000  0  8G 2G 8G16G24G 4G 7G 9G 5
   3414692.51049   2660799.01344  23478821.360    23478818.041
 -21561956.83249 -16801476.77645  20862146.608    20862144.213
  -1703228.95549  -1327189.09044  24400008.878    24400008.440
 -15547131.26749 -12114626.69945  21124969.714    21124966.609
 -19438162.35249 -15146586.37045  20361214.924    20361213.520
  -9737290.23349  -7587446.51544  22751175.114    22751172.775
 -20569188.91049 -16027898.42145  21169035.615    21169033.152
 -15633009.65649 -12181540.02144  22242647.525    22242644.692
 99 12  9  2 55  0.0000000  0  8G 2G 8G16G24G 4G 7G 9G 5
   3569913.96449   2781750.80544  23508358.860    23508355.674
 -21425263.29449 -16694962.32945  20888158.477    20888156.118
  -1748823.21249  -1362716.94444  24391335.293    24391331.782
 -15683825.34349 -12221141.47045  21098957.591    21098954.503
 -19419434.77949 -15131993.40845  20364778.789    20364777.426
  -9606952.95849  -7485884.97344  22775977.403    22775975.000
 -20545064.53349 -16009100.17845  21173626.247    21173623.893
 -15788387.42149 -12302613.49844  22213079.973    22213077.331
 99 12  9  2 56  0.0000000  0  8G 2G 8G16G24G 4G 7G 9G 5
   3726186.30249   2903521.43244  23538097.009    23538093.147
 -21286616.93049 -16586926.20045  20914541.966    20914539.523
  -1792516.26849  -1396763.34044  24383022.744    24383017.320
 -15818685.82749 -12326227.48045  21073294.460    21073291.384
 -19398335.15949 -15115552.09845  20368793.807    20368792.458
  -9476435.61049  -7384183.11244  22800813.580    22800811.405
 -20518686.22249 -15988545.62045  21178645.844    21178643.508
 -15943281.04749 -12423309.72644  22183604.802    22183601.868
 99 12  9  2 57  0.0000000  0  8G 2G 8G16G24G 4G 7G 9G 5
   3883470.28049   3026080.32844  23568026.919    23568023.247
 -21146007.27149 -16477360.22745  20941299.077    20941296.811
  -1834290.43749  -1429314.49944  24375071.067    24375068.099
 -15951664.01949 -12429846.77245  21047989.410    21047986.381
 -19374762.08349 -15097183.42145  20373279.476    20373278.232
  -9345784.21449  -7282376.80144  22825675.879    22825673.831
 -20490033.78049 -15966219.01245  21184097.889    21184095.798
 -16097504.53149 -12543483.77544  22154256.380    22154253.877
 99 12  9  2 58  0.0000000  0  8G 2G 8G16G24G 4G 7G 9G 5
   4041800.82049   3149454.76844  23598154.893    23598152.919
 -21003416.64549 -16366250.63945  20968433.147    20968430.835
  -1874156.72649  -1460379.10544  24367484.035    24367482.002
 -16082747.98449 -12531990.03845  21023044.904    21023041.828
 -19348632.83449 -15076822.92445  20378251.675    20378250.431
  -9214913.55349  -7180399.63144  22850579.965    22850577.678
 -20459061.77849 -15942084.95845  21189991.836    21189989.661
 -16251014.60049 -12663101.92044  22125044.541    22125041.868
 99 12  9  2 59  0.0000000  0  8G 2G 8G16G24G 4G 7G 9G 5
   4201197.96549   3273660.34144  23628488.156    23628485.019
 -20858927.23349 -16253661.47745  20995928.533    20995926.292
  -1912165.90649  -1489996.60044  24360248.433    24360249.312
 -16212009.40349 -12632713.13645  20998447.257    20998444.220
 -19320057.92349 -15054556.71945  20383689.256    20383688.004
  -9083735.76449  -7078183.14044  22875542.040    22875539.805
 -20425826.67849 -15916187.45345  21196316.338    21196314.181
 -16403926.41849 -12782253.91444  22095946.231    22095943.735
 99 12  9  3  0  0.0000000  0  8G 2G 8G16G24G 4G 7G 9G 5
   4361635.68548   3398676.76144  23659019.059    23659015.241
 -20712647.68849 -16139677.40545  21023764.690    21023762.389
  -1948317.37749  -1518166.53344  24353368.434    24353370.249
 -16339393.70949 -12731973.55045  20974206.728    20974203.699
 -19289223.13949 -15030529.57245  20389557.028    20389555.783
  -8952360.87249  -6975813.07844  22900541.984    22900539.370
 -20390387.01449 -15888572.10645  21203060.268    21203057.994
 -16556314.38149 -12900997.70844  22066947.771    22066945.151
 99 12  9  3  1  0.0000000  0  8G 2G 8G16G24G 4G 7G 9G 5
   4523082.35747   3524479.28844  23689741.886    23689737.173
 -20564608.80449 -16024322.42045  21051935.640    21051933.186
  -1982500.66349  -1544802.77044  24346865.226    24346864.621
 -16464873.22549 -12829749.71445  20950328.767    20950325.747
 -19256157.04649 -15004763.73945  20395849.206    20395847.990
  -8820884.32049  -6873363.79244  22925561.045    22925558.739
 -20352708.92749 -15859212.53845  21210230.060    21210227.806
 -16708162.86049 -13019321.13044  22038051.813    22038049.363
 99 12  9  3  2  0.0000000  0  8G 2G 8G16G24G 4G 7G 9G 5
   4685468.33847   3651013.76244  23720642.397    23720638.155
 -20414674.38849 -15907490.40045  21080467.095    21080464.629
  -2014605.04949  -1569819.11144  24340757.523    24340755.664
 -16588522.31549 -12926099.57845  20926798.953    20926795.991
 -19220792.01749 -14977206.52845  20402578.835    20402577.584
  -8689227.52649  -6770774.04544  22950614.563    22950612.118
 -20312782.35049 -15828100.90045  21217827.775    21217825.600
 -16859391.55949 -13137161.60344  22009273.795    22009271.298
 99 12  9  3  3  0.0000000  0  8G 2G 8G16G24G 4G 7G 9G 5
   4848741.84148   3778239.82244  23751710.910    23751708.218
 -20262830.27849 -15789170.30545  21109362.019    21109359.775
  -2044706.74849  -1593274.85144  24335028.324    24335027.396
 -16710411.98749 -13021078.47345  20903603.956    20903601.074
 -19183136.18349 -14947864.27645  20409744.436    20409743.237
  -8557414.69149  -6668062.71744  22975697.127    22975695.197
 -20270632.58449 -15795256.91145  21225848.579    21225846.365
 -17010020.29549 -13254534.57044  21980610.100    21980607.527
 99 12  9  3  4  0.0000000  0  8G 2G 8G16G24G 4G 7G 9G 5
   5012956.87548   3906199.55244  23782961.780    23782957.606
 -20109235.76249 -15669486.25845  21138590.201    21138587.812
  -2072922.29549  -1615260.89644  24329660.048    24329657.688
 -16830477.90749 -13114636.25745  20880756.150    20880753.202
 -19143160.80049 -14916714.58745  20417351.455    20417350.319
  -8425447.61749  -6565231.18144  23000810.309    23000808.008
 -20226311.83649 -15760721.24945  21234282.622    21234280.509
 -17160085.07549 -13371468.09044  21952053.742    21952051.177
 99 12  9  3  5  0.0000000  0  8G 2G 8G16G24G 4G 7G 9G 5
   5178122.11048   4034899.71844  23814390.791    23814387.576
 -19954021.03149 -15548539.70745  21168126.279    21168124.037
  -2099258.12549  -1635782.27244  24324648.704    24324646.018
 -16948606.95049 -13206684.78745  20858276.785    20858274.015
 -19100790.48349 -14883698.71645  20425414.234    20425413.080
  -8293321.11449  -6462275.42644  23025952.469    23025950.682
 -20179781.85949 -15724464.11445  21243136.974    21243134.761
 -17309618.71549 -13487987.72344  21923598.090    21923595.925
 99 12  9  3  6  0.0000000  0  8G 2G 8G16G24G 4G 7G 9G 5
   5344211.53949   4164320.02844  23845996.498    23845993.313
 -19797171.58649 -15426319.35345  21197973.794    21197971.528
  -2123653.97649  -1654792.01144  24320004.857    24320003.223
 -17064723.23049 -13297164.93345  20836180.625    20836177.745
 -19055991.08749 -14848790.05445  20433939.347    20433937.968
  -8161047.06149  -6359204.69544  23051124.028    23051121.394
 -20131018.55349 -15686466.72545  21252416.238    21252413.981
 -17458563.11449 -13604048.21044  21895255.148    21895252.737
 99 12  9  3  7  0.0000000  0  8G 2G 8G16G24G 4G 7G 9G 5
   5511164.58249   4294413.32744  23877768.047    23877763.387
 -19638653.64649 -15302798.87444  21228138.779    21228136.335
  -2146102.63449  -1672284.39344  24315732.856    24315731.826
 -17178868.24149 -13386109.01845  20814459.448    20814456.505
 -19008919.01749 -14812110.47345  20442896.837    20442895.446
  -8028693.23849  -6256071.80644  23076309.894    23076307.745
 -20080151.81249 -15646830.29745  21262095.946    21262093.784
 -17606856.55349 -13719601.45744  21867035.635    21867033.397
 99 12  9  3  8  0.0000000  0  8G 2G 8G16G24G 4G 7G 9G 5
   5679113.36449   4425282.50744  23909726.287    23909722.887
 -19478398.73249 -15177924.91444  21258634.353    21258631.906
  -2166459.94248  -1688147.14844  24311860.092    24311857.275
 -17291091.40249 -13473555.56345  20793104.027    20793101.174
 -18959616.88849 -14773693.18845  20452278.621    20452277.473
  -7896206.48949  -6152835.33144  23101520.259    23101518.665
 -20027123.40549 -15605509.44845  21272186.838    21272184.822
 -17754400.23349 -13834570.47644  21838958.678    21838956.749
 99 12  9  3  9  0.0000000  0  8G 2G 8G16G24G 4G 7G 9G 5
   5848169.15949   4557014.29244  23941895.844    23941893.090
 -19316369.64549 -15051668.47344  21289467.548    21289465.088
  -2184615.59648  -1702294.37444  24308405.719    24308402.257
 -17401414.87149 -13559521.83245  20772110.125    20772107.274
 -18908027.71249 -14733493.79145  20462095.583    20462094.473
  -7763468.72449  -6049403.29044  23126780.054    23126778.031
 -19971822.91649 -15562418.15145  21282710.178    21282707.943
 -17901140.10749 -13948913.15344  21811035.378    21811033.042
 99 12  9  3 10  0.0000000  0  7G 8G16G24G 4G 7G 9G 5
 -19152684.03049 -14924121.23444  21320615.873    21320613.476
  -2200640.89149  -1714781.56044  24305355.977    24305353.381
 -17509833.66649 -13644003.94545  20751478.622    20751475.844
 -18854224.58649 -14691569.23345  20472334.066    20472332.694
  -7630517.25449  -5945804.70644  23152080.000    23152077.878
 -19914288.33549 -15517586.00745  21293658.789    21293656.445
 -18047137.88249 -14062677.57044  21783252.521    21783250.260
 99 12  9  3 11  0.0000000  0  8G30G 8G16G24G 4G 7G 9G 5
        -1.12656                                  25197019.521
 -18987220.62449 -14795188.70744  21352102.679    21352100.121
  -2214465.83748  -1725554.16344  24302724.669    24302721.991
 -17616080.82449 -13726793.87445  20731260.464    20731257.551
 -18798059.72849 -14647804.35845  20483021.928    20483020.547
  -7497180.97549  -5841906.27844  23177453.106    23177450.846
 -19854455.28749 -15470962.84745  21305044.533    21305042.388
 -18192263.20649 -14175762.16044  21755636.354    21755633.600
 99 12  9  3 12  0.0000000  0  8G30G 8G16G24G 4G 7G 9G 5
   -197270.53746                                  25159480.069
 -18820131.16049 -14664989.12344  21383898.551    21383896.198
  -2226297.76548  -1734773.79144  24300470.129    24300469.764
 -17720243.05049 -13807959.18045  20711438.876    20711435.992
 -18739644.61449 -14602286.03945  20494137.769    20494136.604
  -7363635.25549  -5737844.64344  23202866.016    23202863.823
 -19792536.70149 -15422714.58945  21316827.163    21316825.063
 -18336641.25549 -14288264.46244  21728161.854    21728159.103
 99 12  9  3 13  0.0000000  0  8G30G 8G16G24G 4G 7G 9G 5
   -394920.00047   -307728.47844  25121872.702    25121868.363
 -18651655.80549 -14533709.62144  21415958.241    21415956.012
  -2236310.38847  -1742575.79644  24298568.267    24298563.897
 -17822529.40349 -13887662.76345  20691974.406    20691971.578
 -18679114.42449 -14555119.61645  20505656.011    20505655.008
  -7230172.43549  -5633847.62744  23228262.605    23228260.337
 -19728700.37549 -15372971.99045  21328974.852    21328972.658
 -18480465.88549 -14400335.53044  21700792.780    21700790.469
 99 12  9  3 14  0.0000000  0  8G30G 8G16G24G 4G 7G 9G 5
   -592798.40146                                  25084212.878
 -18481703.21849 -14401279.03244  21448299.187    21448296.740
  -2244300.02048  -1748801.46144  24297047.504    24297044.072
 -17922867.14649 -13965847.95345  20672880.759    20672878.040
 -18616308.95649 -14506180.25245  20517607.469    20517606.464
  -7096751.22349  -5529883.02344  23253652.167    23253650.006
 -19662728.74649 -15321565.51845  21341528.731    21341526.634
 -18623602.91549 -14511870.80944  21673554.666    21673552.494
 99 12  9  3 15  0.0000000  0  8G30G 8G16G24G 4G 7G 9G 5
   -790806.20446                                  25046532.719
 -18310163.16049 -14267611.46044  21480942.404    21480939.841
  -2250101.23649  -1753321.84844  24295943.481    24295941.081
 -18021203.91549 -14042473.94745  20654167.825    20654165.069
 -18551185.56949 -14455434.71445  20530000.085    20529998.946
  -6963189.21649  -5425808.69844  23279067.809    23279066.553
 -19594496.38549 -15268397.43545  21354512.908    21354510.912
 -18765894.95649 -14622747.66344  21646477.427    21646475.092
 99 12  9  3 16  0.0000000  0  8G30G 8G16G24G 4G 7G 9G 5
   -988993.27447                                  25008818.589
 -18137121.92549 -14132774.13644  21513870.806    21513868.539
  -2253821.38049  -1756220.56044  24295235.629    24295232.880
 -18117550.41549 -14117549.08145  20635833.595    20635830.818
 -18483858.80149 -14402972.25745  20542812.015    20542810.850
  -6829414.43949  -5321568.58344  23304524.856    23304522.215
 -19524132.54349 -15213568.45145  21367902.754    21367900.634
 -18907337.72849 -14732962.75544  21619561.576    21619559.397
 99 12  9  3 17  0.0000000  0  8G30G 8G16G24G 4G 7G 9G 5
  -1187348.06147                                  24971073.015
 -17962579.50449 -13996767.05844  21547085.208    21547082.778
  -2255513.55149  -1757539.10444  24294913.039    24294910.682
 -18211789.11849 -14190981.77345  20617900.331    20617897.833
 -18414392.75749 -14348842.83645  20556030.916    20556029.810
  -6695421.33749  -5217158.35244  23330023.383    23330020.603
 -19451738.35949 -15157157.38345  21381678.844    21381676.764
 -19047922.96649 -14842509.64544  21592809.046    21592806.773
 99 12  9  3 18  0.0000000  0  8G30G 8G16G24G 4G 7G 9G 5
  -1385886.31447                                  24933292.153
 -17786588.26949 -13859631.04444  21580575.259    21580572.910
  -2255153.08848  -1757258.20244  24294981.891    24294978.874
 -18303917.69349 -14262770.20945  20600368.872    20600366.349
 -18342854.20749 -14293098.48345  20569643.985    20569642.983
  -6561345.46249  -5112683.62644  23355536.046    23355534.062
 -19377341.85749 -15099186.06645  21395836.119    21395834.019
 -19187683.36749 -14951413.80345  21566213.590    21566211.380
 99 12  9  3 19  0.0000000  0  8G30G 8G16G24G 4G 7G 9G 5
  -1584597.59647                                  24895478.171
 -17609214.62249 -13721417.82444  21614328.374    21614326.082
  -2252652.76249  -1755309.85944  24295454.624    24295454.966
 -18393961.29049 -14332933.98445  20583234.065    20583231.499
 -18269237.01049 -14235734.41245  20583652.810    20583651.891
  -6427214.82849  -5008166.24044  23381061.063    23381058.480
 -19300848.89049 -15039581.13945  21410392.246    21410390.027
 -19326597.66249 -15059658.66345  21539778.934    21539776.790
 99 12  9  3 20  0.0000000  0  8G30G 8G16G24G 4G 7G 9G 5
  -1783444.90747  -1389693.70444  24857640.611    24857638.789
 -17430534.90349 -13582186.88444  21648329.971    21648327.637
  -2247958.46248  -1751651.85144  24296350.301    24296348.127
 -18481970.84349 -14401512.79345  20566486.348    20566483.809
 -18193536.78049 -14176747.19745  20598058.408    20598057.181
  -6292935.79749  -4903533.20144  23406613.271    23406610.929
 -19222274.72449 -14978354.49845  21425344.431    21425342.192
 -19464668.61649 -15167246.37645  21513505.099    21513502.827
 99 12  9  3 21  0.0000000  0  8G30G 8G16G24G 4G 7G 9G 5
  -1982414.41847                                  24819776.081
 -17250559.89249 -13441946.63044  21682577.951    21682575.694
  -2241084.39648  -1746295.41944  24297659.743    24297656.026
 -18567953.95149 -14468512.55345  20550124.260    20550121.625
 -18115721.95449 -14116112.24045  20612866.052    20612864.784
  -6158517.27649  -4798791.48844  23432192.020    23432190.167
 -19141702.41949 -14915570.86445  21440676.616    21440674.556
 -19601896.13949 -15274176.87145  21487391.455    21487389.165
 99 12  9  3 22  0.0000000  0  8G30G 8G16G24G 4G 7G 9G 5
  -2181593.00547  -1699938.58844  24781876.669    24781873.544
 -17069238.39049 -13300657.15644  21717082.413    21717080.056
  -2232122.37748  -1739312.03044  24299363.866    24299361.001
 -18651968.30249 -14533978.22045  20534136.891    20534134.159
 -18035811.04149 -14053843.96445  20628072.592    20628071.340
  -6024053.72349  -4694014.67244  23457778.671    23457777.400
 -19059205.38449 -14851287.43945  21456375.355    21456373.331
 -19738321.17449 -15380482.05245  21461430.473    21461428.255
 99 12  9  3 23  0.0000000  0  8G30G 8G16G24G 4G 7G 9G 5
  -2380892.42747  -1855236.65144  24743949.294    24743948.164
 -16886430.52549 -13158209.48244  21751869.558    21751867.224
  -2221091.12548  -1730716.22944  24301463.405    24301460.219
 -18733897.74649 -14597819.28245  20518546.240    20518543.496
 -17953719.64549 -13989876.60445  20643693.823    20643692.656
  -5889511.46449  -4589176.53244  23483382.300    23483380.242
 -18974647.50949 -14785398.16845  21472466.221    21472464.043
 -19873860.89749 -15486097.38145  21435638.072    21435635.886
 99 12  9  3 24  0.0000000  0  8G30G 8G16G24G 4G 7G 9G 5
  -2580261.40947  -2010588.88944  24706012.770    24706008.884
 -16702260.65249 -13014700.50544  21786915.830    21786913.407
  -2208030.54549  -1720539.13244  24303949.083    24303946.443
 -18813714.48049 -14660014.08245  20503357.461    20503354.894
 -17869487.88249 -13924241.42745  20659722.389    20659721.543
  -5754891.49749  -4484277.85444  23508998.847    23508997.332
 -18888024.16349 -14717899.44145  21488949.966    21488947.815
 -20008466.63949 -15590984.92645  21410023.364    21410021.368
 99 12  9  3 25  0.0000000  0  8G30G 8G16G24G 4G 7G 9G 5
  -2779652.24147  -2165958.16444  24668066.747    24668066.035
 -16516846.52349 -12870221.97644  21822198.927    21822196.711
  -2192867.60949  -1708723.81644  24306833.028    24306832.098
 -18891487.78449 -14720616.60245  20488557.597    20488555.003
 -17783246.00249 -13857039.92345  20676133.728    20676132.579
  -5620139.23449  -4379276.07044  23534641.495    23534639.752
 -18799359.53549 -14648810.10745  21505822.255    21505820.113
 -20142055.09149 -15695079.77845  21384602.294    21384600.116
 99 12  9  3 26  0.0000000  0  8G30G 8G16G24G 4G 7G 9G 5
  -2979057.34348  -2321338.59944  24630123.765    24630120.476
 -16330206.23749 -12724787.99844  21857715.466    21857713.252
  -2175480.91048  -1695175.70444  24310141.756    24310139.328
 -18967188.75549 -14779604.31645  20474152.097    20474149.634
 -17694992.43749 -13788270.87145  20692928.024    20692926.778
  -5485193.40549  -4274123.47544  23560321.393    23560319.171
 -18708709.06349 -14578173.36345  21523072.358    21523070.329
 -20274607.86749 -15798367.61045  21359378.179    21359376.127
 99 12  9  3 27  0.0000000  0  8G30G 8G16G24G 4G 7G 9G 5
  -3178448.63147  -2476708.26744  24592181.233    24592177.064
 -16142299.42649 -12578367.11244  21893472.834    21893470.697
  -2155830.77049  -1679863.86344  24313882.288    24313878.966
 -19040700.78449 -14836886.36145  20460163.200    20460160.728
 -17604623.43849 -13717853.43345  20710124.599    20710123.373
  -5350046.07849  -4168813.86144  23586039.035    23586036.618
 -18616147.74949 -14506047.65045  21540686.258    21540684.210
 -20406179.54249 -15900890.94445  21334340.953    21334338.829
 99 12  9  3 28  0.0000000  0  8G30G 8G16G24G 4G 7G 9G 5
  -3377863.77148  -2632096.47644  24554232.214    24554229.918
 -15953185.39549 -12431005.53644  21929460.508    21929457.924
  -2134012.07749  -1662862.28544  24318033.766    24318031.218
 -19112009.85949 -14892451.81645  20446593.431    20446590.964
 -17512164.45049 -13645807.43945  20727718.858    20727717.804
  -5214765.64549  -4063400.55144  23611782.602    23611779.793
 -18521681.43349 -14432437.52045  21558662.630    21558660.574
 -20536814.46649 -16002684.34245  21309481.767    21309479.774
 99 12  9  3 29  0.0000000  0  8G30G 8G16G24G 4G 7G 9G 5
  -3577315.21648  -2787512.99244  24516277.299    24516275.129
 -15762900.81949 -12282731.85044  21965670.226    21965667.843
  -2110090.17049  -1644221.81844  24322586.310    24322583.546
 -19181218.29149 -14946380.41545  20433423.491    20433421.101
 -17417768.77949 -13572252.34645  20745681.704    20745680.633
  -5079445.71449  -3957956.43444  23637532.840    23637530.586
 -18425332.60649 -14357360.50945  21576997.038    21576995.010
 -20666491.37449 -16103731.23445  21284805.069    21284803.158
 99 12  9  3 30  0.0000000  0  8G30G 8G16G24G 4G 7G 9G 5
  -3776829.43848  -2942978.43844  24478312.146    24478308.662
 -15571371.63049 -12133488.33044  22002117.135    22002114.681
  -2083996.82249  -1623889.30744  24327550.361    24327549.410
 -19248376.88149 -14998711.73245  20420643.537    20420641.049
 -17321507.91349 -13497243.85845  20763999.456    20763998.424
  -4944052.52449  -3852455.25544  23663296.390    23663294.587
 -18327105.15149 -14280819.62945  21595689.198    21595687.270
 -20795125.69549 -16203965.72245  21260326.902    21260324.939
 99 12  9  3 31  0.0000000  0  8G30G 8G16G24G 4G 7G 9G 5
  -3976418.69348  -3098502.31944  24440331.493    24440327.925
 -15378675.15449 -11983335.22944  22038786.013    22038783.557
  -2055738.10148  -1601869.48344  24332928.182    24332925.539
 -19313501.82249 -15049458.38345  20408250.639    20408248.169
 -17223374.27849 -13420776.06945  20782673.935    20782672.666
  -4808560.85449  -3746877.34444  23689080.025    23689078.231
 -18227019.33449 -14202830.67645  21614734.861    21614732.928
 -20922698.02549 -16303372.69045  21236050.601    21236048.555
 99 12  9  3 32  0.0000000  0  7G30G 8G24G 4G 7G 9G 5
  -4176037.84648  -3254049.53744  24402344.600    24402341.510
 -15184886.61149 -11832331.16844  22075662.568    22075660.134
 -19376518.38949 -15098562.14445  20396258.941    20396256.461
 -17123313.59049 -13342806.67745  20801714.730    20801713.485
  -4672988.44249  -3641236.51444  23714879.250    23714876.749
 -18125064.47449 -14123385.32545  21634136.227    21634134.389
 -21049213.33049 -16401956.00545  21211975.429    21211973.381
 99 12  9  3 33  0.0000000  0  7G30G 8G24G 4G 7G 9G 5
  -4375690.42748  -3409622.83744  24364351.624    24364348.742
 -14990098.50749 -11680548.23644  22112729.862    22112727.112
 -19437436.32349 -15146030.61045  20384666.558    20384664.050
 -17021331.65249 -13263340.20745  20821121.195    20821119.992
  -4537407.46549  -3535588.99844  23740678.137    23740677.204
 -18021248.66049 -14042489.88744  21653891.613    21653889.570
 -21174763.68649 -16499787.41745  21188083.983    21188082.068
 99 12  9  3 34  0.0000000  0  7G30G 8G24G 4G 7G 9G 5
  -4575215.94748  -3565097.14244  24326381.903    24326380.285
 -14794170.28649 -11527876.89744  22150013.434    22150010.997
 -19496074.22549 -15191722.43045  20373508.114    20373505.735
 -16917301.58349 -13182277.79645  20840917.230    20840916.213
  -4401612.74849  -3429774.93444  23766520.576    23766517.684
 -17915432.60649 -13960035.82744  21674027.850    21674025.913
 -21299140.45949 -16596704.35245  21164415.952    21164413.971
 99 12  9  3 35  0.0000000  0  7G30G 8G24G 4G 7G 9G 5
  -4774746.28749  -3720575.22644  24288413.824    24288411.212
 -14597312.11249 -11374480.92044  22187474.319    22187472.131
 -19552608.55149 -15235775.10345  20362749.881    20362747.495
 -16811429.17849 -13099779.79945  20861064.099    20861063.036
  -4265693.66549  -3323863.97444  23792384.490    23792382.441
 -17807816.44049 -13876179.08044  21694506.589    21694504.476
 -21422387.11149 -16692740.67545  21140962.624    21140960.943
 99 12  9  3 36  0.0000000  0  7G30G 8G24G 4G 7G 9G 5
  -4974281.83948  -3876057.31844  24250442.178    24250440.420
 -14399503.98349 -11220344.71744  22225115.834    22225113.510
 -19607066.70349 -15278209.97745  20352386.709    20352384.363
 -16703736.23449 -13015863.20045  20881557.438    20881556.353
  -4129678.87549  -3217878.45244  23818267.799    23818264.348
 -17698467.92949 -13790972.45744  21715314.891    21715312.936
 -21544518.30249 -16787907.81145  21117721.926    21117720.190
 99 12  9  3 37  0.0000000  0  6G30G 8G24G 7G 9G 5
  -5173748.24249  -4031485.54644  24212484.785    24212483.633
 -14200637.55149 -11065383.86944  22262959.065    22262956.722
 -19659476.82549 -15319048.98845  20342413.444    20342411.111
  -3993592.13449  -3111836.84444  23844163.646    23844161.482
 -17587363.58849 -13704397.65644  21736457.489    21736455.371
 -21665545.35349 -16882214.57845  21094691.180    21094689.395
 99 12  9  3 38  0.0000000  0  7G30G 8G24G 6G 7G 9G 5
  -5373071.48648  -4186802.22044  24174556.370    24174553.195
 -14000630.64549 -10909534.34044  22301018.979    22301016.654
 -19709717.42549 -15358197.46345  20332853.003    20332850.581
        -0.45456                                  25470256.592
  -3857339.40549  -3005665.91544  23870090.968    23870089.097
 -17474395.84549 -13616370.85744  21757954.351    21757952.214
 -21785301.81549 -16975531.28045  21071902.319    21071900.334
 99 12  9  3 39  0.0000000  0  7G30G 8G24G 6G 7G 9G 5
  -5572276.01749  -4342026.39044  24136648.787    24136646.154
 -13799681.74549 -10752950.78844  22339258.502    22339255.987
 -19757797.66849 -15395662.54945  20323703.556    20323701.241
   -147307.73046                                  25442224.570
  -3721023.59349  -2899445.80844  23896031.911    23896030.148
 -17359730.07349 -13527020.92544  21779774.630    21779772.483
 -21903863.00549 -17067916.60245  21049340.825    21049338.879
 99 12  9  3 40  0.0000000  0  7G30G 8G24G 6G 7G 9G 5
  -5771303.26649  -4497112.41944  24098773.333    24098772.351
 -13597969.79149 -10595772.65344  22377643.228    22377640.495
 -19803746.62449 -15431466.89345  20314959.726    20314957.462
   -294518.01746                                  25414211.016
  -3584724.09749  -2793238.42344  23921967.970    23921965.931
 -17243484.37849 -13436439.88044  21801895.204    21801893.384
 -22021334.90049 -17159453.11845  21026986.711    21026984.926
 99 12  9  3 41  0.0000000  0  7G30G 8G24G 6G 7G 9G 5
  -5970099.16449  -4652018.16944  24060943.717    24060942.518
 -13395400.16849 -10437926.20444  22416190.490    22416188.287
 -19847531.09549 -15465584.62245  20306627.805    20306625.413
   -441537.74446                                  25386233.527
  -3448303.93949  -2686937.04544  23947929.061    23947926.389
 -17125531.79349 -13344528.78644  21824341.046    21824339.087
 -22137590.86849 -17250042.15645  21004863.932    21004862.115
 99 12  9  3 42  0.0000000  0  7G30G 8G24G 6G 7G 9G 5
  -6168848.03449  -4806887.28844  24023123.614    24023121.876
 -13191917.96649 -10279368.64944  22454912.144    22454909.659
 -19889272.08849 -15498110.03145  20298684.721    20298682.405
   -588371.84446                                  25358292.083
  -3311772.02249  -2580548.54644  23973909.543    23973907.928
 -17005823.27149 -13251249.43344  21847121.123    21847118.993
 -22252610.43549 -17339667.76445  20982976.257    20982974.397
 99 12  9  3 43  0.0000000  0  7G30G 8G24G 6G 7G 9G 5
  -6367573.71549  -4961738.31844  23985306.111    23985305.477
 -12987519.27849 -10120096.94444  22493807.762    22493805.395
 -19928857.51449 -15528955.77645  20291151.819    20291149.532
   -734981.89046                                  25330392.712
  -3175135.80049  -2474078.79044  23999911.499    23999909.056
 -16884360.62449 -13156603.22844  21870234.535    21870232.471
 -22366451.98049 -17428375.43345  20961313.040    20961310.959
 99 12  9  3 44  0.0000000  0  7G30G 8G24G 6G 7G 9G 5
  -6566151.81149  -5116474.37444  23947518.363    23947517.188
 -12782293.03849  -9960180.39244  22532860.901    22532858.737
 -19966209.31649 -15558061.03345  20284043.935    20284041.668
   -881407.19946                                  25302528.727
  -3038405.72649  -2367535.90744  24025929.351    24025927.171
 -16761205.53749 -13060638.24844  21893670.116    21893668.107
 -22479134.67749 -17516180.10845  20939870.232    20939868.053
 99 12  9  3 45  0.0000000  0  7G30G 8G24G 6G 7G 9G 5
  -6764594.03049  -5271104.56544  23909756.509    23909754.464
 -12576289.45249  -9799658.11344  22572062.036    22572060.089
 -20001409.77449 -15585489.91945  20277345.465    20277343.100
  -1027683.46746                                  25274692.651
  -2901514.69049  -2260867.58644  24051980.016    24051976.772
 -16636427.43249 -12963408.57644  21917414.846    21917412.659
 -22590510.42349 -17602966.37945  20918676.117    20918674.304
 99 12  9  3 46  0.0000000  0  7G30G 8G24G 6G 7G 9G 5
  -6962927.36549  -5425649.90844  23872014.984    23872013.021
 -12369559.11449  -9638569.53944  22611401.694    22611399.441
 -20034565.14649 -15611325.23145  20271036.247    20271033.838
  -1173779.88747                                  25246891.375
  -2764442.43549  -2154058.05744  24078062.187    24078060.600
 -16510031.22949 -12864918.04744  21941467.247    21941465.040
 -22700510.95649 -17688681.05445  20897743.693    20897741.938
 99 12  9  3 47  0.0000000  0  7G30G 8G24G 6G 7G 9G 5
  -7161060.69749  -5580039.46044  23834312.321    23834309.232
 -12162146.38249  -9476949.23844  22650871.464    22650868.726
 -20065617.48249 -15635521.81845  20265126.918    20265124.794
  -1319666.16147                                  25219129.628
  -2627270.01449  -2047170.49044  24104166.534    24104163.991
 -16382018.33049 -12765167.75244  21965826.940    21965825.068
 -22809252.25649 -17773414.50745  20877050.642    20877049.065
 99 12  9  3 48  0.0000000  0  7G30G 8G24G 6G 7G 9G 5
  -7358813.50949  -5734132.48544  23796679.062    23796677.792
 -11954033.17049  -9314783.11344  22690473.112    22690471.235
 -20094427.80249 -15657971.38745  20259644.517    20259642.361
  -1465327.96847                                  25191411.645
  -2490080.11349  -1940269.29844  24130272.272    24130270.772
 -16252306.46849 -12664093.58844  21990510.327    21990508.374
 -22916785.32549 -17857206.48445  20856587.805    20856585.901
 99 12  9  3 49  0.0000000  0  7G30G 8G24G 6G 7G 9G 5
  -7556202.50149  -5887942.02144  23759117.426    23759115.917
 -11745220.94349  -9152072.29344  22730209.086    22730207.145
 -20121034.68849 -15678703.99145  20254581.418    20254579.102
  -1610836.47747                                  25163721.386
  -2352934.61949  -1833402.74044  24156370.971    24156368.070
 -16120969.19649 -12561752.87244  22015503.042    22015501.131
 -23023062.81649 -17940020.09145  20836363.893    20836362.043
 99 12  9  3 50  0.0000000  0  7G30G 8G24G 6G 7G 9G 5
  -7753355.49949  -6041567.67644  23721600.477    23721598.668
 -11535785.75949  -8988876.05744  22770063.254    22770061.291
 -20145548.76249 -15697805.83745  20249916.556    20249914.330
  -1756194.60047                                  25136060.295
  -2215737.53349  -1726495.99644  24182476.950    24182476.655
 -15988247.14449 -12458333.11044  22040759.639    22040757.215
 -23127914.73149 -18021722.86045  20816411.304    20816409.426
 99 12  9  3 51  0.0000000  0  7G30G 8G24G 6G 7G 9G 5
  -7950243.36749  -6194986.69744  23684134.424    23684132.139
 -11325723.77949  -8825191.40544  22810036.983    22810034.581
 -20167983.77449 -15715287.64045  20245647.175    20245645.058
  -1901327.53747                                  25108442.212
  -2078341.59449                                  24208621.880
 -15854202.48049 -12353882.74044  22066267.324    22066265.161
 -23231199.37349 -18102204.37645  20796756.764    20796755.107
 99 12  9  3 52  0.0000000  0  7G30G 8G24G 6G 7G 9G 5
  -8146898.80149  -6348224.64144  23646711.986    23646709.743
 -11115026.98449  -8661012.11244  22850131.997    22850128.960
 -20188360.32449 -15731165.44645  20241769.618    20241767.446
  -2046269.41247  -1594490.39044  25080866.513    25080860.582
  -1940761.78949                                  24234802.335
 -15718730.00149 -12248319.77344  22092046.997    22092044.712
 -23332985.95949 -18181518.57845  20777387.485    20777385.693
 99 12  9  3 53  0.0000000  0  8G30G 8G10G24G 6G 7G 9G 5
  -8343230.55049  -6501210.33244  23609351.251    23609349.026
 -10903550.39549  -8496225.19144  22890374.007    22890371.518
         0.24456                                  24456862.841
 -20206560.72849 -15745347.54745  20238306.211    20238304.002
  -2190938.05747  -1707219.01044  25053333.406    25053330.654
  -1803001.28849  -1404876.36644  24261019.531    24261018.117
 -15581547.89649 -12141424.63944  22118151.671    22118149.548
 -23433309.04749 -18259692.39645  20758296.575    20758294.726
 99 12  9  3 54  0.0000000  0  8G30G 8G10G24G 6G 7G 9G 5
  -8539311.00049  -6654000.23844  23572038.316    23572036.577
 -10691456.61749  -8330957.32644  22930734.177    22930731.703
   -201345.40046                                  24418547.953
 -20222641.36849 -15757877.88645  20235246.190    20235244.007
  -2335479.75747  -1819848.72444  25025830.035    25025825.698
  -1665264.80848  -1297552.77844  24287229.268    24287227.368
 -15442821.41149 -12033326.07844  22144550.376    22144548.392
 -23532392.20549 -18336900.03945  20739441.646    20739439.712
 99 12  9  3 55  0.0000000  0  8G30G 8G10G24G 6G 7G 9G 5
  -8735044.02349  -6806519.42744  23534791.506    23534789.989
 -10478833.77549  -8165277.19344  22971194.727    22971192.446
   -402970.14246                                  24380179.906
 -20236589.04449 -15768746.18045  20232591.916    20232589.835
  -2479896.00347  -1932380.70544  24998348.090    24998343.664
  -1527455.57949                                  24313452.055
 -15302704.75449 -11924144.27444  22171213.744    22171211.670
 -23630242.99849 -18413147.40045  20720821.267    20720819.452
 99 12  9  3 56  0.0000000  0  8G30G 8G10G24G 6G 7G 9G 5
  -8930378.83249  -6958728.34844  23497620.406    23497619.222
 -10265803.61049  -7999279.65844  23011732.840    23011730.751
   -604816.53547                                  24341770.018
 -20248443.10449 -15777983.08045  20230336.269    20230334.043
  -2624122.89147  -2044765.09744  24970902.809    24970897.963
  -1389525.15648                                  24339699.019
 -15161250.93749 -11813920.52644  22198131.380    22198129.457
 -23726756.59849 -18488352.79045  20702455.338    20702453.636
 99 12  9  3 57  0.0000000  0  8G30G 8G10G24G 6G 7G 9G 5
  -9125294.48349  -7110610.64244  23460529.950    23460528.135
 -10052316.73549  -7832926.25644  23052358.334    23052355.898
   -806751.02547                                  24303342.922
 -20258246.78949 -15785622.27945  20228470.717    20228468.378
  -2768157.65847  -2156999.79544  24943493.745    24943489.251
  -1251486.68748   -975128.97444  24365969.895    24365966.843
 -15018391.31649 -11702601.34544  22225316.937    22225314.710
 -23821713.42549 -18562345.11145  20684385.663    20684383.932
 99 12  9  3 58  0.0000000  0  8G30G 8G10G24G 6G 7G 9G 5
  -9319828.55849  -7262195.62044  23423509.951    23423509.367
  -9838304.40749  -7666163.41244  23093083.659    23093081.322
  -1008806.12048   -786081.58744  24264894.766    24264892.773
 -20266040.65649 -15791695.38945  20226987.445    20226985.344
  -2912106.52847  -2269167.55744  24916099.539    24916096.452
  -1113364.78348   -867501.53244  24392253.423    24392251.142
 -14874168.19749 -11590219.69644  22252761.624    22252759.372
 -23915002.39849 -18635037.80745  20666633.335    20666631.573
 99 12  9  3 59  0.0000000  0  8G30G 8G10G24G 6G 7G 9G 5
  -9514049.50349  -7413536.59644  23386551.681    23386550.341
  -9623884.30649  -7499082.83244  23133886.489    23133884.065
  -1211129.53649   -943736.10844  24226393.525    24226391.779
 -20271834.71449 -15796210.21545  20225884.700    20225882.732
  -3055994.21347  -2381287.65344  24888720.190    24888715.611
   -975125.95648   -759783.11944  24418558.364    24418556.799
 -14728688.02649 -11476858.50944  22280445.564    22280443.402
 -24006775.78449 -18706549.52745  20649169.421    20649167.612
 99 12  9  4  0  0.0000000  0  8G30G 8G10G24G 6G 7G 9G 5
  -9707958.29049  -7564634.27644  23349651.218    23349650.553
  -9409142.13249  -7331751.28344  23174750.186    23174747.975
  -1413738.24449  -1101612.89744  24187841.401    24187836.670
 -20275595.86949 -15799140.96045  20225169.122    20225166.873
  -3199717.98747  -2493280.01844  24861367.445    24861365.751
   -836730.90249   -651942.90044  24444895.019    24444893.696
 -14581917.18849 -11362491.51344  22308374.913    22308372.889
 -24097147.29249 -18776968.87045  20631972.240    20631970.456
 99 12  9  4  1  0.0000000  0  8G30G 8G10G24G 6G 7G 9G 5
  -9901480.71249  -7715430.92144  23312825.822    23312824.623
  -9194037.52849  -7164137.34244  23215683.701    23215681.165
  -1616512.42349  -1259618.64844  24149254.482    24149249.893
 -20277240.42449 -15800422.40845  20224856.107    20224853.914
  -3343200.70447  -2605084.63044  24834063.765    24834061.736
   -698247.19248                                  24471245.244
 -14433816.39549 -11247087.44444  22336557.279    22336555.623
 -24186098.51749 -18846281.49545  20615045.372    20615043.793
 99 12  9  4  2  0.0000000  0  8G30G 8G10G24G 6G 7G 9G 5
 -10094478.44349  -7865818.68844  23276099.385    23276097.651
  -8978552.71049  -6996227.13044  23256688.701    23256686.457
  -1819344.41449  -1417669.43744  24110655.561    24110652.288
 -20276689.32649 -15799992.96045  20224960.972    20224958.885
  -3486471.03148  -2716723.69044  24806799.916    24806798.520
   -559726.12148   -436095.04544  24497607.236    24497605.506
 -14284416.38749 -11130671.84244  22364987.465    22364985.546
 -24273465.63349 -18914359.75045  20598419.895    20598418.177
 99 12  9  4  3  0.0000000  0  7G30G 8G10G24G 6G 9G 5
 -10286970.11749  -8015812.15244  23239469.518    23239467.682
  -8762731.18449  -6828054.54244  23297758.433    23297756.093
  -2022167.49549  -1575713.27944  24072059.363    24072056.229
 -20273984.84849 -15797885.55545  20225475.678    20225473.452
  -3629591.97548  -2828246.36644  24779566.942    24779562.918
 -14133758.92149 -11013276.40444  22393656.826    22393654.773
 -24359207.97249 -18981171.94746  20582103.824    20582101.997
 99 12  9  4  4  0.0000000  0  7G30G 8G10G24G 6G 9G 5
 -10479022.41449  -8165463.21644  23202923.135    23202920.978
  -8546599.96349  -6659640.63344  23338887.227    23338884.489
  -2224928.72649  -1733708.93344  24033475.778    24033472.033
 -20269292.16049 -15794228.88945  20226368.611    20226366.415
  -3772559.10148  -2939649.19944  24752359.875    24752357.120
 -13981858.90249 -10894912.74944  22422562.280    22422560.340
 -24443354.41549 -19046740.59046  20566091.245    20566089.394
 99 12  9  4  5  0.0000000  0  8G30G 8G10G24G 6G 4G 9G 5
 -10670547.40349  -8314703.43444  23166476.708    23166475.134
  -8330100.14349  -6490939.50444  23380085.284    23380083.150
  -2427585.67749  -1891623.33944  23994910.708    23994907.527
 -20262631.23549 -15789038.53645  20227636.105    20227633.964
  -3915340.76047  -3050907.50744  24725190.812    24725186.313
        -0.28559         0.86454  21614266.279    21614265.373
 -13828649.09449 -10775528.47544  22451717.098    22451715.110
 -24525897.29249 -19111059.69946  20550383.764    20550382.130
 99 12  9  4  6  0.0000000  0  8G30G 8G10G24G 6G 4G 9G 5
 -10861553.38849  -8463539.20644  23130129.844    23130128.170
  -8113311.31349  -6322013.16944  23421339.469    23421336.721
  -2630198.20149  -2049503.13844  23956354.692    23956351.690
 -20254062.28449 -15782361.41345  20229266.556    20229264.583
  -4058006.09048  -3162075.15044  24698041.628    24698038.225
    154680.48149    120531.33344  21643701.108    21643700.004
 -13674263.70249 -10655228.16144  22481095.551    22481093.673
 -24606864.05549 -19174150.66646  20534976.223    20534974.611
 99 12  9  4  7  0.0000000  0  8G30G 8G10G24G 6G 4G 9G 5
 -11052151.49649  -8612057.17644  23093859.696    23093858.406
  -7896402.43249  -6152993.30044  23462615.650    23462613.051
  -2832861.95249  -2207422.84044  23917789.055    23917785.888
 -20243637.52349 -15774238.20645  20231250.391    20231248.237
  -4200698.42448  -3273263.85944  24670888.722    24670884.654
    310485.00249    241937.45244  21673349.758    21673348.530
 -13518935.68749 -10534193.33844  22510653.438    22510651.520
 -24686352.07849 -19236089.37146  20519850.102    20519848.415
 99 12  9  4  8  0.0000000  0  8G30G 8G10G24G 6G 4G 9G 5
 -11242283.03649  -8760211.57344  23057679.142    23057677.430
  -7679364.19749  -5983872.63844  23503916.485    23503914.013
  -3035554.44549  -2365364.92844  23879217.633    23879214.766
 -20231197.72049 -15764544.83445  20233617.543    20233615.489
  -4343355.07448  -3384424.77244  24643740.549    24643737.859
    467388.13349    364199.63244  21703207.367    21703206.361
 -13362603.10749 -10412375.74844  22540402.664    22540400.718
 -24764285.66049 -19296816.82946  20505019.863    20505018.143
 99 12  9  4  9  0.0000000  0  8G30G 8G10G24G 6G 4G 9G 5
 -11431701.95149  -8907810.68844  23021633.640    23021632.339
  -7462067.53849  -5814550.60344  23545265.937    23545264.168
  -3238177.71549  -2523253.04844  23840659.693    23840656.603
 -20216564.78049 -15753142.52445  20236402.077    20236400.066
  -4485687.82448  -3495333.29044  24616655.661    24616653.075
    625514.19249    487414.74144  21733297.558    21733296.752
 -13204990.37249 -10289560.63844  22570395.815    22570393.456
 -24840457.92049 -19356171.82846  20490524.825    20490523.232
 99 12  9  4 10  0.0000000  0  8G30G 8G10G24G 6G 4G 9G 5
 -11620479.67649  -9054910.17044  22985710.969    22985709.194
  -7244541.82049  -5645050.08644  23586661.146    23586658.015
  -3440723.55349  -2681080.80844  23802116.096    23802113.315
 -20199845.97149 -15740114.86545  20239583.537    20239581.446
  -4627686.40248  -3605981.44344  24589634.553    24589631.153
    784850.24049    611572.69544  21763618.543    21763617.483
 -13046094.32549 -10165745.54544  22600632.240    22600630.311
 -24914921.37949 -19414195.29946  20476354.935    20476353.265
 99 12  9  4 11  0.0000000  0  8G30G 8G10G24G 6G 4G 9G 5
 -11808739.42449  -9201606.03944  22949886.391    22949884.536
  -7026847.91949  -5475418.51844  23628086.542    23628083.966
  -3643040.64349  -2838730.32544  23763616.539    23763613.508
 -20181110.69149 -15725515.92745  20243148.730    20243146.653
  -4769479.18348  -3716469.20044  24562651.429    24562648.361
    945377.19149    736658.62644  21794165.811    21794164.670
 -12886094.29849 -10041070.20344  22631079.448    22631077.281
 -24987693.61149 -19470900.93146  20462506.790    20462505.067
 99 12  9  4 12  0.0000000  0  8G30G 8G10G24G 6G 4G 9G 5
 -11996445.38549  -9347870.39644  22914166.736    22914165.193
  -6808990.72449  -5305659.69544  23669544.123    23669540.778
  -3845001.76949  -2996102.48144  23725184.483    23725181.434
 -20160388.02049 -15709368.37545  20247092.088    20247090.061
  -4911171.20648  -3826878.46644  24535688.332    24535685.504
   1107136.29649    862704.67644  21824947.827    21824946.461
 -12725105.75349  -9915624.59544  22661714.377    22661712.426
 -25058757.25749 -19526275.20146  20448983.881    20448982.149
 99 12  9  4 13  0.0000000  0  8G30G 8G10G24G 6G 4G 9G 5
 -12183401.06049  -9493550.10844  22878590.239    22878588.607
  -6590907.86349  -5135725.04044  23711043.154    23711040.445
  -4046612.49149  -3153201.62644  23686819.411    23686816.133
 -20137690.58049 -15691682.04145  20251411.351    20251409.197
  -5052733.58148  -3937186.69544  24508749.810    24508746.750
   1270222.61549    989784.92444  21855982.004    21855980.566
 -12563086.40549  -9789375.76144  22692545.450    22692543.837
 -25128066.93249 -19580282.73646  20435794.525    20435793.034
 99 12  9  4 14  0.0000000  0  8G30G 8G10G24G 6G 4G 9G 5
 -12369566.07849  -9638613.72244  22843164.367    22843162.452
  -6372668.57049  -4965668.47744  23752572.722    23752570.058
  -4248010.89549  -3310135.33844  23648493.980    23648491.226
 -20113073.19549 -15672499.64545  20256095.844    20256093.725
  -5194193.88048  -4047415.39044  24481830.740    24481827.926
   1434540.07649   1117824.50644  21887250.554    21887249.009
 -12400024.36349  -9662314.43144  22723575.093    22723573.469
 -25195649.91649 -19632944.79646  20422934.018    20422932.382
 99 12  9  4 15  0.0000000  0  8G30G 8G10G24G 6G 4G 9G 5
 -12555085.64149  -9783174.39844  22807860.657    22807859.203
  -6154428.30449  -4795611.17544  23794102.031    23794099.720
  -4449290.34349  -3466976.38144  23610190.986    23610188.916
 -20086586.87149 -15651860.93345  20261136.027    20261133.871
  -5335565.21948  -4157574.76944  24454928.520    24454926.142
   1599818.00549   1246612.50144  21918701.430    21918700.432
 -12235998.28049  -9534501.90644  22754788.314    22754786.645
 -25261545.01749 -19684291.62346  20410394.602    20410392.931
 99 12  9  4 16  0.0000000  0  8G30G 8G10G24G 6G 4G 9G 5
 -12740048.16149  -9927301.01544  22772663.487    22772662.186
  -5936270.95749  -4625618.46944  23835616.756    23835613.784
  -4650491.90949  -3623756.75144  23571904.495    23571901.604
 -20058259.84749 -15629787.91645  20266526.540    20266524.467
  -5476798.76648  -4267626.78644  24428051.823    24428049.981
   1765869.35349   1376003.15844  21950300.038    21950299.021
 -12071095.26349  -9406006.05744  22786168.616    22786166.570
 -25325793.46249 -19734355.34246  20398168.415    20398166.795
 99 12  9  4 17  0.0000000  0  8G30G 8G10G24G 6G 4G 9G 5
 -12924404.78749 -10070955.50344  22737581.853    22737580.313
  -5718162.33349  -4455663.73144  23877120.260    23877118.482
  -4851532.83349  -3780411.96344  23533647.826    23533644.655
 -20027988.46749 -15606199.81745  20272286.918    20272284.769
  -5617897.38448  -4377573.66244  24401200.937    24401199.817
   1932807.75549   1506085.02544  21982067.391    21982066.640
 -11905384.03849  -9276880.44344  22817702.496    22817700.210
 -25388360.46649 -19783108.84646  20386262.302    20386260.741
 99 12  9  4 18  0.0000000  0  8G30G 8G10G24G 6G 4G 9G 5
 -13108056.60149 -10214060.79044  22702633.891    22702632.530
  -5500151.74649  -4285785.38544  23918607.272    23918604.459
  -5052319.37949  -3936868.95544  23495438.867    23495436.427
 -19995746.16549 -15581075.93445  20278422.395    20278420.220
  -5758928.12848  -4487467.66044  24374364.552    24374362.134
   2100789.64749   1636979.99944  22014033.405    22014032.661
 -11738840.93849  -9147106.62344  22849394.533    22849392.384
 -25449123.23149 -19830456.44646  20374699.544    20374698.024
 99 12  9  4 19  0.0000000  0  8G30G 8G10G24G 6G 4G 9G 5
 -13290895.91949 -10356532.96244  22667840.645    22667839.205
  -5282228.55849  -4115975.13944  23960076.532    23960074.133
  -5252678.56649  -4092992.94544  23457311.760    23457309.209
 -19961540.38649 -15554422.06745  20284931.506    20284929.422
  -5899878.15848  -4597298.79144  24347543.434    24347540.099
   2269848.40649   1768714.08544  22046203.928    22046203.152
 -11571320.88949  -9016571.54344  22881272.624    22881270.272
 -25507984.58249 -19876322.42746  20363498.686    20363497.066
 99 12  9  4 20  0.0000000  0  8G30G 8G10G24G 6G 4G 9G 5
 -13472908.62349 -10498361.02944  22633204.643    22633203.727
  -5064284.71549  -3946148.80744  24001550.506    24001547.586
  -5452456.66449  -4248664.14844  23419295.401    23419292.714
 -19925477.95549 -15526321.46045  20291793.941    20291791.819
  -6040649.54248  -4706990.71344  24320754.234    24320752.170
   2439891.11449   1901214.88844  22078562.414    22078561.155
 -11402820.25449  -8885272.36244  22913337.136    22913335.128
 -25564992.12249 -19920743.88246  20352650.437    20352648.823
 99 12  9  4 21  0.0000000  0  8G30G 8G10G24G 6G 4G 9G 5
 -13654128.42849 -10639571.25344  22598719.607    22598718.603
  -4846327.74649  -3776312.24444  24043025.627    24043023.060
  -5651683.03449  -4403905.43244  23381383.894    23381381.019
 -19887631.49649 -15496830.70245  20298995.869    20298993.758
  -6181186.09348  -4816499.66744  24294010.901    24294008.868
   2610864.90349   2034441.21044  22111097.586    22111096.336
 -11233443.20049  -8753290.26544  22945568.748    22945566.416
 -25620222.73649 -19963780.71946  20342140.455    20342138.899
 99 12  9  4 22  0.0000000  0  8G30G 8G10G24G 6G 4G 9G 5
 -13834592.48449 -10780192.57444  22564378.163    22564377.160
  -4628510.67249  -3606584.69144  24084474.861    24084472.379
  -5850533.29449  -4558853.63344  23343543.483    23343540.990
 -19847968.64849 -15465924.57745  20306543.502    20306541.295
  -6321508.89748  -4925842.06944  24267310.989    24267306.625
   2782803.37749   2168419.23544  22143815.993    22143815.143
 -11063283.96349  -8620698.67644  22977948.686    22977946.796
 -25673691.63449 -20005444.79146  20331965.609    20331964.007
 99 12  9  4 23  0.0000000  0  8G30G 8G10G24G 6G 4G 9G 5
 -14014238.97349 -10920176.83944  22530192.909    22530191.693
  -4410949.03948  -3437056.18744  24125874.263    24125872.957
  -6049027.26549  -4713524.20044  23305771.818    23305768.896
 -19806505.86349 -15433615.90345  20314433.596    20314431.413
  -6461641.22348  -5035036.03344  24240641.596    24240640.212
   2955708.08349   2303150.16944  22176718.779    22176718.080
 -10892350.84249  -8487504.05644  23010476.483    23010474.311
 -25725349.13749 -20045697.38946  20322135.612    20322133.901
 99 12  9  4 24  0.0000000  0  8G30G 8G10G24G 6G 4G 9G 5
 -14192975.78349 -11059452.25544  22496180.768    22496179.171
  -4193616.76348  -3267706.40844  24167233.269    24167229.827
  -6247160.87749  -4867913.94344  23268067.989    23268065.272
 -19763230.16649 -15399894.57445  20322668.618    20322666.582
  -6601732.17148  -5144197.74344  24213984.773    24213981.675
   3129480.15649   2438556.96044  22209786.824    22209785.780
 -10720741.03649  -8353782.14444  23043132.697    23043130.341
 -25775173.20449 -20084521.33946  20312654.407    20312652.712
 99 12  9  4 25  0.0000000  0  8G30G 8G10G24G 6G 4G 9G 5
 -14370780.97949 -11198001.74144  22462345.057    22462343.900
  -3976410.14047                                  24208563.313
  -6444900.63749  -5021996.80444  23230439.268    23230436.662
 -19718083.05449 -15364715.00345  20331259.828    20331257.682
  -6741804.22948  -5253344.73244  24187328.369    24187326.912
   3304083.72649   2574611.68244  22243012.888    22243011.824
 -10548431.75549  -8219515.19744  23075922.251    23075919.750
 -25823100.70649 -20121867.44546  20303534.057    20303532.478
 99 12  9  4 26  0.0000000  0  8G30G 8G10G24G 6G 4G 9G 5
 -14547730.31949 -11335884.32544  22428672.926    22428671.772
  -3759304.61447                                  24249877.203
  -6642173.11449  -5175715.56844  23192899.365    23192897.042
 -19671044.97649 -15328061.95045  20340210.801    20340208.689
  -6881798.75548  -5362431.29644  24160689.825    24160686.716
   3479536.34649   2711327.99744  22276400.222    22276399.451
 -10375338.72149  -8084637.52344  23108860.574    23108858.474
 -25869166.12549 -20157762.57946  20294768.014    20294766.537
 99 12  9  4 27  0.0000000  0  8G30G 8G10G24G 6G 4G 9G 5
 -14723786.68949 -11473071.09244  22395170.682    22395169.311
  -3542303.96046                                  24291170.706
  -6838820.18649  -5328947.01344  23155478.373    23155476.322
 -19622138.50149 -15289953.00245  20349517.440    20349515.327
  -7021596.55049  -5471364.55844  24134086.344    24134084.440
   3655822.20649   2848693.58944  22309946.455    22309945.213
 -10201443.80549  -7949135.01344  23141951.624    23141949.550
 -25913402.20649 -20192232.25546  20286350.239    20286348.603
 99 12  9  4 28  0.0000000  0  8G30G 8G10G24G 6G 4G 9G 5
 -14898904.54649 -11609526.56244  22361846.397    22361845.471
  -3325441.47246                                  24332438.773
  -7034765.33149  -5481631.52244  23118191.710    23118188.995
 -19571372.51449 -15250395.08146  20359178.008    20359175.849
  -7161155.74849  -5580111.92444  24107528.579    24107527.031
   3832922.93649   2986694.14344  22343647.563    22343646.465
 -10026840.02449  -7813080.15044  23175177.777    23175175.587
 -25955770.00849 -20225246.13346  20278287.962    20278286.289
 99 12  9  4 29  0.0000000  0  8G30G 8G10G24G 6G 4G 9G 5
 -15073119.10549 -11745278.14744  22328694.310    22328693.298
  -3108863.36545                                  24373652.016
  -7230081.85249  -5633826.17244  23081023.789    23081021.321
 -19518802.39249 -15209431.33946  20369181.827    20369179.625
  -7300550.57448  -5688731.17644  24081002.652    24081000.474
   4010814.13649   3125310.65344  22377498.807    22377498.006
  -9851594.01349  -7676524.83844  23208526.125    23208523.865
 -25996220.89549 -20256766.30846  20270590.355    20270588.837
 99 12  9  4 30  0.0000000  0  8G30G 8G10G24G 6G 4G 9G 5
 -15246453.76549 -11880344.11144  22295710.428    22295709.041
  -2892700.80945                                  24414785.876
  -7424829.17249  -5785577.28744  23043964.637    23043962.163
 -19464550.26249 -15167156.94245  20379505.439    20379503.347
  -7439876.21048  -5797296.54244  24054491.962    24054487.673
   4189521.46149   3264563.09944  22411505.961    22411504.877
  -9675757.02549  -7539509.03044  23241986.343    23241984.525
 -26034700.79749 -20286750.65046  20263267.954    20263266.386
 99 12  9  4 31  0.0000000  0  7G30G10G24G 6G 4G 9G 5
 -15418825.77149 -12014659.94244  22262908.932    22262907.933
  -7618954.16149  -5936843.44944  23007023.685    23007021.326
 -19408681.24449 -15123622.63345  20390136.813    20390134.773
  -7579133.68949  -5905808.78344  24027989.919    24027988.005
   4369003.00449   3404418.83544  22445660.319    22445659.022
  -9499375.79749  -7402069.14144  23275550.907    23275548.732
 -26071210.73549 -20315199.95846  20256320.181    20256318.671
 99 12  9  4 32  0.0000000  0  7G30G10G24G 6G 4G 9G 5
 -15590430.40249 -12148377.81644  22230253.795    22230252.574
  -7812635.08749  -6087763.58144  22970167.711    22970165.237
 -19351407.55649 -15078993.78545  20401035.622    20401033.727
  -7718557.97649  -6014451.03244  24001458.789    24001456.583
   4548926.99249   3544619.32944  22479898.414    22479897.458
  -9322722.18149  -7264416.99944  23309167.207    23309164.988
 -26106065.23849 -20342359.31946  20249687.714    20249686.095
 99 12  9  4 33  0.0000000  0  7G30G10G24G 6G 4G 9G 5
 -15760872.70849 -12281189.98044  22197819.397    22197818.191
  -8005423.71349  -6237988.42744  22933481.235    22933478.794
 -19292249.36249 -15032896.49245  20412293.315    20412291.217
  -7857702.78749  -6122875.51544  23974979.903    23974978.303
   4729710.18949   3685489.33844  22514300.550    22514299.068
  -9145351.56449  -7126206.15344  23342919.662    23342917.195
 -26138863.05049 -20367916.06246  20243446.437    20243444.930
 99 12  9  4 34  0.0000000  0  7G30G10G24G 6G 4G 9G 5
 -15930112.20249 -12413064.88444  22165614.246    22165613.087
  -8197313.82149  -6387513.14844  22896966.049    22896963.201
 -19231125.76549 -14985267.71245  20423924.913    20423922.585
  -7996480.43549  -6231013.91444  23948570.882    23948569.723
   4911404.85549   3827069.57644  22548876.050    22548874.746
  -8967230.98149  -6987410.92144  23376814.513    23376812.499
 -26169478.64949 -20391772.38046  20237620.554    20237619.024
 99 12  9  4 35  0.0000000  0  7G30G10G24G 6G 4G 9G 5
 -16098206.63449 -12544047.53444  22133627.233    22133625.765
  -8388418.43049  -6536425.79844  22860599.487    22860597.282
 -19168210.24249 -14936242.62245  20435897.176    20435894.872
  -8135056.88849  -6338995.54444  23922201.002    23922199.708
   5093843.08049   3969229.21644  22583592.701    22583591.483
  -8788534.00049  -6848166.54244  23410819.675    23410817.551
 -26198000.89449 -20413997.51246  20232192.919    20232191.385
 99 12  9  4 36  0.0000000  0  7G30G10G24G 6G 4G 9G 5
 -16265197.01549 -12674169.89544  22101849.887    22101848.654
  -8578725.01849  -6684716.60744  22824385.407    22824383.086
 -19103601.95949 -14885898.49945  20448191.565    20448189.362
  -8273597.60949  -6446949.32644  23895837.724    23895836.145
   5276942.88449   4111904.36844  22618435.137    22618434.517
  -8609361.46249  -6708551.60444  23444915.362    23444912.974
 -26224536.93649 -20434674.95446  20227143.241    20227141.730
 99 12  9  4 37  0.0000000  0  7G30G10G24G 6G 4G 9G 5
 -16431176.38649 -12803504.45044  22070264.663    22070263.838
  -8768259.87149  -6832406.05744  22788318.412    22788315.683
 -19037406.91249 -14834317.94245  20460788.065    20460786.109
  -8412194.22349  -6554946.66444  23869464.445    23869462.101
   5460573.31049   4254992.99644  22653379.100    22653378.197
  -8429796.40749  -6568630.80644  23479085.328    23479083.078
 -26249195.56949 -20453889.47646  20222450.830    20222449.271
 99 12  9  4 38  0.0000000  0  7G30G10G24G 6G 4G 9G 5
 -16596084.68249 -12932004.40844  22038883.900    22038882.861
  -8956977.20649  -6979458.49444  22752405.992    22752404.013
 -18969591.96649 -14781475.13045  20473692.843    20473691.033
  -8550607.28349  -6662800.96344  23843125.678    23843122.913
   5644739.40449   4398499.02244  22688424.677    22688423.688
  -8249758.65949  -6428341.67044  23513345.216    23513342.864
 -26271852.19749 -20471543.99646  20218139.590    20218137.920
 99 12  9  4 39  0.0000000  0  7G30G10G24G 6G 4G 9G 5
 -16759856.59849 -13059618.87444  22007718.680    22007718.032
  -9144865.08449  -7125864.60344  22716652.115    22716650.152
 -18900158.87049 -14727371.42345  20486905.665    20486903.468
  -8688713.37149  -6770416.05944  23816844.321    23816841.785
   5829511.25449   4542477.06544  22723585.358    22723584.699
  -8069254.03549  -6287688.74144  23547693.690    23547691.774
 -26292462.93549 -20487604.31746  20214217.459    20214215.885
 99 12  9  4 40  0.0000000  0  7G30G10G24G 6G 4G 9G 5
 -16922440.45849 -13186307.58644  21976780.222    21976779.212
  -9331874.42149  -7271586.12044  22681065.846    22681063.320
 -18829200.16249 -14672078.91645  20500408.845    20500406.238
  -8826588.55749  -6877851.23044  23790607.284    23790604.966
   6014942.21649   4686968.70844  22758872.285    22758870.935
  -7888381.18549  -6146748.87844  23582112.941    23582110.837
 -26311057.98349 -20502093.96646  20210678.869    20210677.334
 99 12  9  4 41  0.0000000  0  7G30G10G24G 6G 4G 9G 5
 -17083794.56549 -13312038.04244  21946075.599    21946074.409
  -9517936.03049  -7416569.14444  22645659.292    22645656.905
 -18756714.12249 -14615596.27545  20514202.316    20514199.851
  -8964323.96349  -6985177.47544  23764398.005    23764394.642
   6200946.81949   4831907.34044  22794267.891    22794266.247
  -7707171.44049  -6005546.51444  23616596.548    23616594.151
 -26327615.79749 -20514996.16146  20207528.063    20207526.483
 99 12  9  4 42  0.0000000  0  7G30G10G24G 6G 4G 9G 5
 -17243962.74249 -13436844.40144  21915596.608    21915595.396
  -9703055.03149  -7560817.65644  22610432.200    22610429.887
 -18682665.43249 -14557895.99245  20528293.130    20528291.165
  -9102021.00649  -7092473.82644  23738193.709    23738191.943
   6387434.42649   4977222.33744  22829754.849    22829753.705
  -7525622.86449  -5864080.12644  23651144.130    23651141.612
 -26342178.07949 -20526343.39846  20204757.031    20204755.454
 99 12  9  4 43  0.0000000  0  7G30G10G24G 6G 4G 9G 5
 -17402935.23549 -13560719.05644  21885345.245    21885344.033
  -9887265.14049  -7704357.96444  22575378.305    22575375.904
 -18606989.55149 -14498927.78245  20542693.579    20542691.922
  -9239664.21049  -7199728.22044  23712001.358    23711999.248
   6574461.42449   5122957.64444  22865344.901    22865343.496
  -7343721.57049  -5722338.88744  23685758.774    23685756.492
 -26354796.56949 -20536175.99446  20202355.830    20202354.197
 99 12  9  4 44  0.0000000  0  7G30G10G24G 6G 4G 9G 5
 -17560741.46149 -13683684.92944  21855315.790    21855314.496
 -10070601.59249  -7847217.50444  22540490.198    22540488.206
 -18529774.69049 -14438760.36845  20557387.150    20557385.235
  -9377283.88049  -7306964.28444  23685813.451    23685811.120
   6762004.51749   5269095.09944  22901033.165    22901032.128
  -7161542.18649  -5580380.95644  23720425.618    23720423.945
 -26365526.06849 -20544536.65246  20200314.017    20200312.416
 99 12  9  4 45  0.0000000  0  7G30G10G24G 6G 4G 9G 5
 -17717395.14649 -13805752.72244  21825505.397    21825504.103
 -10253018.45349  -7989360.48344  22505777.397    22505775.401
 -18451049.90749 -14377416.38245  20572368.224    20572365.796
  -9514873.60549  -7414176.99544  23659631.515    23659628.419
   6949954.74649   5415549.80044  22936799.078    22936798.034
  -6979182.47949  -5438282.51544  23755128.677    23755125.874
 -26374280.42049 -20551358.23346  20198648.091    20198646.565
 99 12  9  4 46  0.0000000  0  7G30G10G24G 6G 4G 9G 5
 -17872749.95649 -13926808.40744  21795942.590    21795941.026
 -10434362.60749  -8130667.57844  22471269.058    22471266.702
 -18370792.43049 -14314878.07745  20587640.888    20587638.332
  -9652390.04249  -7521332.60944  23633462.648    23633460.126
   7138286.82349   5562302.04444  22972637.540    22972636.604
  -6796606.96849  -5296015.91844  23789871.223    23789868.902
 -26380881.94249 -20556502.27946  20197391.855    20197390.375
 99 12  9  4 47  0.0000000  0  7G30G10G24G 6G 4G 9G 5
 -18026661.30449 -14046739.32644  21766654.182    21766652.586
 -10614577.91449  -8271095.04744  22436975.369    22436972.777
 -18289011.28149 -14251152.49945  20603203.197    20603201.156
  -9789732.73549  -7628352.85444  23607326.425    23607324.545
   7326998.95949   5709350.43444  23008548.490    23008547.318
  -6613798.16349  -5153567.53544  23824658.621    23824656.217
 -26385266.71749 -20559918.99546  20196557.524    20196555.961
 99 12  9  4 48  0.0000000  0  7G30G10G24G 6G 4G 9G 5
 -18179125.33349 -14165542.45844  21737641.003    21737639.898
 -10793671.83749  -8410648.71544  22402894.822    22402892.230
 -18205719.32549 -14186249.68145  20619052.887    20619051.186
  -9926855.25349  -7735201.53444  23581232.540    23581230.965
   7516121.32149   5856718.48144  23044537.001    23044536.167
  -6430779.28549  -5010955.45744  23859486.268    23859483.583
 -26387510.34049 -20561667.28146  20196130.686    20196129.041
 99 12  9  4 49  0.0000000  0  7G30G10G24G 6G 4G 9G 5
 -18330279.05849 -14283324.57644  21708877.407    21708876.382
 -10971638.06849  -8549323.67744  22369028.551    22369026.267
 -18120971.71449 -14120212.58945  20635179.723    20635177.959
 -10063884.95949  -7841977.89944  23555157.442    23555155.249
   7705716.03349   6004454.60244  23080615.136    23080615.051
  -6247603.46249  -4868221.08944  23894343.295    23894340.544
 -26387688.75349 -20561806.31446  20196096.725    20196095.119
 99 12  9  4 50  0.0000000  0  7G30G10G24G 6G 4G 9G 5
 -18480141.20849 -14400100.27344  21680359.545    21680358.669
 -11148411.48349  -8687069.18844  22335389.321    22335387.525
 -18034756.80149 -14053032.13845  20651585.890    20651583.793
 -10200882.43349  -7948729.14444  23529087.537    23529085.349
   7895854.30549   6152614.27544  23116797.898    23116796.968
  -6064217.31549  -4725322.83044  23929240.964    23929238.015
 -26385810.88749 -20560343.05446  20196453.996    20196452.463
 99 12  9  4 51  0.0000000  0  7G30G10G24G 6G 4G 9G 5
 -18628653.59649 -14515824.20644  21652098.720    21652097.628
 -11323945.36449  -8823848.81644  22301986.783    22301984.428
 -17947043.49249 -13984684.09945  20668277.305    20668275.080
 -10337735.24949  -8055367.69244  23503044.763    23503043.081
   8086536.34249   6301197.66244  23153083.942    23153082.453
  -5880578.73049  -4582227.86344  23964184.860    23964183.428
 -26381834.89149 -20557244.88846  20197210.598    20197209.081
 99 12  9  4 52  0.0000000  0  7G30G10G24G 6G 4G 9G 5
 -18775941.93149 -14630594.33244  21624070.673    21624069.504
 -11498410.54449  -8959795.66344  22268787.133    22268784.680
 -17857997.19849 -13915297.37345  20685222.383    20685220.347
 -10474490.15949  -8161929.92744  23477021.948    23477019.191
   8277471.23749   6449978.07044  23189417.422    23189416.105
  -5696899.26049  -4439101.02744  23999138.733    23999136.448
 -26375880.85549 -20552605.39046  20198343.671    20198342.113
 99 12  9  4 53  0.0000000  0  7G30G10G24G 6G 4G 9G 5
 -18921969.36149 -14744381.93344  21596282.739    21596281.248
 -11671806.62549  -9094909.42544  22235791.002    22235788.580
 -17767725.10149 -13844955.48045  20702400.591    20702398.673
 -10611162.30949  -8268427.68044  23451013.281    23451011.789
   8468520.05449   6598847.25244  23225773.000    23225771.599
  -5513317.72749  -4296050.52244  24034072.173    24034070.863
 -26367930.95749 -20546410.68146  20199856.545    20199854.936
 99 12  9  4 54  0.0000000  0  7G30G10G24G 6G 4G 9G 5
 -19066441.96149 -14856957.98044  21568790.417    21568788.923
 -11843825.76649  -9228950.28044  22203056.847    22203054.521
 -17676055.33149 -13773524.49345  20719844.718    20719842.655
 -10747578.11749  -8374725.67944  23425054.760    23425052.531
   8659877.98949   6747957.30344  23262186.699    23262185.742
  -5329663.81849  -4152943.60344  24069021.845    24069019.173
 -26357761.90649 -20538486.76146  20201791.696    20201790.074
 99 12  9  4 55  0.0000000  0  7G30G10G24G 6G 4G 9G 5
 -19209417.11149 -14968367.18144  21541583.025    21541581.635
 -12014527.33249  -9361964.45744  22170572.943    22170570.980
 -17582986.38249 -13701003.23545  20737555.075    20737552.894
 -10883841.08949  -8480904.59744  23399125.138    23399122.323
   8851529.95049   6897296.47544  23298656.806    23298656.253
  -5145905.33949  -4009755.18844  24103987.806    24103987.330
 -26345505.95149 -20528936.68346  20204123.855    20204122.315
 99 12  9  4 56  0.0000000  0  7G30G10G24G 6G 4G 9G 5
 -19350808.46649 -15078542.25844  21514677.397    21514675.924
 -12183936.61249  -9493971.65944  22138335.805    22138333.358
 -17488446.60349 -13627335.88045  20755545.296    20755543.144
 -11019929.97349  -8586947.86744  23373228.345    23373225.550
   9043571.93149   7046939.55144  23335201.283    23335200.482
  -4961906.78649  -3866379.73244  24139003.531    24139000.772
 -26331082.50049 -20517697.64346  20206868.584    20206867.089
 99 12  9  4 57  0.0000000  0  7G30G10G24G 6G 4G 9G 5
 -19490589.80049 -15187462.77444  21488077.741    21488076.675
 -12352080.37849  -9624992.74344  22106339.118    22106336.644
 -17392549.41349 -13552610.80445  20773793.848    20773792.020
 -11155906.61749  -8692903.67044  23347352.835    23347349.818
   9236019.64349   7196898.79244  23371823.556    23371822.084
  -4777793.29849  -3722914.73144  24174038.926    24174036.322
 -26314480.82149 -20504761.28246  20210027.740    20210026.238
 99 12  9  4 58  0.0000000  0  7G30G10G24G 6G 4G 9G 5
 -19628847.31649 -15295195.89744  21461768.059    21461767.134
 -12518918.33149  -9754996.30044  22074590.799    22074588.468
 -17295436.04849 -13476938.06045  20792274.153    20792272.245
 -11291813.38649  -8798805.00144  23321490.465    23321487.870
   9428804.66249   7347120.87044  23408509.466    23408507.908
  -4593805.96149  -3579548.01344  24209050.340    24209048.136
 -26295727.55649 -20490148.36546  20213596.470    20213594.831
 99 12  9  4 59  0.0000000  0  7G30G10G24G 6G 4G 9G 5
 -19765671.61149 -15401812.22644  21435731.467    21435730.168
 -12684406.65349  -9883948.20044  22043099.151    22043097.087
 -17197119.70049 -13400327.92045  20810983.343    20810981.133
 -11427658.63949  -8904658.29144  23295639.423    23295637.466
   9621822.89049   7497524.64144  23445238.602    23445237.897
  -4410026.72549  -3436343.47744  24244023.227    24244020.386
 -26274904.32449 -20473922.48946  20217558.997    20217557.432
 99 12  9  5  0  0.0000000  0  7G30G10G24G 6G 4G 9G 5
 -19900952.63349 -15507226.00944  21409987.985    21409986.958
 -12848452.48549 -10011776.08544  22011882.350    22011880.122
 -17097432.47549 -13322649.56045  20829953.098    20829950.832
 -11563304.14949  -9010356.23044  23269826.648    23269824.848
   9815060.08449   7648099.05544  23482010.782    23482009.898
  -4226289.12249  -3293171.36144  24278986.278    24278984.312
 -26251994.81449 -20456070.93846  20221918.534    20221916.995
 99 12  9  5  1  0.0000000  0  7G30G10G24G 6G 4G 9G 5
 -20034589.86449 -15611358.91444  21384557.815    21384556.687
 -13011011.17449 -10138445.15844  21980948.517    21980946.186
 -16996315.55149 -13243857.14945  20849194.849    20849192.702
 -11698687.25549  -9115849.51044  23244064.490    23244062.345
  10008510.11949   7798839.33144  23518824.171    23518822.190
  -4042542.05549  -3149991.86944  24313952.825    24313950.385
 -26226919.29349 -20436531.58546  20226690.145    20226688.624
 99 12  9  5  2  0.0000000  0  7G30G10G24G 6G 4G 9G 5
 -20166639.36849 -15714254.62844  21359429.605    21359428.545
 -13172155.16849 -10264011.87444  21950283.697    21950281.555
 -16893889.36649 -13164044.54245  20868685.806    20868683.864
 -11833879.57649  -9221194.13844  23218337.931    23218336.100
  10202133.01349   7949714.27344  23555668.111    23555667.265
  -3858867.93249  -3006869.18644  24348904.557    24348902.326
 -26199638.00749 -20415273.45646  20231881.694    20231880.111
 99 12  9  5  3  0.0000000  0  7G30G10G24G 6G 4G 9G 5
 -20297105.02149 -15815916.17444  21334602.835    21334601.830
 -13331910.98149 -10388496.88944  21919883.114    21919881.045
 -16790287.83349 -13083316.08145  20888400.341    20888398.604
 -11968977.52949  -9326465.24544  23192629.527    23192627.977
  10395906.29749   8100706.42844  23592541.938    23592541.175
  -3675334.45648  -2863856.12044  24383829.561    24383827.584
 -26170224.29749 -20392353.70046  20237478.977    20237477.416
 99 12  9  5  4  0.0000000  0  7G30G10G24G 6G 4G 9G 5
 -20425927.26749 -15916297.14144  21310088.840    21310087.806
 -13490151.92049 -10511801.47444  21889770.950    21889768.761
 -16685542.83149 -13001696.60745  20908332.754    20908330.968
 -12104031.74749  -9431702.27944  23166929.776    23166927.891
  10589820.47649   8251808.35144  23629443.129    23629441.571
  -3491927.87448  -2720941.94544  24418731.953    24418728.588
 -26138825.45749 -20367887.08746  20243453.971    20243452.472
 99 12  9  5  5  0.0000000  0  7G30G10G24G 6G 4G 9G 5
 -20553052.12349 -16015355.46644  21285897.705    21285896.651
 -13646748.68749 -10633824.89544  21859971.124    21859969.337
 -16579640.92249 -12919175.64345  20928485.412    20928483.460
 -12238986.16149  -9536861.52844  23141248.404    23141246.658
  10783863.79349   8403010.90344  23666368.000    23666367.007
  -3308685.93348  -2578156.05444  24453601.504    24453598.613
 -26105388.53249 -20341832.35946  20249816.904    20249815.234
 99 12  9  5  6  0.0000000  0  7G30G10G24G 6G 4G 9G 5
 -20678543.59449 -16113141.02645  21262017.413    21262016.483
 -13801834.21849 -10754670.73944  21830459.840    21830457.587
 -16472609.63649 -12835774.64145  20948852.782    20948850.768
 -12373834.98549  -9641938.50544  23115588.099    23115585.863
  10978030.54949   8554309.65244  23703316.683    23703315.599
  -3125669.85148  -2435546.16944  24488427.688    24488425.626
 -26069800.10749 -20314101.13846  20256589.087    20256587.460
 99 12  9  5  7  0.0000000  0  7G30G10G24G 6G 4G 9G 5
 -20802375.30949 -16209633.26845  21238453.226    21238452.087
 -13955503.63349 -10874413.11344  21801217.376    21801215.099
 -16364414.59049 -12751466.81245  20969441.708    20969439.589
 -12508531.57549  -9746896.84844  23089955.531    23089953.990
  11172322.22349   8705705.74444  23740290.329    23740288.153
  -2942849.54448  -2293088.86144  24523217.392    24523215.025
 -26032007.33249 -20284652.23946  20263780.874    20263779.331
 99 12  9  5  8  0.0000000  0  7G30G10G24G 6G 4G 9G 5
 -20924456.50249 -16304761.47145  21215221.848    21215220.796
 -14107584.77949 -10992917.86644  21772277.371    21772275.147
 -16255005.69749 -12666213.13145  20990261.533    20990259.318
 -12643007.93449  -9851683.59444  23064365.801    23064363.924
  11366733.94849   8857195.36644  23777284.547    23777283.598
  -2760206.43348  -2150769.61544  24557973.230    24557970.921
 -25991974.07349 -20253457.50946  20271398.858    20271397.444
 99 12  9  5  9  0.0000000  0  7G30G10G24G 6G 4G 9G 5
 -21044768.96349 -16398511.44045  21192327.150    21192326.199
 -14257959.38849 -11110092.85544  21743661.846    21743659.698
 -16144381.49949 -12580012.45945  21011312.554    21011310.383
 -12777317.51949  -9956340.39344  23038807.717    23038805.646
  11561255.18249   9008770.31744  23814301.715    23814299.957
  -2577801.02748  -2008635.55744  24592684.571    24592681.502
 -25949719.11349 -20220531.58446  20279439.768    20279438.281
 99 12  9  5 10  0.0000000  0  7G30G10G24G 6G 4G 9G 5
 -21163355.12849 -16490916.24045  21169760.696    21169759.979
 -14406673.44649 -11225973.90844  21715362.563    21715360.265
 -16032666.37149 -12492961.71245  21032571.268    21032569.262
 -12911508.12649 -10060904.47944  23013272.344    23013270.125
  11755913.98449   9160452.49844  23851342.555    23851342.320
  -2395698.95849  -1866737.86644  24627337.003    24627334.854
 -25905307.00849 -20185924.76546  20287891.169    20287889.670
 99 12  9  5 11  0.0000000  0  7G30G10G24G 6G 4G 9G 5
 -21280239.46049 -16581994.94045  21147518.665    21147517.558
 -14553855.15949 -11340660.92644  21687354.849    21687352.567
 -15919922.16349 -12405109.08845  21054025.620    21054023.768
 -13045594.52349 -10165387.35844  22987756.393    22987754.514
  11950723.86549   9312252.34344  23888414.221    23888413.370
  -2213941.23248  -1725108.51844  24661924.503    24661921.781
 -25858844.64749 -20149720.35046  20296732.692    20296731.086
 99 12  9  5 12  0.0000000  0  7G30G10G24G 6G 4G 9G 5
 -21395359.46849 -16671698.84545  21125612.058    21125610.755
 -14699446.79249 -11454108.92644  21659649.530    21659647.369
 -15806112.75549 -12316426.43945  21075683.093    21075681.208
 -13179556.77049 -10269773.50044  22962263.771    22962262.046
  12145629.78849   9464127.07044  23925504.631    23925502.928
  -2032557.65048  -1583770.70944  24696440.190    24696437.996
 -25810359.55149 -20111939.77646  20305959.048    20305957.512
 99 12  9  5 13  0.0000000  0  7G30G10G24G 6G 4G 9G 5
 -21508663.57449 -16759987.75945  21104050.988    21104049.787
 -14843279.91249 -11566186.65344  21632278.820    21632276.803
 -15691170.58149 -12226861.11445  21097555.690    21097553.800
 -13313329.27349 -10374011.78244  22936808.223    22936805.781
  12340504.24249   9615977.26344  23962586.672    23962586.343
  -1851510.37548  -1442694.95244  24730892.630    24730890.139
 -25759780.37349 -20072527.44746  20315583.999    20315582.514
 99 12  9  5 14  0.0000000  0  7G30G10G24G 6G 4G 9G 5
 -21620096.12549 -16846818.32045  21082846.057    21082845.110
 -14985261.60049 -11676821.70244  21605260.723    21605258.651
 -15575057.09649 -12136383.07745  21119651.292    21119649.261
 -13446833.32149 -10478040.89844  22911402.796    22911401.120
  12535342.32849   9767799.13344  23999664.051    23999662.758
  -1670732.09948  -1301828.78444  24765293.824    24765291.319
 -25707039.52249 -20031430.69946  20325620.274    20325618.727
 99 12  9  5 15  0.0000000  0  7G30G10G24G 6G 4G 9G 5
 -21729659.48549 -16932192.36545  21061996.883    21061995.877
 -15125458.98849 -11786066.39344  21578582.040    21578579.998
 -15457933.30149 -12045117.78545  21141939.538    21141937.274
 -13580094.09649 -10581880.44944  22886044.456    22886042.216
  12730196.70249   9919633.65044  24036743.625    24036742.167
  -1490274.67648  -1161212.65644  24799635.153    24799631.130
 -25652158.92349 -19988666.61546  20336063.767    20336062.186
 99 12  9  5 16  0.0000000  0  7G30G10G24G 6G 4G 9G 5
 -21837316.15349 -17016080.68145  21041510.393    21041509.295
 -15263882.98749 -11893929.22144  21552240.733    21552238.615
 -15339897.82249 -11953142.09045  21164400.765    21164398.612
 -13713194.13649 -10685594.74544  22860716.644    22860714.176
  12925156.83549  10071550.61144  24073841.960    24073842.110
  -1310205.64147  -1020899.14644  24833900.559    24833896.936
 -25595064.64649 -19944177.59446  20346928.520    20346926.834
 99 12  9  5 17  0.0000000  0  6G30G10G24G 6G 4G 5
 -21943125.02649 -17098529.15445  21021375.598    21021374.577
 -15400593.46349 -12000456.83544  21526225.419    21526223.414
 -15220995.56149 -11860490.98045  21187027.104    21187025.118
 -13846216.14049 -10789248.24544  22835403.055    22835400.889
  13120127.88149  10223476.09644  24110945.691    24110943.871
 -25535815.43349 -19898009.39746  20358203.161    20358201.702
 99 12  9  5 18  0.0000000  0  7G30G 9G10G24G 6G 4G 5
 -22046690.80449 -17179229.76345  21001667.915    21001666.791
        -0.59757                                  24902227.998
 -15535190.36249 -12105337.51344  21500612.504    21500610.567
 -15100707.99549 -11766760.41445  21209917.142    21209915.011
 -13978723.61249 -10892500.80344  22810187.645    22810185.510
  13315319.43649  10375573.36044  24148088.037    24148087.945
 -25474112.47049 -19849929.18446  20369944.985    20369943.429
 99 12  9  5 19  0.0000000  0  7G30G 9G10G24G 6G 4G 5
 -22148452.92549 -17258524.92245  20982303.129    20982302.117
    178901.15446                                  24936272.077
 -15668066.14649 -12208877.06844  21475327.085    21475325.127
 -14979488.68549 -11672303.81245  21232984.455    21232982.329
 -14111172.34649 -10995707.59044  22784983.079    22784981.244
  13510271.19349  10527483.79644  24185186.165    24185186.201
 -25410466.68049 -19800335.08346  20382056.334    20382054.732
 99 12  9  5 20  0.0000000  0  7G30G 9G10G24G 6G 4G 5
 -22248577.64849 -17336544.18945  20963249.974    20963248.915
    357075.07946                                  24970177.625
 -15799324.15149 -12311156.00244  21450349.745    21450347.527
 -14857585.65349 -11577314.44345  21256181.549    21256179.593
 -14243743.26449 -11099009.61344  22759755.840    22759753.762
  13704977.59348  10679203.02544  24222237.913    24222237.403
 -25345034.35649 -19749348.87846  20394507.655    20394506.124
 99 12  9  5 21  0.0000000  0  7G30G 9G10G24G 6G 4G 5
 -22346766.77149 -17413055.19745  20944565.298    20944564.048
    534880.79546                                  25004012.758
 -15928602.56549 -12411892.40344  21425748.486    21425746.576
 -14734690.44349 -11481551.94245  21279567.786    21279565.727
 -14376091.54149 -11202138.12944  22734570.801    22734568.945
  13899804.01949  10831015.81144  24259313.220    24259312.111
 -25277435.42049 -19696674.40446  20407371.332    20407369.722
 99 12  9  5 22  0.0000000  0  8G30G 9G10G24G 6G 4G17G 5
 -22442950.01249 -17488003.18045  20926262.007    20926261.094
    712269.45746                                  25037769.025
 -16055917.57049 -12511098.87144  21401521.250    21401519.196
 -14610776.83049 -11384995.88645  21303147.755    21303145.825
 -14508112.67349 -11305011.72044  22709448.196    22709446.155
  14094619.69348  10982820.17844  24296384.419    24296383.834
        -1.02256                                  25648220.849
 -25207642.24749 -19642290.13746  20420652.662    20420651.036
 99 12  9  5 23  0.0000000  0  7G30G10G24G 6G 4G17G 5
 -22537134.94649 -17561394.03645  20908339.335    20908338.335
 -16181361.06649 -12608847.01644  21377650.231    21377648.217
 -14485925.70449 -11287709.29945  21326906.062    21326904.088
 -14639918.68549 -11407717.69744  22684366.106    22684364.014
  14289278.77548  11134502.55444  24333425.684    24333426.319
   -188337.96746                                  25612381.283
 -25135717.37249 -19586244.80246  20434339.432    20434337.860
 99 12  9  5 24  0.0000000  0  7G30G10G24G 6G 4G17G 5
 -22629575.83949 -17633425.90545  20890748.365    20890747.335
 -16305195.77749 -12705341.57544  21354085.212    21354083.290
 -14360533.39049 -11190001.00945  21350767.612    21350765.515
 -14771872.51749 -11510538.84644  22659256.354    22659254.042
  14483574.48549  11285901.78244  24370400.008    24370399.814
   -376631.07945                                  25576550.007
 -25062017.11649 -19528816.05446  20448364.218    20448362.684
 99 12  9  5 25  0.0000000  0  8G30G 9G10G24G 6G 4G17G 5
 -22719973.78749 -17703865.87445  20873546.419    20873545.243
        -0.23956                                  25138251.372
 -16427021.36949 -12800270.59244  21330902.645    21330900.620
 -14234332.38349 -11091662.56845  21374782.933    21374780.800
 -14903617.34949 -11613197.14144  22634186.295    22634183.915
  14677804.58048  11437249.86944  24407361.262    24407360.254
   -564411.60246                                  25540816.910
 -24986312.09549 -19469825.14945  20462770.380    20462768.814
 99 12  9  5 26  0.0000000  0  8G10G30G 9G24G 6G 4G17G 5
 -16546780.95649 -12893589.72645  21308113.160    21308111.057
 -22808326.50449 -17772712.15145  20856733.288    20856732.389
    174816.10345                                  25171518.067
 -14107188.76649 -10992589.62345  21398977.540    21398975.328
 -15035095.86149 -11715647.91344  22609166.596    22609164.450
  14871893.26448  11588487.79444  24444295.908    24444294.009
   -751573.31346                                  25505200.511
 -24908515.81849 -19409204.69745  20477574.522    20477572.911
 99 12  9  5 27  0.0000000  0  7G10G30G 9G24G 6G 4G 5
 -16664565.17449 -12985369.60644  21285699.533    21285697.365
 -22894632.71949 -17839963.75145  20840309.738    20840308.798
    349102.38745                                  25204683.605
 -13979050.31749 -10892741.48445  21423361.536    21423359.467
 -15166339.63449 -11817915.77344  22584191.954    22584189.525
  15065818.91348  11739598.63044  24481198.700    24481197.300
 -24828511.00249 -19346863.30745  20492798.962    20492797.295
 99 12  9  5 28  0.0000000  0  8G10G30G 9G24G 6G 4G17G 5
 -16780375.73049 -13075611.57445  21263661.448    21263659.474
 -22978811.10249 -17905557.29945  20824291.183    20824290.093
    522889.80245                                  25237754.200
 -13850018.74049 -10792197.40445  21447915.364    21447913.200
 -15297272.60349 -11919941.45044  22559275.974    22559273.933
  15259745.72548  11890710.38244  24518102.257    24518099.952
        -0.37956                                  25434224.182
 -24746266.83849 -19282776.97245  20508449.566    20508447.972
 99 12  9  5 29  0.0000000  0  7G10G30G24G 6G 4G17G 5
 -16894161.42249 -13164275.73145  21242008.828    21242006.710
 -23060832.41649 -17969470.01745  20808683.080    20808681.951
 -13720320.71949 -10691134.01745  21472596.252    21472593.978
 -15427916.79849 -12021742.10144  22534414.781    22534413.144
  15453673.69049  12041823.07044  24555005.552    24555003.458
   -185917.21446                                  25398845.226
 -24661943.21749 -19217070.27145  20524495.904    20524494.333
 99 12  9  5 30  0.0000000  0  7G10G30G24G 6G 4G17G 5
 -17006014.76149 -13251434.15045  21220723.817    21220721.757
 -23140850.59149 -18031821.84845  20793456.066    20793455.050
 -13590100.07649 -10589663.39045  21497376.424    21497374.068
 -15558470.41349 -12123472.17244  22509571.561    22509569.465
  15647287.03648  12192690.57444  24591848.829    24591847.130
   -371578.31946                                  25363515.127
 -24575765.46649 -19149918.79845  20540894.950    20540893.256
 99 12  9  5 31  0.0000000  0  7G10G24G30G 6G 4G17G 5
 -17115671.56249 -13336880.98645  21199856.625    21199854.745
 -13458972.56849 -10487486.11944  21522329.007    21522326.831
 -23218671.77549 -18092461.73845  20778647.388    20778646.123
 -15688736.47149 -12224978.17244  22484782.776    22484780.579
  15840693.57347  12343396.89644  24628652.066    24628651.005
   -556696.57346                                  25328288.155
 -24487482.67549 -19081127.03645  20557694.597    20557692.988
 99 12  9  5 32  0.0000000  0  7G10G24G30G 6G 4G17G 5
 -17223230.70849 -13420693.28645  21179388.847    21179386.889
 -13326998.36249 -10384649.08244  21547442.962    21547440.665
 -23294500.46449 -18151549.03545  20764217.497    20764216.404
 -15818874.15249 -12326384.14344  22460018.329    22460016.310
  16033834.21348  12493896.03844  24665405.012    24665404.329
   -741349.63546                                  25293149.722
 -24397247.60949 -19010814.01945  20574865.738    20574864.197
 99 12  9  5 33  0.0000000  0  7G10G24G30G 6G 4G17G 5
 -17328597.85749 -13502797.54045  21159338.194    21159336.161
 -13194272.59749 -10281226.41044  21572699.726    21572697.582
 -23368300.04049 -18209055.20245  20750173.841    20750172.909
 -15948800.02149 -12427625.06744  22435294.177    22435292.415
  16226833.18948  12644284.83444  24702132.473    24702130.976
   -925431.76546                                  25258119.831
 -24305033.93049 -18938959.22345  20592413.523    20592411.899
 99 12  9  5 34  0.0000000  0  7G10G24G 6G30G 4G17G 5
 -17431766.97749 -13583189.04445  21139705.739    21139703.700
 -13060859.02849 -10177267.78744  21598087.565    21598085.466
 -16078436.92149 -12528640.81944  22410625.236    22410623.322
 -23439933.89249 -18264873.79145  20736542.355    20736541.488
  16419699.55547  12794570.29844  24738831.553    24738832.185
  -1108890.92146                                  25223208.719
 -24210723.63449 -18865470.70045  20610360.214    20610358.538
 99 12  9  5 35  0.0000000  0  7G10G24G 6G30G 4G17G 5
 -17532821.60749 -13661932.89145  21120475.538    21120473.715
 -12926702.25249 -10072730.04644  21623616.651    21623614.628
 -16207770.35649 -12629420.10444  22386013.924    22386012.032
 -23509286.62049 -18318914.88245  20723345.067    20723344.025
  16612378.90947  12944709.98644  24775496.646    24775497.669
  -1291820.44347                                  25188398.495
 -24114259.84549 -18790304.13645  20628716.660    20628715.045
 99 12  9  5 36  0.0000000  0  7G10G24G 6G30G 4G17G 5
 -17631812.60949 -13739068.71645  21101638.105    21101636.320
 -12791813.36249  -9967621.82744  21649285.156    21649283.209
 -16336836.81149 -12729991.35444  22361452.838    22361451.303
 -23576407.33349 -18371216.74645  20710572.519    20710571.432
  16804778.65947  13094631.76344  24812112.571    24812110.018
  -1474321.04146                                  25153669.142
 -24015789.00949 -18713573.63645  20647454.969    20647453.379
 99 12  9  5 37  0.0000000  0  7G10G24G 6G30G 4G17G 5
 -17728667.59149 -13814540.11145  21083207.374    21083205.432
 -12656220.92249  -9861965.38844  21675087.564    21675085.651
 -16465627.82449 -12830347.97344  22336945.071    22336943.253
 -23641389.03149 -18421851.84145  20698206.756    20698205.740
  16996883.92648  13244324.14644  24848667.702    24848666.316
  -1656309.76747                                  25119038.389
 -23915439.21549 -18635379.01745  20666551.028    20666549.396
 99 12  9  5 38  0.0000000  0  8G10G24G 6G30G25G 4G17G 5
 -17823081.87849 -13888109.65745  21065240.887    21065238.861
 -12519695.52249  -9755581.96844  21701067.256    21701065.425
 -16593860.77149 -12930269.73644  22312542.867    22312541.080
 -23704004.18149 -18470642.86845  20686291.355    20686290.517
         0.08056                                  25435739.979
  17188988.20348  13394015.77744  24885224.343    24885222.726
  -1837500.83246                                  25084558.610
 -23812913.06549 -18555488.53445  20686061.126    20686059.466
 99 12  9  5 39  0.0000000  0  8G10G24G 6G30G25G 4G17G 5
 -17915390.12449 -13960038.13245  21047675.153    21047673.243
 -12382583.48749  -9648741.42744  21727158.733    21727156.821
 -16721810.55849 -13029970.85544  22288195.122    22288193.093
 -23764527.85549 -18517804.17545  20674774.323    20674773.222
    -50342.57446                                  25426159.578
  17380797.67648  13543477.65844  24921725.228    24921722.956
  -2018193.27247                                  25050173.907
 -23708464.12449 -18474099.77345  20705937.134    20705935.458
 99 12  9  5 40  0.0000000  0  8G10G24G 6G30G25G 4G17G 5
 -18005540.16149 -14030284.89445  21030520.012    21030518.259
 -12244943.49449  -9541489.48744  21753351.284    21753348.828
 -16849467.63449 -13129443.88544  22263902.668    22263900.941
 -23822832.45349 -18563236.33645  20663679.421    20663678.230
    -98906.57947                                  25416918.236
  17572355.34047  13692743.30644  24958175.149    24958175.301
  -2198350.38947                                  25015891.406
 -23602044.61849 -18391175.50045  20726188.076    20726186.425
 99 12  9  5 41  0.0000000  0  8G10G24G 6G30G25G 4G17G 5
 -18093505.99449 -14098829.67845  21013780.650    21013778.895
 -12106817.37449  -9433858.74744  21779635.646    21779633.297
 -16977002.71649 -13228821.85644  22239633.671    22239631.762
 -23878882.45649 -18606911.67145  20653013.394    20653012.339
   -145751.15447                                  25408004.954
  17763542.50647                                  24994556.927
  -2378082.73847                                  24981689.075
 -23493741.84049 -18306783.74745  20746797.419    20746795.773
 99 12  9  5 42  0.0000000  0  8G10G24G 6G30G25G 4G17G 5
 -18179305.94949 -14165686.76845  20997453.514    20997451.682
 -11968141.69949  -9325799.78444  21806024.755    21806022.432
 -17104515.09349 -13328182.13544  22215368.998    22215367.029
 -23932744.65849 -18648882.22645  20642763.719    20642762.677
   -190985.82947                                  25399397.183
  17954333.40846                                  25030862.982
  -2557513.41747                                  24947544.759
 -23383617.34149 -18220972.47245  20767753.435    20767751.743
 99 12  9  5 43  0.0000000  0  7G24G 6G30G25G10G17G 5
 -11828798.48849  -9217220.66444  21832540.920    21832538.686
 -17231753.73149 -13427329.11044  22191156.095    22191154.224
 -23984448.69449 -18689171.09545  20632924.732    20632923.720
   -234418.90347                                  25391131.997
 -18262811.72249 -14230756.17445  20981563.037    20981561.062
  -2736443.27947                                  24913495.615
 -23271546.69749 -18133644.72445  20789079.803    20789078.154
 99 12  9  5 44  0.0000000  0  7G24G 6G30G25G10G17G 5
 -11688873.04849  -9108187.86044  21859167.722    21859165.548
 -17358612.23149 -13526179.87944  22167015.604    22167013.886
 -24033965.99449 -18727756.01445  20623501.978    20623500.956
   -275911.58847                                  25383236.497
 -18344064.68149 -14294070.14145  20966100.984    20966099.172
  -2914711.79647                                  24879572.076
 -23157536.24249 -18044805.42645  20810775.361    20810773.649
 99 12  9  5 45  0.0000000  0  7G24G 6G30G25G10G17G 5
 -11548437.69249  -8998757.72144  21885891.755    21885889.631
 -17485086.85849 -13624731.52344  22142948.450    22142946.436
 -24081172.03649 -18764539.95345  20614518.948    20614517.989
   -315399.96847   -245760.05244  25375724.106    25375722.099
 -18423027.91849 -14355599.91545  20951074.769    20951073.020
  -3092266.94347  -2409557.31044  24845787.291    24845784.397
 -23041631.13049 -17954489.77445  20832831.182    20832829.546
 99 12  9  5 46  0.0000000  0  7G24G 6G30G25G10G17G 5
 -11407418.45149  -8888872.60544  21912726.711    21912724.789
 -17611251.99649 -13723042.00944  22118939.968    22118937.958
 -24126059.55149 -18799517.24845  20605977.069    20605976.196
   -352995.50846   -275052.96744  25368566.506    25368567.175
 -18499675.21449 -14415325.06545  20936489.215    20936487.422
  -3269165.28247  -2547400.12944  24812126.094    24812121.768
 -22923870.54549 -17862728.30345  20855240.431    20855238.651
 99 12  9  5 47  0.0000000  0  7G24G 6G30G25G10G17G 5
 -11265778.28349  -8778503.64644  21939679.987    21939678.217
 -17737138.65249 -13821135.49344  22094984.434    22094982.458
 -24168714.92949 -18832755.21645  20597860.188    20597859.082
   -388843.17246   -302985.38444  25361746.684    25361745.518
 -18574013.96949 -14473251.34745  20922343.071    20922341.166
  -3445561.03647  -2684851.35544  24778557.933    24778554.702
 -22804305.97349 -17769561.12945  20877992.876    20877991.130
 99 12  9  5 48  0.0000000  0  7G24G 6G30G25G10G17G 5
 -11123507.48449  -8667643.29044  21966753.236    21966751.329
 -17862623.27649 -13918915.70444  22071105.509    22071103.657
 -24209042.32549 -18864179.17645  20590186.178    20590185.128
   -422878.13347   -329506.27344  25355270.238    25355269.477
 -18645989.54249 -14529336.18545  20908646.524    20908644.506
  -3621475.93747  -2821927.84244  24745084.365    24745078.882
 -22682888.06249 -17674949.79045  20901097.855    20901096.208
 99 12  9  5 49  0.0000000  0  7G24G 6G30G25G10G17G 5
 -10980748.34849  -8556402.41644  21993919.341    21993917.557
 -17987759.22449 -14016424.22744  22047292.868    22047291.127
 -24246980.77949 -18893741.62045  20582966.624    20582965.659
   -455120.49147   -354630.72844  25349135.633    25349134.101
 -18715648.63149 -14583615.97345  20895390.658    20895388.979
  -3796942.53547  -2958655.00444  24711692.705    24711688.970
 -22559629.70549 -17578904.33745  20924553.217    20924551.519
 99 12  9  5 50  0.0000000  0  7G24G 6G30G25G10G17G 5
 -10837609.22149  -8444865.44744  22021157.948    22021155.890
 -18112622.80249 -14113720.51444  22023531.951    22023530.396
 -24282593.16549 -18921491.54345  20576189.803    20576188.912
   -485552.40247   -378348.83844  25343343.499    25343343.270
 -18782957.77549 -14636064.64345  20882582.104    20882580.409
  -3971854.15347  -3094949.71644  24678407.003    24678404.622
 -22434486.79549 -17481390.41045  20948367.062    20948365.414
 99 12  9  5 51  0.0000000  0  7G24G 6G30G25G10G17G 5
 -10694224.03249  -8333136.73744  22048443.335    22048441.402
 -18237359.81649 -14210918.17544  21999795.679    21999793.554
 -24316079.87149 -18947585.09245  20569817.567    20569816.547
   -514286.09247   -400747.13544  25337876.868    25337875.613
 -18848029.04049 -14686769.50345  20870199.666    20870197.690
  -4146232.11348  -3230828.61544  24645223.228    24645221.237
 -22307553.34649 -17382481.25245  20972521.758    20972519.985
 99 12  9  5 52  0.0000000  0  7G24G 6G 5G30G25G10G17
 -10550353.12049  -8221029.54944  22075820.961    22075819.070
 -18361740.32049 -14307838.03944  21976126.856    21976124.712
 -22178726.68649 -17282096.85645  20997036.745    20997034.974
 -24347237.49449 -18971863.77245  20563888.542    20563887.520
   -541140.26046   -421683.30244  25332765.743    25332764.526
 -18910716.18349 -14735616.60645  20858270.542    20858268.755
  -4319841.12848  -3366108.29144  24612186.353    24612184.308
 99 12  9  5 53  0.0000000  0  7G24G 6G 5G30G25G10G17
 -10405844.41349  -8108425.37144  22103319.986    22103318.198
 -18485541.14049 -14404306.19844  21952568.400    21952566.479
 -22047934.28849 -17180180.73145  21021925.780    21021923.911
 -24375880.62649 -18994183.10845  20558437.887    20558436.885
   -566037.85046   -441095.91144  25328027.987    25328027.006
 -18970884.36349 -14782500.88145  20846820.888    20846819.104
  -4492564.11648  -3500697.58844  24579317.802    24579316.441
 99 12  9  5 54  0.0000000  0  7G24G 6G 5G30G25G10G17
 -10260801.02749  -7995404.56044  22130921.103    22130918.910
 -18608777.18349 -14500334.27544  21929117.149    21929115.369
 -21915324.93649 -17076848.80345  21047160.513    21047158.692
 -24402098.66049 -19014612.75845  20553448.743    20553447.754
   -589031.85446   -459024.23444  25323651.995    25323651.404
 -19028619.61449 -14827489.36845  20835834.239    20835832.465
  -4664548.10448  -3634711.03744  24546591.892    24546589.068
 99 12  9  5 55  0.0000000  0  8G24G 6G30G25G10G13G17G 5
 -10115145.62249  -7881906.85644  22158638.326    22158636.010
 -18731382.52749 -14595870.89844  21905786.259    21905784.082
 -24425811.99249 -19033090.68945  20548936.171    20548935.179
   -609950.22247   -475330.24144  25319671.907    25319671.375
 -19083778.56749 -14870470.35045  20825337.904    20825336.065
        -0.32156                                  25399210.277
  -4835758.95848  -3768122.05844  24514010.802    24514008.361
 -21780829.10149 -16972046.88145  21072754.146    21072752.336
 99 12  9  5 56  0.0000000  0  8G24G 6G30G25G10G13G17G 5
  -9969379.54749  -7768322.90844  22186376.509    22186374.287
 -18853936.98049 -14691367.86644  21882464.658    21882462.853
 -24447529.62949 -19050013.53945  20544803.707    20544802.492
   -629356.05647   -490451.56644  25315979.491    25315978.752
 -19136806.36349 -14911790.69345  20815246.993    20815245.141
   -102893.40847                                  25379630.111
  -5006654.35748  -3901287.25844  24481491.323    24481488.006
 -21644965.81349 -16866179.40545  21098608.076    21098606.326
 99 12  9  5 57  0.0000000  0  8G24G30G25G10G 6G13G17G 5
  -9823293.02749  -7654489.26744  22214176.058    22214173.726
 -24466986.27049 -19065174.57345  20541101.083    20541100.135
   -647070.41247   -504247.75644  25312608.972    25312608.102
 -19187520.36649 -14951308.08345  20805596.399    20805594.529
 -18976236.50549 -14786666.19244  21859192.031    21859190.088
   -204878.44847                                  25360223.350
  -5176995.93648  -4034020.93444  24449076.678    24449073.112
 -21507510.93049 -16759071.72545  21124764.829    21124763.178
 99 12  9  5 58  0.0000000  0  8G30G25G10G24G 6G13G17G 5
 -24484045.67049 -19078467.62345  20537854.696    20537853.870
   -662968.83647   -516596.90244  25309582.496    25309581.770
 -19235851.83849 -14988968.96045  20796399.279    20796397.506
  -9676854.38349  -7540381.24444  22242042.028    22242039.847
 -19098157.82049 -14881669.80344  21835991.245    21835989.293
   -305889.81147                                  25341001.482
  -5346707.50248  -4166263.66544  24416781.081    24416778.053
 -21368327.05849 -16650616.77945  21151250.763    21151249.009
 99 12  9  5 59  0.0000000  0  8G24G30G25G10G 6G13G17G 5
  -9530021.54849  -7425966.06044  22269983.501    22269981.454
 -24498713.96549 -19089897.47345  20535063.441    20535062.405
   -677052.48046   -527480.68645  25306902.536    25306901.507
 -19281761.81649 -15024742.95745  20787662.815    20787661.036
 -19219595.49149 -14976296.55544  21812882.346    21812880.402
   -405910.32048                                  25321968.430
  -5515756.03049  -4297989.75344  24384611.615    24384609.396
 -21227426.86849 -16540824.44945  21178063.237    21178061.394
 99 12  9  6  0  0.0000000  0  8G30G25G10G24G 6G13G17G 5
 -24511026.68349 -19099491.81445  20532720.508    20532719.371
   -689388.86946   -537099.03845  25304554.517    25304553.372
 -19325198.68449 -15058589.86045  20779397.010    20779395.229
  -9382787.60249  -7311238.32544  22298001.471    22297999.277
 -19340568.56849 -15070561.28344  21789861.865    21789859.986
   -504877.83247                                  25303135.071
  -5684136.32149  -4429195.15344  24352570.862    24352567.765
 -21084786.07849 -16429675.81045  21205206.927    21205205.010
 99 12  9  6  1  0.0000000  0  8G30G25G10G24G 6G13G17G 5
 -24520866.53349 -19107159.24645  20530848.069    20530846.977
   -699904.33646   -545379.05044  25302555.618    25302554.444
 -19366136.28749 -15090489.28045  20771606.943    20771604.955
  -9235108.00749  -7196163.32444  22326103.650    22326101.668
 -19461090.88149 -15164474.77144  21766927.283    21766925.259
   -602655.71546                                  25284527.652
  -5851821.74349  -4559859.10244  24320661.207    24320658.253
 -20940310.49349 -16317097.46445  21232699.677    21232697.911
 99 12  9  6  2  0.0000000  0  8G30G25G10G24G 6G13G17G 5
 -24528183.18949 -19112860.55245  20529455.825    20529454.766
   -708507.89746   -552115.32944  25300917.255    25300916.368
 -19404754.19549 -15120581.14745  20764258.052    20764256.344
  -9087098.76449  -7080831.45344  22354269.116    22354266.858
 -19581241.87949 -15258098.92144  21744063.125    21744061.329
   -699289.67448   -544900.14244  25266140.270    25266139.817
  -6018869.04949  -4690025.81144  24288872.135    24288870.282
 -20794065.93049 -16203140.68545  21260529.056    21260527.415
 99 12  9  6  3  0.0000000  0  8G30G25G10G24G 6G13G17G 5
 -24533006.64449 -19116619.10445  20528537.837    20528536.825
   -715146.82546   -557296.61544  25299655.327    25299653.929
 -19441052.92949 -15148865.86545  20757350.718    20757348.910
  -8938791.63349  -6965267.44244  22382491.001    22382489.132
 -19700962.36149 -15351387.60544  21721281.381    21721279.449
   -794804.96848   -619327.56944  25247964.586    25247964.005
  -6185270.72349  -4819689.43444  24257208.308    24257205.155
 -20646165.17349 -16087893.36745  21288673.748    21288671.986
 99 12  9  6  4  0.0000000  0  8G30G25G10G24G 6G13G17G 5
 -24535513.66749 -19118572.64745  20528060.780    20528059.833
   -719949.95446   -561037.02344  25298740.800    25298739.936
 -19474811.79649 -15175171.46845  20750926.470    20750924.832
  -8790167.10649  -6849456.17344  22410773.254    22410771.302
 -19820170.56849 -15444277.11344  21698596.559    21698594.659
   -889212.80847                                  25229998.181
  -6350981.34049  -4948814.57844  24225673.876    24225671.184
 -20496687.43749 -15971417.23145  21317118.466    21317116.589
 99 12  9  6  5  0.0000000  0  8G30G25G10G24G 6G13G17G 5
 -24535772.95649 -19118774.70745  20528011.531    20528010.488
   -723045.13146   -563440.01644  25298150.664    25298149.951
 -19505902.60049 -15199398.05645  20745010.148    20745008.359
  -8641220.90449  -6733394.20644  22439116.935    22439114.875
 -19938889.17149 -15536785.11444  21676005.087    21676003.330
   -982521.70348                                  25212242.528
  -6516005.30749  -5077404.66344  24194270.798    24194268.272
 -20345616.16249 -15853699.37745  21345866.439    21345864.588
 99 12  9  6  6  0.0000000  0  8G30G25G10G24G 6G13G17G 5
 -24533719.85449 -19117174.90645  20528402.120    20528401.310
   -724425.81846   -564504.04844  25297887.933    25297887.314
 -19534356.62449 -15221570.01245  20739595.553    20739593.832
  -8491931.43849  -6617064.76844  22467525.688    22467523.596
 -20057152.04749 -15628937.99844  21653500.314    21653498.516
  -1074726.09248   -837447.73444  25194695.310    25194696.465
  -6680325.49049  -5205446.33944  24163001.831    24162998.919
 -20192999.29249 -15734777.17445  21374908.503    21374906.459
 99 12  9  6  7  0.0000000  0  8G30G25G10G24G 6G13G17G 5
 -24529277.67349 -19113713.48445  20529247.541    20529246.640
   -724034.97546   -564187.68944  25297961.686    25297961.184
 -19560329.13249 -15241808.32245  20734653.153    20734651.412
  -8342323.65249  -6500487.29344  22495995.102    22495993.237
 -20174927.73249 -15720711.25644  21631088.404    21631086.718
  -1165793.85548   -908409.54444  25177368.949    25177366.933
  -6843949.28549  -5332945.38144  24131865.008    24131862.275
 -20038910.24249 -15614707.81845  21404230.437    21404228.658
 99 12  9  6  8  0.0000000  0  8G30G25G10G24G 6G13G17G 5
 -24522449.97549 -19108393.22145  20530546.855    20530545.850
   -721961.23346   -562563.48344  25298357.190    25298356.317
 -19583970.73949 -15260230.34245  20730154.339    20730152.562
  -8192539.40849  -6383772.30944  22524497.989    22524496.080
 -20292179.88449 -15812076.56344  21608776.157    21608774.512
  -1255707.36747   -978471.92844  25160260.004    25160255.705
  -7006946.57749  -5459956.23644  24100848.011    24100845.009
 -19883383.99049 -15493518.55645  21433826.173    21433824.468
 99 12  9  6  9  0.0000000  0  8G30G25G10G24G 6G13G17G 5
 -24513250.29649 -19101224.65845  20532297.511    20532296.578
   -718246.28646   -559665.06344  25299063.249    25299063.456
 -19605334.38949 -15276877.33045  20726088.931    20726087.142
  -8042691.78849  -6267007.95044  22553013.271    22553011.101
 -20408943.24049 -15903060.99244  21586556.766    21586555.143
  -1344437.39347                                  25143371.318
  -7169295.89049  -5586462.15544  24069953.742    24069951.254
 -19726333.58749 -15371141.63445  21463711.946    21463710.216
 99 12  9  6 10  0.0000000  0  8G30G25G10G24G 6G13G17G 5
 -24501598.59149 -19092145.42545  20534514.820    20534513.767
   -712735.74446   -555371.02944  25300113.600    25300112.155
 -19624310.19449 -15291663.65945  20722477.965    20722476.106
  -7892601.97849  -6150054.86244  22581574.207    22581572.240
 -20525246.28249 -15993686.74045  21564425.178    21564423.446
  -1431893.45448  -1115759.69944  25126728.205    25126729.568
  -7330911.35749  -5712396.28244  24039199.941    24039196.834
 -19567659.48549 -15247499.49945  21493906.685    21493904.910
 99 12  9  6 11  0.0000000  0  8G30G25G10G24G 6G13G17G 5
 -24487394.24449 -19081077.12545  20537217.818    20537216.688
   -705380.10046   -549640.82944  25301510.591    25301511.136
 -19640747.30049 -15304471.78745  20719349.932    20719348.352
  -7742116.12049  -6032793.17244  22610211.060    22610208.691
 -20641082.94149 -16083949.07045  21542382.202    21542380.371
  -1517981.24049                                  25110348.406
  -7491776.26049  -5837745.55744  24008587.744    24008585.034
 -19407395.33249 -15122618.37344  21524404.046    21524402.263
 99 12  9  6 12  0.0000000  0  8G30G25G10G24G 6G13G17G 5
 -24470697.45049 -19068066.65545  20540395.106    20540393.988
   -696297.00246                                  25303239.701
 -19654635.23349 -15315293.54945  20716707.224    20716705.500
  -7591344.55549  -5915308.85544  22638902.120    22638899.551
 -20756414.13649 -16173817.53145  21520435.301    21520433.437
  -1602712.54348  -1248865.57044  25094226.148    25094223.967
  -7651939.95649  -5962548.44044  23978110.109    23978106.699
 -19245674.30149 -14996602.01144  21555178.641    21555176.725
 99 12  9  6 13  0.0000000  0  8G30G25G10G24G 6G13G17G 5
 -24451637.95549 -19053215.11945  20544021.931    20544020.939
   -685508.55446                                  25305293.471
 -19666007.76349 -15324155.25145  20714543.188    20714541.354
  -7440399.54049  -5797689.38344  22667625.922    22667623.430
 -20871199.94449 -16263261.02145  21498592.286    21498590.405
  -1686120.88847                                  25078351.421
  -7811395.88549  -6086799.81744  23947765.961    23947763.243
 -19082515.50949 -14869465.32644  21586226.676    21586224.685
 99 12  9  6 14  0.0000000  0  7G30G25G10G24G 6G17G 5
 -24430353.10449 -19036629.54045  20548072.422    20548071.414
   -672973.55446                                  25307678.974
 -19674878.50949 -15331067.51445  20712855.076    20712853.326
  -7289271.81149  -5679927.53644  22696384.290    22696382.078
 -20985384.18949 -16352235.75545  21476863.654    21476861.894
  -7970123.48849  -6210483.65644  23917561.392    23917558.375
 -18917831.95749 -14741140.51344  21617565.013    21617563.095
 99 12  9  6 15  0.0000000  0  7G30G25G10G24G 6G17G 5
 -24406807.72949 -19018282.51545  20552553.070    20552551.956
   -658767.93746                                  25310381.216
 -19681283.91249 -15336058.73445  20711636.154    20711634.478
  -7137950.66249  -5562014.97044  22725179.917    22725177.658
 -21098949.20749 -16440727.97945  21455252.943    21455251.122
  -8128149.78949  -6333621.02544  23887489.904    23887486.834
 -18751660.78549 -14611656.51444  21649186.460    21649184.484
 99 12  9  6 16  0.0000000  0  8G30G25G10G24G 6G13G17G 5
 -24380744.99049 -18997973.90845  20557512.603    20557511.437
   -642823.79046                                  25313415.490
 -19685124.12749 -15339051.10645  20710905.470    20710903.722
  -6986382.62149  -5443910.02344  22754022.659    22754020.032
 -21211820.30549 -16528679.48145  21433774.274    21433772.666
        -0.23358        -0.15654  25032225.257    25032223.596
  -8285392.50949  -6456147.81744  23857567.708    23857564.798
 -18584056.54449 -14481055.83944  21681080.324    21681078.377
 99 12  9  6 17  0.0000000  0  8G30G25G10G24G 6G13G17G 5
 -24352196.42749 -18975728.29545  20562945.200    20562944.095
   -625161.67446                                  25316777.077
 -19686498.96349 -15340122.40145  20710643.768    20710642.033
  -6834669.02249  -5325691.66944  22782892.992    22782890.342
 -21324128.37049 -16616192.26245  21412402.807    21412401.035
    -78009.11748    -60786.24244  25017377.767    25017379.028
  -8441907.93449  -6578107.88644  23827783.934    23827781.086
 -18415190.84049 -14349472.21144  21713214.522    21713212.522
 99 12  9  6 18  0.0000000  0  8G30G25G10G24G 6G13G17G 5
 -24321272.25149 -18951631.55745  20568829.878    20568828.850
   -605842.65247                                  25320453.322
 -19685482.83949 -15339330.61045  20710837.204    20710835.417
  -6682782.51249  -5207338.56544  22811796.120    22811793.630
 -21435922.69149 -16703304.71945  21391129.110    21391127.419
   -154572.58347                                  25002808.488
  -8597748.02249  -6699541.70944  23798128.929    23798125.863
 -18245043.83049 -14216890.14944  21745592.395    21745590.493
 99 12  9  6 19  0.0000000  0  8G30G25G10G24G 6G13G17G 5
 -24288047.22649 -18925741.94845  20575152.361    20575151.470
   -584888.66447                                  25324440.513
 -19682037.77049 -15336646.13545  20711492.705    20711490.943
  -6530729.84149  -5088855.98244  22840730.053    22840728.124
 -21547161.94649 -16789984.65545  21369960.791    21369959.239
   -229720.99147                                  24988508.114
  -8752879.73149  -6820423.53244  23768607.838    23768604.982
 -18073485.28849 -14083208.20444  21778238.878    21778236.959
 99 12  9  6 20  0.0000000  0  8G30G25G10G24G 6G13G17G 5
 -24252442.01049 -18897997.64545  20581927.923    20581926.840
   -562242.91447   -438111.08244  25328752.837    25328750.464
 -19676097.63349 -15332017.45245  20712623.121    20712621.271
  -6378518.40249  -4970249.68744  22869695.235    22869692.994
 -21657794.52349 -16876191.85945  21348908.290    21348906.787
   -303496.47247                                  24974469.039
  -8907237.47249  -6940702.26544  23739234.669    23739231.701
 -17900479.23549 -13948398.32144  21811160.842    21811158.955
 99 12  9  6 21  0.0000000  0  8G30G25G10G24G 6G13G17G 5
 -24214346.01049 -18868312.47245  20589177.400    20589176.285
   -537885.30147   -419131.17944  25333388.035    25333385.512
 -19667653.82749 -15325437.85945  20714229.891    20714228.144
  -6226203.97649  -4851563.14544  22898679.712    22898677.483
 -21767789.88449 -16961902.53145  21327976.907    21327975.066
   -375840.08048                                  24960703.449
  -9060812.86249  -7060371.38444  23710009.862    23710007.194
 -17726070.50849 -13812495.43344  21844349.785    21844347.963
 99 12  9  6 22  0.0000000  0  8G30G25G10G24G 6G13G17G 5
 -24173884.56549 -18836784.09945  20596877.027    20596875.855
   -512016.20547   -398973.41044  25338310.478    25338308.307
 -19656829.75249 -15317003.51545  20716289.630    20716287.863
  -6073850.78549  -4732846.38944  22927671.720    22927669.267
 -21877249.72849 -17047195.91945  21307147.353    21307145.535
   -446742.35349   -348110.58344  24947211.458    24947211.777
  -9213762.43849  -7179552.85344  23680904.660    23680901.602
 -17550499.78849 -13675687.09944  21877759.918    21877757.921
 99 12  9  6 23  0.0000000  0  8G30G25G10G24G 6G13G17G 5
 -24131120.50449 -18803461.48345  20605014.729    20605013.620
   -484599.36647   -377609.53044  25343527.877    25343525.022
 -19643555.47149 -15306659.91645  20718815.636    20718813.879
  -5921350.66249  -4614015.15344  22956691.279    22956689.246
 -21986061.98949 -17131984.69645  21286441.183    21286439.398
   -516059.13848                                  24934020.513
  -9366031.21549  -7298203.83044  23651928.560    23651925.737
 -17373796.27549 -13537996.08444  21911385.401    21911383.253
 99 12  9  6 24  0.0000000  0  8G30G25G10G24G 6G13G17G 5
 -24086059.20549 -18768348.80645  20613589.610    20613588.563
   -455516.10546                                  25349059.323
 -19627739.93849 -15294336.11845  20721825.296    20721823.406
  -5768684.15349  -4495054.27144  22985743.313    22985740.822
 -22094086.05849 -17216159.29345  21265884.722    21265883.010
   -583766.84247                                  24921135.460
  -9517465.49449  -7416204.54844  23623112.180    23623108.984
 -17195846.79949 -13399334.19844  21945248.241    21945245.995
 99 12  9  6 25  0.0000000  0  8G30G25G10G24G 6G13G17G 5
 -24038672.94849 -18731424.47045  20622606.957    20622605.910
   -424718.61646                                  25354919.501
 -19609406.68549 -15280050.46445  20725313.833    20725312.149
  -5615910.70849  -4376010.04144  23014814.869    23014812.625
 -22201314.84249 -17299714.19145  21245479.771    21245477.985
   -649963.13648                                  24908538.812
  -9668089.41549  -7533573.81644  23594449.275    23594446.163
 -17016580.67849 -13259646.34544  21979361.526    21979359.280
 99 12  9  6 26  0.0000000  0  8G30G25G10G24G 6G13G17G 5
 -23988883.22349 -18692627.30745  20632081.676    20632080.638
   -392239.65446                                  25361099.636
 -19588579.48649 -15263821.47945  20729277.290    20729275.533
  -5463015.08849  -4256870.61844  23043909.874    23043907.745
 -22307831.56749 -17382714.23745  21225210.394    21225208.574
   -714632.38447                                  24896231.858
  -9817941.40849  -7650341.57444  23565933.260    23565930.195
 -16836019.80349 -13118949.59744  22013721.008    22013718.803
 99 12  9  6 27  0.0000000  0  7G30G10G24G 6G13G17G 5
 -23936747.03249 -18652001.72945  20642002.752    20642001.762
 -19565317.87649 -15245695.55045  20733703.694    20733701.943
  -5310024.26149  -4137657.02044  23073023.156    23073020.854
 -22413783.70749 -17465274.34545  21205048.233    21205046.811
   -777755.09248                                  24884221.203
  -9967091.42449  -7766562.34144  23537551.107    23537547.945
 -16654290.75649 -12977342.58744  22048302.802    22048300.769
 99 12  9  6 28  0.0000000  0  7G30G10G24G 6G13G17G 5
 -23882576.80549 -18609791.18845  20652311.134    20652310.004
 -19539963.43349 -15225938.83545  20738528.506    20738526.792
  -5157237.26249  -4018602.23144  23102097.316    23102095.118
 -22519463.27049 -17547622.05145  21184938.177    21184936.611
   -839611.68348                                  24872450.130
 -10115814.29749  -7882450.25944  23509250.494    23509246.976
 -16471729.61249 -12835087.18244  22083043.050    22083041.064
 99 12  9  6 29  0.0000000  0  7G30G10G24G 6G13G17G 5
 -23826004.31649 -18565708.75345  20663076.497    20663075.400
 -19512153.90549 -15204269.07145  20743820.417    20743818.736
  -5004315.65549  -3899442.56144  23131197.621    23131195.576
 -22624376.17749 -17629372.36845  21164973.961    21164972.291
   -899865.06548   -701193.07244  24860987.903    24860984.712
 -10263731.03449  -7997710.02944  23481102.317    23481099.460
 -16287965.74549 -12691894.58644  22118012.405    22118010.281
 99 12  9  6 30  0.0000000  0  7G30G10G24G 6G13G17G 5
 -23766780.57349 -18519560.40845  20674346.430    20674345.344
 -19481637.49849 -15180490.04545  20749627.583    20749625.775
  -4851084.82149  -3780041.93744  23160356.345    23160354.215
 -22728224.85549 -17710293.41945  21145212.169    21145210.402
   -958270.53248   -746703.80844  24849872.268    24849870.436
 -10410646.38849  -8112189.50544  23453145.535    23453142.304
 -16102831.59949 -12547634.24444  22153242.103    22153240.127
 99 12  9  6 31  0.0000000  0  7G30G10G24G 6G13G17G 5
 -23705100.99749 -18471498.43245  20686083.746    20686082.592
 -19448523.39449 -15154686.83745  20755928.987    20755927.144
  -4697734.86249  -3660548.49644  23189538.033    23189535.709
 -22831179.05049 -17790517.47345  21125620.734    21125618.874
  -1014900.91946   -790831.31844  24839098.705    24839091.971
 -10556674.14849  -8225977.34444  23425356.930    23425354.222
 -15916509.47049 -12402448.19144  22188697.894    22188696.046
 99 12  9  6 32  0.0000000  0  6G30G10G24G 6G17G 5
 -23641137.23149 -18421656.56645  20698255.570    20698254.439
 -19412919.15949 -15126943.27045  20762704.150    20762702.440
  -4544298.07249  -3540987.37944  23218735.816    23218733.916
 -22933328.13049 -17870114.16245  21106182.543    21106180.473
 -10701887.86549  -8339130.87744  23397723.276    23397721.009
 -15729038.40449 -12256366.85644  22224372.703    22224370.661
 99 12  9  6 33  0.0000000  0  7G 6G30G10G24G13G17G 5
 -23034701.84149 -17949106.66745  21086891.519    21086889.737
 -23574977.37849 -18370103.46245  20710845.497    20710844.307
 -19374898.62549 -15097316.87645  20769939.299    20769937.532
  -4390803.58749  -3421381.30544  23247945.080    23247943.128
        -0.43258        -0.34954  24818496.442    24818495.565
 -10846329.80149  -8451683.02244  23370236.906    23370234.544
 -15540433.67749 -12109402.15944  22260262.938    22260260.863
 99 12  9  6 34  0.0000000  0  7G 6G24G30G10G13G17G 5
 -23135117.44649 -18027352.59345  21067783.038    21067781.355
  -4237146.44249  -3301648.49144  23277184.621    23277182.698
 -23506424.49049 -18316685.65545  20723890.632    20723889.543
 -19334301.14149 -15065682.46745  20777664.649    20777662.953
    -51400.80248    -40052.58744  24808711.139    24808714.149
 -10989791.32649  -8563471.20344  23342937.380    23342934.491
 -15350610.57249 -11961488.09044  22296385.106    22296382.913
 99 12  9  6 35  0.0000000  0  7G 6G24G13G30G10G17G 5
 -23235004.19549 -18105186.42645  21048775.258    21048773.465
  -4083812.45449  -3182167.48644  23306364.418    23306361.691
   -101288.65748    -78926.23144  24799219.016    24799220.876
 -23435808.46949 -18261660.21645  20737328.435    20737327.260
 -19291593.80449 -15032404.01445  20785791.687    20785789.804
 -11132677.59949  -8674811.13844  23315746.846    23315744.014
 -15160096.29649 -11813035.44844  22332638.891    22332636.605
 99 12  9  6 36  0.0000000  0  7G 6G30G10G24G13G17G 5
 -23334223.82249 -18182500.42245  21029894.328    21029892.673
 -23363004.57149 -18204929.93545  20751182.624    20751181.399
 -19246737.27749 -14997450.86745  20794327.590    20794325.756
  -3930644.40149  -3062815.78544  23335510.325    23335508.312
   -149615.34047   -116583.32944  24790022.496    24790023.458
 -11274927.33249  -8785655.06744  23288677.690    23288674.746
 -14968667.74349 -11663870.37444  22369066.666    22369064.346
 99 12  9  6 37  0.0000000  0  8G 6G30G26G10G24G13G17G 5
 -23432541.18249 -18259111.35345  21011185.113    21011183.594
 -23287836.08949 -18146357.11845  20765486.738    20765485.632
        -0.31156                                  24586467.733
 -19199506.39749 -14960647.58245  20803315.302    20803313.476
  -3777350.18849  -2943365.78444  23364682.000    23364679.111
   -196176.54647   -152864.75244  24781165.143    24781162.855
 -11416458.36849  -8895938.97644  23261745.112    23261742.467
 -14776081.53849 -11513803.22544  22405714.478    22405712.398
 99 12  9  6 38  0.0000000  0  8G30G26G10G24G 6G13G17G 5
 -23210442.95049 -18086050.80345  20780214.164    20780213.073
   -169762.05846                                  24554163.054
 -19149951.89249 -14922033.67645  20812745.166    20812743.341
  -3624069.57049  -2823926.36344  23393850.198    23393847.581
 -23530089.47349 -18335123.00945  20992622.383    20992620.802
   -241067.14048   -187844.34344  24772623.416    24772620.774
 -11557433.25649  -9005789.52044  23234918.662    23234915.742
 -14582569.65749 -11363014.77744  22442538.285    22442536.497
 99 12  9  6 39  0.0000000  0  8G30G26G10G24G 6G13G17G 5
 -23130861.76949 -18024039.52445  20795358.046    20795356.803
   -339760.94646                                  24521813.494
 -19098065.72149 -14881602.88545  20822618.811    20822616.868
  -3470839.11549  -2704526.05244  23423008.208    23423006.443
 -23626870.70749 -18410536.96445  20974205.543    20974203.842
   -284324.30149   -221551.16144  24764391.221    24764390.292
 -11697754.84349  -9115130.99544  23208216.209    23208213.420
 -14388241.40349 -11211590.20744  22479518.502    22479515.981
 99 12  9  6 40  0.0000000  0  7G30G26G10G24G 6G17G 5
 -23049116.75349 -17960342.14245  20810913.621    20810912.425
   -509907.78147                                  24489435.496
 -19043852.59049 -14839358.87845  20832935.146    20832933.430
  -3317673.48649  -2585176.22544  23452155.898    23452152.804
 -23722871.16149 -18485342.51645  20955937.217    20955935.586
 -11837289.77049  -9223859.49744  23181663.614    23181660.900
 -14193096.52949 -11059529.29944  22516652.937    22516650.954
 99 12  9  6 41  0.0000000  0  7G30G26G10G24G 6G17G 5
 -22965290.42749 -17895022.95545  20826865.384    20826864.129
   -680287.19247                                  24457013.097
 -18987341.78649 -14795324.48545  20843688.838    20843687.082
  -3164622.90549  -2465916.05044  23481278.769    23481277.465
 -23818110.04749 -18559554.63945  20937813.878    20937812.317
 -11975983.60949  -9331932.59844  23155270.742    23155268.279
 -13997122.05749 -10906821.94744  22553945.945    22553943.568
 99 12  9  6 42  0.0000000  0  7G30G26G10G24G 6G17G 5
 -22879230.34349 -17827963.17645  20843241.986    20843240.864
   -850774.44547                                  24424570.481
 -18928442.07649 -14749428.59845  20854897.207    20854895.218
  -3011500.57349  -2346600.00044  23510419.005    23510416.023
 -23912384.73549 -18633015.43545  20919874.044    20919872.421
 -12113796.91749  -9439319.56644  23129046.088    23129043.210
 -13800148.71149 -10753336.25444  22591428.734    22591426.309
 99 12  9  6 43  0.0000000  0  7G30G26G10G24G 6G17G 5
 -22790942.51949 -17759167.49345  20860042.568    20860041.479
  -1021316.13447                                  24392117.623
 -18867171.32949 -14701685.14745  20866556.629    20866554.581
  -2858269.67649  -2227199.31944  23539576.427    23539574.799
 -24005605.48449 -18705654.98245  20902134.752    20902133.073
 -12250828.09849  -9546097.08744  23102969.878    23102966.992
 -13602171.83549 -10599068.60044  22629102.142    22629100.075
 99 12  9  6 44  0.0000000  0  7G30G26G10G24G 6G17G 5
 -22700429.32749 -17688637.75645  20877266.714    20877265.586
  -1191850.17647                                  24359665.992
 -18803569.89849 -14652125.58545  20878659.420    20878657.660
  -2705036.45249  -2107796.83144  23568735.534    23568733.773
 -24097784.20849 -18777482.56245  20884593.805    20884591.960
 -12387112.14549  -9652292.42144  23077035.972    23077032.876
 -13403314.97149 -10444115.23344  22666943.435    22666941.346
 99 12  9  6 45  0.0000000  0  7G30G26G10G24G 6G17G 5
 -22607691.59149 -17616374.60845  20894914.225    20894912.941
  -1362403.73047                                  24327210.750
 -18737690.87749 -14600791.28245  20891195.853    20891194.009
  -2551920.14149  -1988485.44044  23597873.501    23597871.268
 -24189099.16949 -18848637.08445  20867217.127    20867215.278
 -12522611.22549  -9757876.10444  23051251.084    23051248.465
 -13203746.18849 -10288607.12444  22704920.262    22704918.185
 99 12  9  6 46  0.0000000  0  7G30G26G10G24G 6G17G 5
 -22512759.60149 -17542401.65745  20912979.136    20912977.903
  -1533020.80947  -1194561.75544  24294745.380    24294743.228
 -18669527.34749 -14547676.83845  20904166.857    20904165.075
  -2398937.68449  -1869278.37644  23626983.311    23626982.989
 -24279609.12249 -18919164.32745  20849993.531    20849991.840
 -12657303.86749  -9862831.38644  23025620.292    23025617.587
 -13003481.94649 -10132557.11844  22743029.500    22743027.200
 99 12  9  6 47  0.0000000  0  7G30G26G10G24G 6G17G 5
 -22415654.01249 -17466734.98745  20931457.786    20931456.608
  -1703690.11447  -1327550.80444  24262267.342    24262265.756
 -18599020.09749 -14492736.12145  20917584.112    20917582.086
  -2245988.98149  -1750097.56444  23656091.236    23656088.402
 -24369158.70849 -18988943.23045  20832952.850    20832951.250
 -12791185.54749  -9967154.76244  23000143.181    23000140.423
 -12802373.83449  -9975849.55244  22781298.988    22781296.809
 99 12  9  6 48  0.0000000  0  7G30G26G10G24G 6G17G 5
 -22316460.40049 -17389441.28645  20950333.715    20950332.472
  -1874438.48448  -1460601.52644  24229773.777    24229773.656
 -18526183.98649 -14435980.70545  20931444.252    20931442.441
  -2093034.81249  -1630912.56644  23685195.774    23685194.350
 -24457612.35349 -19057868.15045  20816120.689    20816119.205
 -12924314.47149 -10070891.57744  22974809.383    22974806.533
 -12600461.56949  -9818515.36744  22819721.738    22819719.437
 99 12  9  6 49  0.0000000  0  7G30G26G10G24G 6G17G 5
 -22215165.02549 -17310509.85045  20969609.542    20969608.421
  -2045159.61948  -1593631.00744  24197287.993    24197286.597
 -18450994.99449 -14377391.88145  20945752.094    20945750.339
  -1939980.31149  -1511649.30444  23714321.944    23714319.800
 -24544935.85749 -19125912.43945  20799503.412    20799501.827
 -13056629.47249 -10173994.15844  22949630.598    22949627.778
 -12397703.61449  -9660522.19544  22858305.106    22858303.075
 99 12  9  6 50  0.0000000  0  8G30G26G10G24G 6G23G17G 5
 -22111830.85249 -17229989.73645  20989273.390    20989272.185
  -2215805.57949  -1726601.89344  24164814.566    24164813.689
 -18373571.43949 -14317061.84245  20960485.396    20960483.578
  -1786923.17249  -1392384.06744  23743446.230    23743445.305
 -24631334.96949 -19193236.42345  20783062.268    20783060.547
         0.10956                                  24796236.900
 -13188140.48249 -10276470.24244  22924604.967    22924602.223
 -12194229.30249  -9501970.82044  22897025.580    22897023.041
 99 12  9  6 51  0.0000000  0  8G30G26G10G24G 6G23G17G 5
 -22006360.32749 -17147804.93745  21009343.755    21009342.430
  -2386237.54949  -1859406.04444  24132383.330    24132381.773
 -18293960.05549 -14255026.99945  20975635.113    20975633.071
  -1633967.08349  -1273197.50544  23772554.186    23772551.448
 -24716804.09749 -19259835.74845  20766798.020    20766796.370
   -213835.79146                                  24755545.132
 -13318799.78749 -10378282.67444  22899741.508    22899738.860
 -11990077.53449  -9342891.54844  22935874.044    22935871.820
 99 12  9  6 52  0.0000000  0  8G30G26G10G24G 6G23G17G 5
 -21898752.27249 -17063954.53245  21029820.863    21029819.705
  -2556507.57749  -1992084.01244  24099982.097    24099980.407
 -18212260.29149 -14191364.84345  20991182.000    20991180.134
  -1481209.30949  -1154165.51944  23801623.478    23801621.247
 -24801299.34949 -19325676.20545  20750719.143    20750717.442
   -427379.02246                                  24714908.914
 -13448667.54049 -10479478.31044  22875028.310    22875025.788
 -11785301.58849  -9183325.91344  22974841.768    22974839.219
 99 12  9  6 53  0.0000000  0  8G30G26G10G24G 6G23G17G 5
 -21789146.10049 -16978547.15045  21050678.223    21050677.139
  -2726763.81849  -2124751.21244  24067582.979    24067581.614
 -18128485.23749 -14126085.58445  21007123.891    21007122.025
  -1328646.54949  -1035285.43944  23830654.786    23830651.927
 -24884759.15349 -19390709.82145  20734837.437    20734835.594
   -640644.39646                                  24674325.763
 -13577795.16549 -10580097.22644  22850456.373    22850453.447
 -11579922.07249  -9023289.96244  23013924.097    23013921.678
 99 12  9  6 54  0.0000000  0  8G30G26G10G24G 6G23G17G 5
 -21677651.66249 -16891668.38945  21071895.155    21071893.963
  -2897000.75549  -2257403.38944  24035188.709    24035186.485
 -18042589.47949 -14059153.83345  21023468.958    21023467.280
  -1176205.78349   -916500.51444  23859663.147    23859661.080
 -24967147.56149 -19454908.58645  20719159.513    20719157.749
   -853696.49846                                  24633777.549
 -13706206.76349 -10680158.20344  22826020.594    22826017.646
 -11373968.92049  -8862807.01644  23053115.994    23053113.412
 99 12  9  6 55  0.0000000  0  7G30G26G10G24G 6G17G 5
 -21564313.29649 -16803352.80445  21093462.815    21093461.411
  -3067150.31249  -2389987.48344  24002809.798    24002808.263
 -17954507.69649 -13990518.68245  21040230.511    21040228.700
  -1023924.19049   -797839.54744  23888640.409    23888639.051
 -25048508.31849 -19518306.58345  20703676.994    20703675.286
 -13833944.29549 -10779693.93244  22801712.814    22801709.709
 -11167540.73349  -8701953.91344  23092397.929    23092395.484
 99 12  9  6 56  0.0000000  0  8G30G26G10G24G 6G23G17G 5
 -21448880.40049 -16713405.11845  21115428.890    21115427.599
  -3236980.68649  -2522322.84644  23970492.199    23970490.597
 -17864109.82549 -13920078.78245  21057432.690    21057431.029
   -871649.15249   -679183.73144  23917618.867    23917616.068
 -25128780.90349 -19580856.65545  20688401.617    20688399.858
         0.24657                                  24552867.813
 -13960824.11449 -10878561.30544  22777568.053    22777565.364
 -10960478.07249  -8540606.41644  23131800.534    23131798.294
 99 12  9  6 57  0.0000000  0  8G30G26G10G24G 6G23G17G 5
 -21331277.33449 -16621766.40245  21137808.134    21137806.720
  -3406499.11349  -2654415.12044  23938234.132    23938232.354
 -17771553.76649 -13847957.18045  21075045.761    21075043.806
   -719349.68649   -560508.82344  23946600.301    23946597.778
 -25208018.29649 -19642600.08245  20673323.170    20673321.547
   -211952.27947   -165157.60044  24512538.566    24512534.534
 -14086799.50049 -10976723.92044  22753596.137    22753593.173
 -10752771.49149  -8378757.16244  23171325.832    23171323.491
 99 12  9  6 58  0.0000000  0  8G30G26G10G24G 6G23G17G 5
 -21211740.35549 -16528620.72845  21160555.156    21160553.954
  -3575891.60149  -2786409.25044  23905999.865    23905997.920
 -17677102.94849 -13774359.13545  21093019.171    21093017.018
   -567212.95549   -441960.78444  23975552.598    23975548.046
 -25286222.22349 -19703538.21345  20658441.418    20658439.849
   -423680.35347   -330140.50444  24472249.755    24472244.127
 -14212057.68149 -11074327.67644  22729760.154    22729757.305
 -10544572.40949  -8216524.14844  23210944.184    23210942.387
 99 12  9  6 59  0.0000000  0  8G30G26G10G24G 6G23G17G 5
 -21090403.97149 -16434072.92345  21183644.646    21183643.466
  -3745153.40849  -2918301.55044  23873790.336    23873788.436
 -17580717.01149 -13699253.21245  21111360.546    21111358.694
   -415264.66349   -323559.56644  24004464.886    24004464.167
 -25363219.67449 -19763536.22845  20643789.251    20643787.789
   -635131.46747   -494907.62844  24432009.888    24432006.406
 -14336698.06449 -11171450.03344  22706042.006    22706039.058
 -10335857.31449  -8053889.04244  23250662.028    23250659.705
 99 12  9  7  0  0.0000000  0  8G30G26G10G24G 6G23G17G 5
 -20967246.60449 -16338106.16345  21207080.917    21207079.622
  -3914190.43349  -3050018.67644  23841623.443    23841621.665
 -17482269.20449 -13622540.64145  21130094.517    21130092.785
   -263412.93549   -205233.60144  24033363.733    24033359.305
 -25439022.97449 -19822603.73445  20629364.228    20629362.986
   -846169.41547   -659352.84844  24391849.788    24391847.202
 -14460654.60149 -11268039.51944  22682453.696    22682450.797
 -10126567.33048  -7890805.99144  23290487.862    23290486.049
 99 12  9  7  1  0.0000000  0  8G30G26G10G24G 6G23G17G 5
 -20842163.11249 -16240638.53745  21230883.498    21230882.173
  -4082858.76448  -3181448.51844  23809527.073    23809525.329
 -17381674.43849 -13544155.11445  21149237.163    21149235.287
   -111577.29049    -86920.16344  24062255.908    24062253.838
 -25513773.53149 -19880850.91945  20615139.872    20615138.380
  -1056740.56347   -823434.32944  24351780.581    24351776.805
 -14583794.43349 -11363992.60744  22659020.649    22659017.984
  -9916775.54248  -7727331.92544  23330410.893    23330408.124
 99 12  9  7  2  0.0000000  0  8G30G26G10G24G 6G23G17G 5
 -20715155.19249 -16141671.35645  21255052.502    21255050.984
  -4251085.35547  -3312534.10244  23777513.202    23777512.587
 -17278909.83249 -13464078.79645  21168792.818    21168790.616
     40193.81648     31343.04044  24091138.004    24091134.070
 -25587444.29249 -19938256.71045  20601120.974    20601119.199
  -1266832.92447   -987142.73844  24311799.884    24311797.683
 -14706074.68649 -11459275.90544  22635751.265    22635748.743
  -9706606.28649  -7563563.70544  23370405.134    23370402.183
 99 12  9  7  3  0.0000000  0  8G30G26G10G24G 6G23G17G 5
 -20586301.36149 -16041265.80445  21279572.327    21279571.059
  -4418860.25747  -3443267.74644  23745587.786    23745586.062
 -17174061.29349 -13382378.63345  21188744.720    21188742.627
    191811.86249    149486.87444  24119988.766    24119986.987
 -25659942.95049 -19994749.18045  20587324.875    20587323.082
  -1476483.03047  -1150506.52244  24271906.169    24271902.501
 -14827583.83349 -11553958.33744  22612629.175    22612626.333
  -9496111.95449  -7399542.19344  23410460.378    23410457.686
 99 12  9  7  4  0.0000000  0  8G30G26G10G24G 6G23G17G 5
 -20455610.92149 -15939429.12545  21304442.057    21304440.664
  -4586254.34347  -3573704.61944  23713733.534    23713732.280
 -17067280.91749 -13299173.15045  21209064.341    21209062.318
    343221.70748    267468.56944  24148799.074    24148798.231
 -25731282.21849 -20050338.22645  20573749.475    20573747.726
  -1685749.00948  -1313570.95744  24232083.731    24232081.006
 -14948355.23449 -11648065.90944  22589647.166    22589644.296
  -9285247.55949  -7235232.31144  23450586.825    23450584.220
 99 12  9  7  5  0.0000000  0  8G30G26G10G24G 6G23G17G 5
 -20323068.74749 -15836149.53945  21329664.076    21329662.513
  -4753345.70948  -3703905.63144  23681938.138    23681935.732
 -16958640.91749 -13214518.61145  21229737.831    21229735.845
    494414.11349    385280.80344  24177572.819    24177570.594
 -25801455.56249 -20105018.75845  20560395.925    20560394.261
  -1894649.97348  -1476350.95844  24192331.185    24192328.531
 -15068358.91749 -11741575.25444  22566811.201    22566808.463
  -9073913.43349  -7070556.43144  23490802.660    23490799.693
 99 12  9  7  6  0.0000000  0  8G30G26G10G24G 6G23G17G 5
 -20188680.40749 -15731431.38445  21355237.248    21355235.889
  -4920058.76048  -3833811.89244  23650213.760    23650211.153
 -16848105.42049 -13128387.06045  21250772.077    21250770.047
    645465.93448    502983.42644  24206315.605    24206313.347
 -25870376.18349 -20158723.14145  20547280.693    20547279.229
  -2103092.08048  -1638773.38844  24152667.811    24152663.485
 -15187571.44949 -11834468.11644  22544125.681    22544123.082
  -8862167.67249  -6905559.79044  23531096.347    23531093.400
 99 12  9  7  7  0.0000000  0  8G30G26G10G24G 6G23G17G 5
 -20052448.70349 -15625276.83945  21381161.240    21381159.948
  -5086191.28049  -3963265.79644  23618597.770    23618597.199
 -16735598.82749 -13040719.58945  21272181.424    21272179.338
    796498.59549    620671.21944  24235057.411    24235055.295
 -25937966.47349 -20211390.89845  20534418.706    20534417.154
  -2310873.61348  -1800681.07644  24113125.890    24113123.682
 -15306016.28249 -11926762.76644  22521586.688    22521583.659
  -8650100.80249  -6740312.93844  23571451.232    23571448.674
 99 12  9  7  8  0.0000000  0  8G30G26G10G24G 6G23G17G 5
 -19914370.85949 -15517683.74345  21407436.595    21407435.375
  -5251679.63449  -4092217.76744  23587107.876    23587105.924
 -16621074.02749 -12951479.48645  21293974.649    21293972.639
    947447.58448    738293.74044  24263781.453    24263779.165
 -26004312.76549 -20263089.31045  20521793.382    20521791.834
  -2517997.42248  -1962076.22144  24073713.801    24073709.027
 -15423760.27549 -12018511.31044  22499180.814    22499177.761
  -8437747.79949  -6574843.11644  23611860.248    23611858.293
 99 12  9  7  9  0.0000000  0  8G30G26G10G24G 6G23G17G 5
 -19774492.97449 -15408688.00645  21434054.473    21434053.300
  -5416573.04549  -4220706.13544  23555729.888    23555727.840
 -16504565.24249 -12860693.42245  21316145.379    21316143.597
   1098176.09449    855744.47444  24292464.463    24292462.061
 -26069472.50649 -20313863.14045  20509393.888    20509392.328
  -2724590.14949  -2123057.54044  24034398.876    24034395.915
 -15540817.74549 -12109724.90644  22476905.249    22476902.229
  -8225050.14249  -6409104.73044  23652335.403    23652333.295
 99 12  9  7 10  0.0000000  0  8G30G26G10G24G 6G23G17G 5
 -19632944.38849 -15298390.43644  21460990.417    21460989.004
  -5580921.50649  -4348769.85844  23524454.910    23524453.278
 -16386153.45049 -12768424.49844  21338678.378    21338676.586
   1248699.89848    973035.76144  24321107.115    24321105.021
 -26133395.78849 -20363673.49545  20497229.765    20497228.246
  -2930682.64148  -2283649.01144  23995181.179    23995177.419
 -15657079.15149 -12200318.19144  22454781.490    22454778.549
  -8012042.88049  -6243125.10444  23692869.517    23692867.172
 99 12  9  7 11  0.0000000  0  8G30G26G10G24G 6G23G17G 5
 -19489785.96149 -15186838.44144  21488232.488    21488231.112
  -5744678.82549  -4476372.93544  23493292.998    23493291.209
 -16265868.04749 -12674695.61844  21361567.999    21361566.083
   1399110.20949   1090238.50444  24349729.600    24349728.552
 -26196022.95649 -20412473.88745  20485312.156    20485310.549
  -3136150.65148  -2443753.88244  23956082.158    23956078.032
 -15772473.32449 -12290235.71844  22432822.737    22432819.714
  -7798783.58649  -6076949.08244  23733451.880    23733448.999
 99 12  9  7 12  0.0000000  0  8G30G26G10G24G 6G23G17G 5
 -19344939.18249 -15073970.84944  21515796.129    21515794.665
  -5907764.21749  -4603452.43444  23462258.612    23462257.063
 -16143735.56149 -12579527.45245  21384809.316    21384807.175
   1549444.17948   1207381.81644  24378336.397    24378335.539
 -26257330.49349 -20460245.99945  20473645.767    20473644.229
  -3340899.33248  -2603298.22844  23917119.188    23917115.764
 -15887072.67549 -12379533.89344  22411015.103    22411012.320
  -7585250.22649  -5910559.51344  23774085.815    23774083.207
 99 12  9  7 13  0.0000000  0  8G30G26G10G24G 6G23G17G 5
 -19198361.38149 -14959754.41544  21543688.849    21543687.490
  -6070171.97749  -4730003.88944  23431353.158    23431351.735
 -16019772.15849 -12482932.59745  21408398.718    21408396.792
   1699671.47248                                  24406923.339
 -26317277.94749 -20506958.30645  20462238.154    20462236.683
  -3544945.83149  -2762295.43244  23878291.108    23878287.071
 -16000956.50749 -12468274.52244  22389343.948    22389340.973
  -7371431.81149  -5743947.81944  23814773.717    23814771.486
 99 12  9  7 14  0.0000000  0  8G30G26G10G24G 6G23G17G 5
 -19050139.44649 -14844256.82444  21571894.545    21571893.263
  -6232021.71249  -4856120.51344  23400554.551    23400553.093
 -15894036.83249 -12384957.02144  21432325.217    21432323.262
   1849729.23048                                  24435477.635
 -26375859.93449 -20552606.61045  20451090.246    20451088.829
  -3748432.54349  -2920856.46244  23839567.173    23839564.932
 -16114106.03949 -12556442.96944  22367812.183    22367809.147
  -7157469.61849  -5577224.08244  23855489.963    23855487.278
 99 12  9  7 15  0.0000000  0  8G30G26G10G24G 6G23G17G 5
 -18900351.13649 -14727538.68744  21600398.497    21600397.064
  -6393348.35449  -4981829.54444  23369855.699    23369853.481
 -15766513.78449 -12285588.41544  21456592.133    21456590.090
   1999629.79349                                  24464003.655
 -26433090.44449 -20597201.81445  20440199.717    20440198.217
  -3951371.26149  -3078990.48844  23800949.019    23800947.022
 -16226408.72549 -12643951.53244  22346441.717    22346438.688
  -6943437.15949  -5410445.61944  23896217.981    23896216.551
 99 12  9  7 16  0.0000000  0  8G30G26G10G24G 6G23G17G 5
 -18748963.87449 -14609574.61044  21629206.479    21629204.990
  -6554018.67049  -5107027.14344  23339280.850    23339278.836
 -15637127.67249 -12184768.07644  21481213.329    21481211.487
   2149401.37348                                  24492503.678
 -26488973.23249 -20640746.84645  20429565.555    20429564.148
  -4153615.72349  -3236583.54844  23762463.825    23762461.254
 -16337869.89949 -12730804.37444  22325231.169    22325228.072
  -6729278.41548  -5243568.74344  23936972.196    23936969.546
 99 12  9  7 17  0.0000000  0  8G30G26G10G24G 6G23G17G 5
 -18595966.43149 -14490355.84444  21658320.686    21658319.560
  -6713853.55849  -5231573.76244  23308864.811    23308863.245
 -15505916.14549 -12082525.33344  21506182.033    21506180.273
   2298996.13848   1791458.07444  24520971.537    24520970.129
 -26543556.69049 -20683279.41745  20419178.775    20419177.219
  -4355091.95749  -3393577.97544  23724123.296    23724121.342
 -16448602.39349 -12817089.41744  22304159.553    22304156.431
  -6514963.32148  -5076570.03544  23977754.804    23977752.184
 99 12  9  7 18  0.0000000  0  8G30G26G10G24G 6G23G17G 5
 -18441370.94449 -14369891.84944  21687739.435    21687738.173
  -6872729.29249  -5355372.98644  23278632.929    23278630.090
 -15372986.80749 -11978944.04044  21531477.771    21531475.868
   2448377.10449   1907858.75744  24549398.612    24549397.447
 -26596816.54549 -20724780.61545  20409043.793    20409042.205
  -4555857.52049  -3550018.62644  23685919.279    23685916.653
 -16558613.37749 -12902812.24244  22283225.098    22283222.125
  -6300481.57448  -4909441.47844  24018571.309    24018567.094
 99 12  9  7 19  0.0000000  0  8G30G26G10G24G 6G23G17G 5
 -18285225.24249 -14248219.90144  21717453.139    21717451.717
  -7030692.67249  -5478461.28544  23248571.987    23248570.644
 -15238411.98749 -11874080.54844  21557086.642    21557084.559
   2597578.87748   2024119.82444  24577791.326    24577789.100
 -26648712.38849 -20765218.93545  20399168.400    20399166.919
  -4755958.99849  -3705941.77944  23647840.987    23647838.630
 -16667878.06649 -12987953.54344  22262432.576    22262429.879
  -6085909.35647  -4742242.36244  24059401.346    24059398.766
 99 12  9  7 20  0.0000000  0  8G30G26G10G24G 6G23G17G 5
 -18127592.13049 -14125388.93944  21747449.724    21747448.332
  -7187894.03249  -5600955.78944  23218657.711    23218656.214
 -15102157.76249 -11767908.42844  21583014.927    21583012.902
   2746645.87348   2140275.81344  24606156.546    24606155.658
 -26699130.33149 -20804505.64945  20389573.976    20389572.568
  -4955343.92049  -3861306.59444  23609900.170    23609897.100
 -16776430.99149 -13072540.21944  22241775.676    22241773.003
  -5871344.81947  -4575049.23544  24100230.737    24100228.734
 99 12  9  7 21  0.0000000  0  8G30G26G10G24G 6G23G17G 5
 -17968578.66749 -14001482.36844  21777708.942    21777707.580
  -7344428.37649  -5722930.54444  23188870.021    23188868.938
 -14964257.60849 -11660453.76444  21609256.579    21609254.391
   2895473.76547   2256245.53244  24634479.684    24634476.302
 -26748094.83249 -20842659.81745  20380256.541    20380254.968
  -5154055.37349  -4016146.63444  23572085.781    23572083.494
 -16884396.55949 -13156669.20144  22221230.540    22221227.611
  -5656879.95247                                  24141039.995
 99 12  9  7 22  0.0000000  0  8G30G26G10G24G 6G23G17G 5
 -17808082.88749 -13876420.74044  21808250.276    21808248.802
  -7500135.44649  -5844260.68444  23159240.801    23159238.802
 -14824713.31549 -11551717.95744  21635810.702    21635808.714
   3044089.63348   2372050.13144  24662757.570    24662758.076
 -26795666.37749 -20879728.56045  20371203.822    20371202.343
  -5351982.36849  -4170375.41244  23534422.452    23534419.376
 -16991699.23549 -13240281.64744  22200811.596    22200808.557
  -5442391.02346                                  24181855.958
 99 12  9  7 23  0.0000000  0  8G30G26G10G24G 6G23G17G 5
 -17646024.86349 -13750141.78744  21839088.813    21839087.489
  -7654832.47449  -5964803.79044  23129801.789    23129800.784
 -14683541.94649 -11441714.30444  21662674.715    21662672.876
   3192633.38947   2487798.44044  24691026.147    24691024.526
 -26841846.56949 -20915713.13345  20362416.103    20362414.738
  -5549011.85049  -4323904.83544  23496927.743    23496925.731
 -17098198.58149 -13323268.11944  22180545.327    22180542.383
  -5227726.72646                                  24222704.767
 99 12  9  7 24  0.0000000  0  8G30G26G10G24G 6G23G17G 5
 -17482493.56249 -13622714.82744  21870207.992    21870206.490
  -7808456.32349  -6084510.66444  23100569.024    23100567.138
 -14540736.95649 -11330437.69644  21689849.543    21689847.756
   3341190.57647   2603557.09544  24719299.277    24719293.771
 -26886545.25849 -20950543.28845  20353910.186    20353908.800
  -5745116.60549  -4476713.69444  23459610.777    23459608.083
 -17203786.79449 -13405544.61844  22160452.280    22160449.667
  -5012870.72946                                  24263590.890
 99 12  9  7 25  0.0000000  0  8G30G26G10G24G 6G23G17G 5
 -17317625.16449 -13494245.97644  21901581.437    21901579.911
  -7961052.67649  -6203416.88744  23071530.007    23071528.875
 -14396277.98049 -11217872.27244  21717339.371    21717337.251
   3489647.26547                                  24747544.499
 -26929753.71549 -20984212.22545  20345687.916    20345686.466
  -5940404.01849  -4628885.66444  23422449.144    23422446.112
 -17308506.33749 -13487144.23044  22140524.766    22140522.292
  -4797993.52746                                  24304480.833
 99 12  9  7 26  0.0000000  0  8G30G26G10G24G 6G23G17G 5
 -17151433.92749 -13364746.33344  21933206.551    21933205.115
  -8112698.82949  -6321582.68844  23042673.253    23042671.509
 -14250221.41049 -11104061.97044  21745133.209    21745130.896
   3637814.24248                                  24775740.061
 -26971523.87949 -21016760.41345  20337739.323    20337737.814
  -6134922.80449  -4780458.71244  23385433.305    23385430.370
 -17412453.97349 -13568142.35344  22120744.315    22120741.671
  -4583276.09845                                  24345340.035
 99 12  9  7 27  0.0000000  0  8G30G26G10G24G 6G23G17G 5
 -16983922.55249 -13234218.01044  21965082.988    21965081.422
  -8263475.49449  -6439070.95344  23013981.398    23013979.616
 -14102605.65549 -10989036.70644  21773223.212    21773221.180
   3785742.34048   2949961.16944  24803891.128    24803889.683
 -27011831.35949 -21048168.84845  20330069.214    20330067.664
  -6328554.08349  -4931340.19644  23348586.793    23348583.660
 -17515741.97349 -13648626.47744  22101089.106    22101086.645
  -4368806.41745                                  24386152.301
 99 12  9  7 28  0.0000000  0  8G30G26G10G24G 6G23G17G 5
 -16815125.74849 -13102688.06044  21997203.924    21997202.358
  -8413311.04149  -6555825.87044  22985468.675    22985466.889
 -13953492.82649 -10872844.89544  21801598.808    21801596.620
   3933532.69747                                  24832013.109
 -27050610.65049 -21078386.48545  20322689.638    20322688.286
  -6521279.95649  -5081516.16744  23311912.219    23311909.180
 -17618461.50549 -13728667.63144  22081542.441    22081539.730
  -4154496.77945                                  24426934.380
 99 12  9  7 29  0.0000000  0  7G30G26G10G24G 6G23G17
 -16645033.82349 -12970148.93044  22029571.231    22029569.762
  -8562076.02449  -6671746.59144  22957159.748    22957158.045
 -13802917.41549 -10755513.41244  21830252.083    21830250.255
   4081130.08948                                  24860100.267
 -27087842.24149 -21107398.12045  20315604.616    20315603.323
  -6713203.46149  -5231066.92644  23275390.018    23275387.245
 -17720606.00249 -13808260.70844  22062104.554    22062102.023
 99 12  9  7 30  0.0000000  0  8G30G26G10G24G 6G23G17G22
 -16473679.42149 -12836626.04244  22062178.876    22062177.461
  -8709769.28949  -6786832.22044  22929053.753    22929052.861
 -13650954.40449 -10637100.67944  21859169.798    21859167.830
   4228416.66147   3294898.75544  24888130.175    24888127.909
 -27123624.98449 -21135280.77945  20308795.348    20308793.953
  -6904396.52249  -5380048.49944  23239007.194    23239004.431
 -17822138.18249 -13887376.65644  22042783.830    22042780.959
        -0.08459         0.74154  24361619.780    24361617.040
 99 12  9  7 31  0.0000000  0  8G30G26G10G24G 6G23G17G22
 -16301021.15049 -12702087.15144  22095034.615    22095033.268
  -8856269.65149  -6900988.32344  22901175.545    22901174.735
 -13497548.86849 -10517563.90144  21888361.775    21888359.752
   4375546.99748   3409545.72944  24916126.807    24916125.945
 -27157848.63349 -21161948.56945  20302282.915    20302281.455
  -7094634.12549  -5528285.56544  23202805.826    23202803.439
 -17922811.53949 -13965823.39444  22023626.237    22023623.591
   -136520.76549   -106379.02444  24335639.869    24335637.680
 99 12  9  7 32  0.0000000  0  8G30G26G10G24G 6G23G17G22
 -16127067.00449 -12566538.49044  22128137.370    22128135.720
  -9001567.16349  -7014207.13744  22873526.847    22873525.450
 -13342624.64149 -10396843.72244  21917842.989    21917840.793
   4522661.39447                                  24944120.758
 -27190427.52049 -21187334.72645  20296083.560    20296082.024
  -7283785.94849  -5675676.57544  23166811.640    23166808.959
 -18022538.10649 -14043532.37744  22004648.674    22004646.168
   -271220.23148   -211339.65144  24310007.921    24310005.024
 99 12  9  7 33  0.0000000  0  8G30G26G10G24G 6G23G17G22
 -15951864.00749 -12430016.69944  22161477.229    22161475.716
  -9145731.47649  -7126542.92044  22846093.376    22846091.659
 -13186222.63049 -10274972.02744  21947605.075    21947603.168
   4669661.86747                                  24972094.199
 -27221389.21049 -21211460.72345  20290191.664    20290190.304
  -7471876.60349  -5822240.70944  23131019.090    23131016.672
 -18121447.63049 -14120604.70444  21985827.087    21985824.401
   -404182.87549   -314946.93144  24284705.676    24284703.413
 99 12  9  7 34  0.0000000  0  8G30G26G10G24G 6G23G17G22
 -15775353.69949 -12292476.23244  22195066.404    22195064.639
  -9288695.27349  -7237943.22244  22818887.519    22818886.544
 -13028348.06549 -10151952.89244  21977647.681    21977645.984
   4816439.53646                                  25000024.637
 -27250779.62449 -21234362.35345  20284598.930    20284597.394
  -7658927.91749  -5967994.95744  23095424.515    23095421.749
 -18219633.65749 -14197113.26644  21967142.737    21967140.235
   -535589.96648   -417342.07444  24259700.488    24259697.058
 99 12  9  7 35  0.0000000  0  8G30G26G10G24G 6G23G17G22
 -15597621.89449 -12153983.94044  22228887.263    22228885.887
  -9430354.57349  -7348327.05344  22791931.951    22791929.569
 -12869037.93549 -10027815.13644  22007963.602    22007961.651
   4962981.74247   3867286.75844  25027915.944    25027911.790
 -27278550.93149 -21256002.34545  20279314.102    20279312.524
  -7844987.27949  -6112976.23744  23060018.842    23060015.858
 -18317116.34649 -14273073.76644  21948592.708    21948589.826
   -665466.07049   -518544.26144  24234984.114    24234983.136
 99 12  9  7 36  0.0000000  0  8G30G26G10G24G 6G23G17G22
 -15418846.45949 -12014678.44044  22262907.469    22262905.641
  -9570719.22349  -7457702.05144  22765220.703    22765219.223
 -12708436.90049  -9902671.47544  22038525.019    22038522.917
   5109343.29848                                  25055763.790
 -27304715.91349 -21276390.65645  20274334.980    20274333.569
  -8030185.08449  -6257286.17344  23024776.231    23024773.830
 -18413941.01949 -14348521.52944  21930167.400    21930164.640
   -793708.42749   -618473.38144  24210581.389    24210579.434
 99 12  9  7 37  0.0000000  0  8G30G26G10G24G 6G23G17G22
 -15239019.87149 -11874553.86344  22297127.081    22297125.666
  -9709831.91449  -7566101.50744  22738747.893    22738746.867
 -12546591.53749  -9776558.20744  22069322.956    22069320.838
   5255651.66246                                  25083603.761
 -27329285.24849 -21295535.60245  20269659.742    20269658.323
  -8214443.52149  -6400864.13944  22989713.353    22989710.598
 -18510067.65149 -14423425.36744  21911875.246    21911872.230
   -920151.72549   -717000.64944  24186520.012    24186518.222
 99 12  9  7 38  0.0000000  0  8G30G26G10G24G 6G23G17G22
 -15058074.56749 -11733557.54244  22331559.643    22331558.318
  -9847711.56249  -7673540.14944  22712511.104    22712509.362
 -12383469.13749  -9649449.84644  22100364.346    22100362.138
   5401895.29147   4209296.98444  25111432.891    25111434.026
 -27352260.00149 -21313438.01545  20265287.783    20265286.451
  -8397644.19749  -6543617.87644  22954851.412    22954848.447
 -18605493.05649 -14497782.79344  21893715.981    21893713.314
  -1044768.79549   -814104.86744  24162806.346    24162804.592
 99 12  9  7 39  0.0000000  0  8G30G26G10G24G 6G23G17G22
 -14876020.56449 -11591697.29844  22366203.717    22366202.053
  -9984234.72349  -7779921.78144  22686531.000    22686529.807
 -12218983.34649  -9521279.10144  22131664.832    22131662.668
   5547979.35146                                  25139232.031
 -27373575.48549 -21330047.49445  20261231.512    20261230.027
  -8579757.31649  -6685524.15844  22920196.286    22920193.619
 -18700244.65249 -14571615.17544  21875685.357    21875682.684
  -1167559.88149   -909786.25044  24139441.004    24139437.723
 99 12  9  7 40  0.0000000  0  8G30G26G10G24G 6G23G17G22
 -14693002.05549 -11449085.50244  22401030.811    22401029.413
 -10119333.23249  -7885193.30244  22660822.364    22660821.217
 -12053162.20649  -9392067.82744  22163219.447    22163217.494
   5693763.48547                                  25166974.475
 -27393165.59149 -21345312.52345  20257503.767    20257502.270
  -8760818.64549  -6826610.87744  22885741.533    22885738.751
 -18794310.27349 -14644913.03944  21857785.276    21857782.686
  -1288654.86149  -1004145.99744  24116396.785    24116394.278
 99 12  9  7 41  0.0000000  0  8G30G26G10G24G 6G23G17G22
 -14508999.43049 -11305706.86544  22436045.619    22436043.973
 -10253093.48149  -7989422.03344  22635369.075    22635367.511
 -11886115.06849  -9261901.23344  22195007.336    22195005.581
   5839276.10148   4550112.97944  25194667.459    25194665.507
 -27411109.01149 -21359294.42145  20254089.228    20254087.879
  -8940799.44249  -6966855.61544  22851492.540    22851489.613
 -18887627.02849 -14717627.37644  21840027.520    21840025.079
  -1408134.46849  -1097247.01244  24093660.908    24093657.852
 99 12  9  7 42  0.0000000  0  8G30G26G10G24G 6G23G17G22
 -14323936.53749 -11161502.05144  22471261.706    22471260.215
 -10385486.92249  -8092585.72344  22610175.470    22610173.895
 -11717854.44249  -9130789.06844  22227025.999    22227024.452
   5984668.72247                                  25222332.742
 -27427433.86449 -21372015.09345  20250982.593    20250981.287
  -9119663.83549  -7106230.42344  22817455.350    22817452.712
 -18980170.08149 -14789738.82644  21822417.275    21822414.818
  -1525870.12949  -1188989.08344  24071255.916    24071253.670
 99 12  9  7 43  0.0000000  0  8G30G26G10G24G 6G23G17G22
 -14137919.69149 -11016553.89344  22506659.533    22506658.171
 -10516499.08949  -8194673.09244  22585244.363    22585242.979
 -11548468.13749  -8998799.74444  22259259.620    22259257.611
   6129908.95646                                  25249970.534
 -27442143.03049 -21383476.79445  20248183.543    20248182.221
  -9297456.66649  -7244770.24944  22783622.598    22783619.791
 -19071997.48049 -14861292.62344  21804943.152    21804940.705
  -1641775.79149  -1279305.21944  24049200.335    24049198.005
 99 12  9  7 44  0.0000000  0  8G30G26G10G24G 6G23G17G22
 -13950991.58549 -10870895.64744  22542231.294    22542229.545
 -10646088.74549  -8295652.00044  22560583.861    22560583.063
 -11377994.06249  -8865962.80544  22291699.573    22291697.602
   6274973.64446                                  25277575.676
 -27455157.69049 -21393618.10245  20245707.001    20245705.615
  -9474082.30249  -7382400.57644  22750011.890    22750009.005
 -19163093.41649 -14932276.44944  21787608.067    21787605.657
  -1755818.62649  -1368169.76244  24027498.871    24027496.335
 99 12  9  7 45  0.0000000  0  8G30G26G10G24G 6G23G17G22
 -13763094.68049 -10724482.48544  22577986.576    22577985.046
 -10774159.25549  -8395447.15744  22536213.445    22536212.022
 -11206317.44049  -8732188.81944  22324368.443    22324366.640
   6419891.29347                                  25305152.621
 -27466441.96449 -21402411.05445  20243559.743    20243558.378
  -9649491.58949  -7519083.10544  22716632.479    22716629.583
 -19253455.31249 -15002688.29144  21770413.004    21770410.101
  -1868049.69349  -1455622.53144  24006141.536    24006139.288
 99 12  9  7 46  0.0000000  0  8G30G26G10G24G 6G23G17G22
 -13574260.35649 -10577338.87444  22613920.279    22613918.959
 -10900629.55849  -8493995.40544  22512147.009    22512145.492
 -11033343.72149  -8597404.10844  22357284.610    22357282.574
   6564621.11147                                  25332694.096
 -27476072.92049 -21409915.70245  20241726.998    20241725.690
  -9823779.07549  -7654891.50944  22683466.460    22683463.917
 -19343234.34149 -15072645.94844  21753328.503    21753325.635
  -1978545.32849  -1541723.04944  23985115.402    23985111.717
 99 12  9  7 47  0.0000000  0  8G30G26G10G24G 6G23G17G22
 -13384582.10149 -10429537.67544  22650015.101    22650013.568
 -11025472.72049  -8591275.75844  22488389.553    22488388.497
 -10859206.00549  -8461712.39144  22390421.902    22390419.902
   6709169.57847                                  25360200.925
 -27483998.58049 -21416091.55445  20240218.756    20240217.322
  -9996990.56849  -7789861.47244  22650505.191    22650502.857
 -19432474.23849 -15142183.50444  21736346.752    21736343.851
  -2087286.04349  -1626456.08844  23964421.941    23964419.643
 99 12  9  7 48  0.0000000  0  8G30G26G10G24G 6G23G17G22
 -13194125.07849 -10281129.63644  22686257.557    22686256.354
 -11148823.25649  -8687393.01344  22464916.999    22464915.704
 -10684095.49749  -8325262.65444  22423744.574    22423742.287
   6853574.00447                                  25387680.284
 -27490093.39349 -21420840.77345  20239059.096    20239057.652
 -10169104.50949  -7923976.20344  22617753.321    22617750.610
 -19521023.18549 -15211182.65744  21719496.412    21719493.631
  -2194175.49349  -1709746.57844  23944082.853    23944079.567
 99 12  9  7 49  0.0000000  0  8G30G26G10G24G 6G23G17G22
 -13002925.47549 -10132142.96044  22722642.160    22722640.422
 -11270833.13849  -8782465.60844  22441699.549    22441697.974
 -10508086.03849  -8188112.43544  22457237.897    22457235.924
   6997795.99046                                  25415124.411
 -27494408.14249 -21424202.92845  20238237.890    20238236.642
 -10340103.60349  -8057222.22144  22585213.347    22585210.497
 -19608785.54049 -15279568.88944  21702795.555    21702793.191
  -2299198.01149  -1791582.30044  23924096.441    23924094.578
 99 12  9  7 50  0.0000000  0  8G30G26G10G24G 6G23G17G22
 -12810861.56349  -9982482.79344  22759190.509    22759188.867
 -11391317.59649  -8876349.56544  22418772.049    22418770.533
 -10330989.22049  -8050114.92444  22490938.392    22490936.239
   7141880.58847                                  25442543.301
 -27496976.72849 -21426204.44145  20237749.188    20237747.953
 -10509837.73649  -8189482.55044  22552914.110    22552911.226
 -19695733.96949 -15347320.88644  21686249.762    21686247.351
  -2402314.60449  -1871932.91444  23904474.052    23904472.272
 99 12  9  7 51  0.0000000  0  7G30G26G10G 6G23G17G22
 -12617867.40349  -9832097.76344  22795916.223    22795914.631
 -11510003.21449  -8968831.83244  22396186.321    22396185.349
 -10152752.29849  -7911229.01844  22524855.310    22524853.342
 -27497717.54649 -21426781.71845  20237608.158    20237606.824
 -10678206.38749  -8320678.87444  22520874.264    22520871.550
 -19781962.17149 -15414511.67344  21669841.257    21669838.628
  -2503488.84149  -1950769.99544  23885221.398    23885219.275
 99 12  9  7 52  0.0000000  0  7G30G26G10G 6G23G17G22
 -12424093.40649  -9681105.06844  22832790.344    22832788.755
 -11626923.31149  -9059938.36244  22373937.332    22373936.116
  -9973514.06249  -7771562.87244  22558963.624    22558961.487
 -27496655.90749 -21425954.47945  20237810.224    20237808.910
 -10845370.32249  -8450936.45544  22489063.907    22489061.220
 -19867621.78049 -15481259.40544  21653540.624    21653538.039
  -2602792.34149  -2028149.34444  23866324.605    23866322.201
 99 12  9  7 53  0.0000000  0  7G30G26G10G 6G23G17G22
 -12229600.07449  -9529551.85144  22869801.124    22869799.445
 -11742137.85149  -9149715.88944  22352012.822    22352011.742
  -9793265.28649  -7631109.30044  22593263.837    22593261.512
 -27493823.13749 -21423747.13445  20238349.372    20238348.084
 -11011384.45649  -8580298.09244  22457472.626    22457469.909
 -19952606.69649 -15547481.40244  21637368.415    21637365.918
  -2700171.18949  -2104029.00744  23847794.057    23847791.740
 99 12  9  7 54  0.0000000  0  7G30G26G10G 6G23G17G22
 -12034334.90649  -9377397.19844  22906958.740    22906957.022
 -11855536.55349  -9238078.46644  22330433.865    22330432.505
  -9611866.27149  -7489759.43544  22627782.705    22627780.841
 -27489233.24949 -21420170.60945  20239222.879    20239221.431
 -11176059.07349  -8708615.94244  22426136.098    22426133.246
 -20036763.47549 -15613058.10944  21621353.922    21621351.397
  -2795474.37349  -2178291.24944  23829658.175    23829656.388
 99 12  9  7 55  0.0000000  0  7G30G26G10G 6G23G17G22
 -11838417.81949  -9224734.56144  22944240.503    22944238.969
 -11967221.11549  -9325105.36744  22309180.890    22309179.598
  -9429415.54249  -7347590.05044  22662501.798    22662499.855
 -27482954.92649 -21415278.43345  20240417.535    20240416.039
 -11339396.81049  -8835892.07444  22395053.809    22395051.105
 -20120199.66049 -15678073.31244  21605476.563    21605474.085
  -2888764.40649  -2250984.80744  23811906.675    23811903.981
 99 12  9  7 56  0.0000000  0  7G30G26G10G 6G23G17G22
 -11641964.07049  -9071653.75244  22981624.553    22981623.029
 -12077303.89549  -9410884.11644  22288232.830    22288231.431
  -9246109.52149  -7204754.21344  22697383.871    22697382.276
 -27474921.13049 -21409018.34645  20241946.174    20241944.862
 -11501568.04949  -8962259.25344  22364193.785    22364191.114
 -20203081.34249 -15742656.43144  21589704.968    21589702.147
  -2980217.34349  -2322246.86944  23794504.058    23794501.101
 99 12  9  7 57  0.0000000  0  7G30G26G10G 6G23G17G22
 -11444976.13949  -8918156.68944  23019110.094    23019108.534
 -12185764.07649  -9495398.51544  22267593.521    22267592.337
  -9062052.39949  -7061333.10444  22732408.973    22732406.897
 -27465031.29949 -21401311.99045  20243828.157    20243826.925
 -11662551.26349  -9087700.69644  22333559.332    22333556.862
 -20285362.88849 -15806771.91145  21574047.296    21574044.469
  -3069883.06349  -2392116.28344  23777440.881    23777437.661
 99 12  9  7 58  0.0000000  0  7G30G26G10G 6G23G17G22
 -11247374.02449  -8764181.05244  23056712.430    23056710.969
 -12292469.84649  -9578545.82744  22247287.894    22247286.673
  -8877233.08749  -6917318.08344  22767578.646    22767577.082
 -27453282.63149 -21392157.19545  20246063.965    20246062.607
 -11822211.35849  -9212111.13644  22303177.312    22303174.638
 -20366902.49149 -15870309.25445  21558530.588    21558528.053
  -3157627.14149  -2460488.30944  23760742.923    23760740.604
 99 12  9  7 59  0.0000000  0  7G30G26G10G 6G23G17G22
 -11049109.68549  -8609689.39744  23094441.292    23094439.522
 -12397351.35949  -9660271.64244  22227329.734    22227328.488
  -8691534.60449  -6772617.99344  22802916.034    22802914.007
 -27439711.00349 -21381581.92145  20248646.726    20248645.190
 -11980495.56249  -9335449.45644  22273056.664    22273054.207
 -20447672.13149 -15933246.60845  21543160.692    21543158.057
  -3243332.09749  -2527271.42144  23744434.099    23744431.452
 99 12  9  8  0  0.0000000  0  7G30G26G10G 6G23G17G22
 -10850204.95049  -8454698.73844  23132291.407    23132289.774
 -12500377.23849  -9740551.51244  22207724.579    22207723.340
  -8504869.18849  -6627164.45244  22838437.521    22838435.164
 -27424277.50149 -21369555.83845  20251583.586    20251582.173
 -12137499.81049  -9457790.41144  22243179.859    22243177.278
 -20527662.26249 -15995576.56145  21527939.099    21527936.535
  -3326955.28449  -2592432.36844  23728521.500    23728518.843
 99 12  9  8  1  0.0000000  0  7G30G26G10G 6G23G17G22
 -10650785.87449  -8299307.28644  23170239.607    23170238.143
 -12601553.30949  -9819389.97844  22188471.398    22188469.967
  -8317302.16149  -6481008.35844  22874130.426    22874127.984
 -27406945.17249 -21356050.13245  20254881.642    20254880.519
 -12293243.55349  -9579149.15444  22213542.670    22213540.094
 -20606934.38949 -16057347.02545  21512853.996    21512851.581
  -3408567.04849  -2656025.99444  23712991.447    23712988.717
 99 12  9  8  2  0.0000000  0  7G30G26G10G 6G23G17G22
 -10450926.53749  -8143572.78344  23208271.503    23208270.098
 -12700872.92049  -9896781.84844  22169571.083    22169570.052
  -8128989.02149  -6334270.86944  22909965.016    22909962.779
 -27387731.27749 -21341078.27545  20258537.953    20258536.656
 -12447607.48649  -9699432.72344  22184168.284    22184165.727
 -20685608.42349 -16118651.44245  21497882.900    21497880.374
  -3488221.70149  -2718094.40244  23697834.077    23697831.725
 99 12  9  8  3  0.0000000  0  7G30G26G10G 6G23G17G22
 -10250544.75249  -7987431.17644  23246403.739    23246401.627
 -12798247.76449  -9972658.32644  22151041.399    22151040.122
  -7939967.30549  -6186981.25044  22945934.391    22945932.799
 -27366628.28849 -21324634.40045  20262553.625    20262552.374
 -12600484.98049  -9818558.02744  22155076.696    22155074.135
 -20763747.15449 -16179538.74845  21483013.466    21483011.002
  -3565894.76149  -2778618.00744  23683052.323    23683049.796
 99 12  9  8  4  0.0000000  0  7G30G26G10G 6G23G17G22
 -10049573.79849  -7830830.48444  23284646.803    23284644.994
 -12893514.23049 -10046891.91244  22132913.081    22132911.744
  -7750170.89149  -6039087.97444  22982051.486    22982049.856
 -27343622.45149 -21306707.79045  20266931.767    20266930.441
 -12751843.55749  -9936499.75244  22126274.002    22126271.476
 -20841202.53349 -16239893.57145  21468274.395    21468271.692
  -3641480.54249  -2837516.10744  23668668.936    23668666.686
 99 12  9  8  5  0.0000000  0  7G30G26G10G 6G23G17G22
  -9848128.79549  -7673860.40844  23322980.827    23322978.719
 -12986802.41249 -10119583.96344  22115160.466    22115159.512
  -7559594.22849  -5890586.71544  23018317.281    23018315.387
 -27318789.47049 -21287357.43945  20271657.402    20271656.035
 -12901848.29849 -10053386.54844  22097729.061    22097726.555
 -20917921.92449 -16299674.90745  21453675.096    21453672.535
  -3715009.08949  -2894811.10344  23654677.474    23654674.649
 99 12  9  8  6  0.0000000  0  7G30G26G10G 6G23G17G22
  -9646350.79849  -7516630.85044  23361377.339    23361375.830
 -13078324.23749 -10190899.63444  22097744.340    22097743.374
  -7368275.27749  -5741507.04644  23054723.664    23054722.245
 -27292179.35949 -21266622.31245  20276720.980    20276719.654
 -13050585.73549 -10169285.83644  22069425.144    22069422.793
 -20993938.85049 -16358908.86845  21439209.317    21439206.772
  -3786578.63549  -2950579.59444  23641058.043    23641056.052
 99 12  9  8  7  0.0000000  0  7G30G26G10G 6G23G17G22
  -9444203.08549  -7359113.19544  23399844.689    23399843.161
 -13167993.08149 -10260771.43644  22080681.198    22080679.880
  -7176225.24849  -5591857.70944  23091270.932    23091267.877
 -27263679.44949 -21244414.60945  20282144.338    20282143.071
 -13197979.69649 -10284138.26144  22041376.986    22041374.570
 -21069231.55749 -16417578.50445  21424881.570    21424879.058
  -3856155.18049  -3004795.09544  23627818.739    23627815.645
 99 12  9  8  8  0.0000000  0  7G30G26G10G 6G23G17G22
  -9241767.36649  -7201371.12244  23438367.100    23438365.567
 -13255705.17749 -10329118.49244  22063989.867    22063988.881
  -6983629.83649  -5441783.39244  23127919.859    23127917.673
 -27233296.63249 -21220739.69445  20287926.005    20287924.832
 -13344095.46149 -10397994.68344  22013572.135    22013569.398
 -21143967.04749 -16475813.94545  21410659.779    21410657.481
  -3923725.94749  -3057447.65844  23614960.082    23614957.164
 99 12  9  8  9  0.0000000  0  7G30G26G10G 6G23G17G22
  -9039042.18549  -7043403.51944  23476944.237    23476942.893
 -13341302.47849 -10395817.65744  22047701.386    22047700.314
  -6790437.80649  -5291244.17344  23164683.312    23164680.723
 -27201010.04349 -21195581.32345  20294070.034    20294068.678
 -13488860.69049 -10510798.73444  21986024.211    21986021.638
 -21218183.49649 -16533644.93345  21396536.982    21396534.327
  -3989224.05349  -3108485.18444  23602495.816    23602493.498
 99 12  9  8 10  0.0000000  0  7G30G26G10G 6G23G17G22
  -8835754.68949  -6884997.72544  23515629.369    23515627.340
 -13424503.69049 -10460649.76144  22031868.696    22031867.602
  -6596275.56749  -5139948.94644  23201631.259    23201628.655
 -27166535.56649 -21168718.11645  20300630.386    20300628.911
 -13631952.46049 -10622298.79844  21958794.567    21958792.138
 -21291545.02849 -16590809.75745  21382576.862    21382574.195
  -4052387.54949  -3157703.50844  23590476.414    23590474.040
 99 12  9  8 11  0.0000000  0  7G30G26G10G 6G23G17G22
  -8631905.37749  -6726154.17544  23554420.053    23554418.557
 -13505366.43649 -10523659.67344  22016480.816    22016479.723
  -6401149.35949  -4987902.58644  23238761.878    23238760.219
 -27129829.11749 -21140115.70845  20307615.418    20307613.933
 -13773292.57549 -10732433.94044  21931898.383    21931896.018
 -21363870.59649 -16647167.34245  21368813.638    21368811.216
  -4113193.45349  -3205084.76544  23578905.746    23578903.263
 99 12  9  8 12  0.0000000  0  7G30G26G10G 6G23G17G22
  -8428095.33349  -6567341.24344  23593204.636    23593202.496
 -13584507.67449 -10585328.14144  22001420.783    22001419.756
  -6205767.99049  -4835657.39144  23275942.457    23275940.140
 -27091488.39849 -21110239.83545  20314911.392    20314910.026
 -13913383.85449 -10841595.95344  21905240.297    21905237.552
 -21435675.90049 -16703119.52845  21355149.559    21355147.176
  -4172218.49949  -3251078.32044  23567673.212    23567670.970
 99 12  9  8 13  0.0000000  0  8G30G26G10G21G 6G23G17G22
  -8223982.64549  -6408292.45144  23632045.393    23632043.795
 -13661576.67949 -10645381.88844  21986755.195    21986753.983
  -6009857.51949  -4682999.91744  23313221.946    23313220.564
        -1.20955                                  25389441.894
 -27051298.22649 -21078922.83145  20322559.340    20322557.918
 -14051898.76949 -10949529.63244  21878881.607    21878878.995
 -21506746.05249 -16758498.87045  21341625.346    21341623.140
  -4229193.84549  -3295474.72044  23556831.834    23556828.980
 99 12  9  8 14  0.0000000  0  7G30G26G10G 6G23G17G22
  -8019680.82549  -6249096.28244  23670922.743    23670920.932
 -13736605.44249 -10703845.84044  21972477.258    21972476.488
  -5813467.94949  -4529969.12044  23350593.997    23350592.692
 -27009362.82849 -21046245.91345  20330539.443    20330537.998
 -14189052.20149 -11056402.41344  21852782.067    21852779.570
 -21577299.80349 -16813475.81545  21328199.434    21328197.114
  -4284256.76249  -3338380.91644  23546353.205    23546350.686
 99 12  9  8 15  0.0000000  0  7G30G26G10G 6G23G17G22
  -7815321.01849  -6089854.93644  23709811.803    23709809.571
 -13809612.33549 -10760734.30844  21958584.704    21958583.969
  -5616635.07249  -4376592.89344  23388050.054    23388048.762
 -26965625.68149 -21012165.03945  20338862.146    20338860.757
 -14324981.15749 -11162321.06244  21826915.489    21826913.118
 -21647400.83649 -16868099.99945  21314859.743    21314857.296
  -4337426.26849  -3379811.71844  23536235.712    23536232.851
 99 12  9  8 16  0.0000000  0  7G30G26G10G 6G23G17G22
  -7610824.77849  -5930507.28144  23748726.136    23748724.083
 -13880513.58749 -10815982.05444  21945093.004    21945091.669
  -5419232.81049  -4222772.98344  23425614.987    23425612.976
 -26919949.80849 -20976573.47045  20347554.153    20347552.801
 -14459492.95849 -11267135.42745  21801318.969    21801316.313
 -21716862.18449 -16922225.72245  21301641.871    21301639.136
  -4388500.69449  -3419609.99244  23526516.050    23526513.816
 99 12  9  8 17  0.0000000  0  7G30G26G10G 6G23G17G22
  -7406229.26049  -5771082.25744  23787658.671    23787657.286
 -13949386.42149 -10869649.16644  21931986.360    21931985.521
  -5221293.18649  -4068534.33144  23463281.774    23463279.720
 -26872413.25649 -20939532.02045  20356600.035    20356598.696
 -14592522.98449 -11370795.16445  21776004.018    21776001.539
 -21785704.52949 -16975869.10945  21288541.591    21288538.811
  -4437434.05549  -3457739.89944  23517203.798    23517202.244
 99 12  9  8 18  0.0000000  0  7G30G26G10G 6G23G17G22
  -7201482.75549  -5611539.58644  23826621.241    23826619.358
 -14016164.15949 -10921683.72044  21919279.496    21919278.067
  -5022829.25749  -3913887.15344  23501047.605    23501046.000
 -26822951.72149 -20900990.58745  20366012.210    20366010.862
 -14724002.99549 -11473247.10345  21750984.306    21750981.780
 -21853895.30149 -17029004.76945  21275565.279    21275562.541
  -4484161.51149  -3494150.90944  23508312.996    23508310.237
 99 12  9  8 19  0.0000000  0  7G30G26G10G 6G23G17G22
  -6996687.85949  -5451959.19844  23865592.704    23865590.460
 -14080881.55649 -10972112.84144  21906963.780    21906962.713
  -4824020.48749  -3758971.25944  23538880.007    23538878.252
 -26771620.08749 -20860991.93645  20375780.427    20375779.056
 -14854030.41749 -11574567.15445  21726240.825    21726238.446
 -21921491.15949 -17081676.86845  21262702.217    21262699.446
  -4528806.65449  -3528939.34544  23499816.806    23499814.407
 99 12  9  8 20  0.0000000  0  7G30G26G10G 6G23G17G22
  -6791800.67449  -5292306.89444  23904581.568    23904579.375
 -14143376.30549 -11020810.01844  21895071.326    21895070.374
  -4624852.49149  -3603775.45944  23576781.366    23576778.502
 -26718326.60349 -20819464.55945  20385921.804    20385920.423
 -14982550.31349 -11674712.51445  21701784.327    21701781.784
 -21988387.98549 -17133804.26245  21249972.049    21249969.466
  -4571395.50849  -3562125.48244  23491712.433    23491710.088
 99 12  9  8 21  0.0000000  0  8G30G26G10G21G 6G23G17G22
  -6586511.79049  -5132341.57944  23943646.029    23943644.530
 -14203251.21949 -11067465.76744  21883677.635    21883676.510
  -4425040.02449  -3448077.45144  23614804.295    23614801.596
         0.12956                                  25101849.049
 -26662771.69749 -20776175.03945  20396493.746    20396492.319
 -15109327.57549 -11773499.97845  21677659.309    21677657.006
 -22054282.40449 -17185150.55545  21237432.790    21237430.036
  -4611704.56949  -3593535.15144  23484042.123    23484039.167
 99 12  9  8 22  0.0000000  0  8G30G26G10G21G 6G23G17G22
  -6380962.53749  -4972173.37044  23982761.527    23982759.210
 -14260642.58949 -11112186.28744  21872756.677    21872755.442
  -4224717.81949  -3291982.26544  23652923.679    23652921.665
   -186492.02647                                  25066360.756
 -26605152.47949 -20731276.96245  20407458.188    20407456.840
 -15234524.95949 -11871056.36745  21653835.003    21653832.661
 -22119359.71849 -17235860.14445  21225049.181    21225046.292
  -4649902.87749  -3623300.10444  23476773.302    23476770.493
 99 12  9  8 23  0.0000000  0  8G30G26G10G21G 6G23G17G22
  -6175493.77249  -4812067.87144  24021860.880    24021858.662
 -14315926.59049 -11155264.69744  21862236.431    21862234.980
  -4024155.34949  -3135699.87744  23691089.722    23691087.335
   -372698.36147                                  25030926.940
 -26545831.06349 -20685052.51145  20418746.761    20418745.331
 -15358404.41149 -11967585.78545  21630261.617    21630259.122
 -22183952.73449 -17286192.35945  21212757.228    21212754.780
  -4686227.05649  -3651604.67844  23469860.620    23469858.294
 99 12  9  8 24  0.0000000  0  8G30G26G10G21G 6G23G17G22
  -5970287.47649  -4652166.88244  24060909.585    24060908.015
 -14369155.38749 -11196741.66044  21852107.282    21852106.243
  -3823356.76349  -2979233.47444  23729301.004    23729298.046
   -558617.11547                                  24995547.659
 -26484791.13549 -20637488.96345  20430362.137    20430360.867
 -15480942.05049 -12063069.63645  21606943.436    21606941.121
 -22248080.18849 -17336161.79845  21200554.208    21200551.708
  -4720588.87449  -3678380.11644  23463322.159    23463319.795
 99 12  9  8 25  0.0000000  0  8G30G26G10G21G 6G23G17G22
  -5765235.65749  -4492386.26644  24099930.138    24099928.094
 -14420104.11149 -11236441.94644  21842411.756    21842410.898
  -3622138.37449  -2822439.98744  23767590.663    23767588.967
   -744007.83847                                  24960268.835
 -26421647.48049 -20588286.14645  20442378.175    20442376.712
 -15601868.21549 -12157297.80045  21583931.842    21583929.485
 -22311537.27649 -17385608.86845  21188478.806    21188476.125
  -4752728.70949  -3703424.16044  23457206.165    23457203.632
 99 12  9  8 26  0.0000000  0  8G30G26G10G21G 6G23G17G22
  -5560358.39249  -4332741.68144  24138917.662    24138915.071
 -14468733.45249 -11274334.91044  21833157.815    21833156.869
  -3420566.40049  -2665370.95344  23805948.649    23805946.494
   -928865.35547                                  24925091.483
 -26356441.28149 -20537476.13945  20454786.431    20454785.104
 -15721135.82349 -12250233.58545  21561236.048    21561233.499
 -22374373.27049 -17434571.97245  21176521.370    21176518.815
  -4782756.95549  -3726822.81344  23451492.803    23451489.071
 99 12  9  8 27  0.0000000  0  8G30G26G10G21G 6G23G17G22
  -5355524.25949  -4173130.71644  24177895.859    24177893.716
 -14514967.47749 -11310361.39744  21824359.645    21824358.573
  -3218618.27549  -2508008.84144  23844379.147    23844375.985
  -1113115.93247   -867362.21644  24890032.328    24890029.837
 -26289206.86749 -20485085.70445  20467580.741    20467579.357
 -15838652.99749 -12341805.39845  21538873.204    21538870.764
 -22436535.66049 -17483010.19345  21164692.190    21164689.734
  -4810675.73849  -3748577.72644  23446179.280    23446176.281
 99 12  9  8 28  0.0000000  0  8G30G26G10G21G 6G23G17G22
  -5150674.33549  -4013507.43644  24216877.221    24216875.418
 -14558861.99949 -11344564.90544  21816006.704    21816005.906
  -3016310.46649  -2350366.41844  23882876.088    23882874.037
  -1296704.18547  -1010417.84144  24855097.101    24855094.457
 -26220056.77449 -20431202.53945  20480739.623    20480738.227
 -15954529.09149 -12432098.45145  21516822.821    21516820.260
 -22497922.68249 -17530844.23145  21153010.591    21153008.171
  -4836441.64749  -3768655.08544  23441276.233    23441273.565
 99 12  9  8 29  0.0000000  0  8G30G26G10G21G 6G23G17G22
  -4945868.85149  -3853918.77744  24255849.891    24255848.640
 -14600525.64649 -11377030.06444  21808078.701    21808077.636
  -2813738.55649  -2192518.23344  23921425.656    23921422.152
  -1479744.72947  -1153046.79044  24820265.280    24820262.617
 -26149049.22049 -20375872.01045  20494251.941    20494250.543
 -16068983.55749 -12521283.73845  21495042.666    21495040.404
 -22558541.04849 -17578079.32245  21141475.284    21141472.922
  -4860046.18449  -3787048.25844  23436784.619    23436781.949
 99 12  9  8 30  0.0000000  0  8G30G26G10G21G 6G23G17G22
  -4741142.99649  -3694392.16144  24294808.328    24294806.806
 -14639881.16149 -11407696.68244  21800589.484    21800588.515
  -2610926.13449  -2034482.61644  23960018.697    23960016.423
  -1662347.86148  -1295334.84544  24785517.737    24785514.489
 -26076103.66849 -20319031.33445  20508133.094    20508131.709
 -16182066.26849 -12609400.12445  21473523.791    21473521.393
 -22618472.30449 -17624778.99845  21130070.705    21130068.502
  -4881526.16049  -3803785.92744  23432697.494    23432694.235
 99 12  9  8 31  0.0000000  0  8G30G26G10G21G 6G23G17G22
  -4536479.04149  -3534913.78344  24333754.988    24333753.046
 -14676826.40449 -11436485.17544  21793559.279    21793557.790
  -2407858.04249  -1876247.78744  23998661.160    23998658.931
  -1844486.69648  -1437261.14744  24750857.222    24750854.284
 -26001139.87049 -20260618.02345  20522398.204    20522396.757
 -16293620.76049 -12696325.68245  21452295.738    21452293.243
 -22677806.25749 -17671013.24645  21118780.023    21118777.811
  -4900912.51549  -3818892.21344  23429007.770    23429005.332
 99 12  9  8 32  0.0000000  0  8G30G26G10G21G 6G23G17G22
  -4331978.43949  -3375562.67544  24372669.603    24372667.936
 -14711416.22949 -11463438.26844  21786976.967    21786975.822
  -2204559.72149  -1717833.58444  24037348.003    24037345.130
  -2026069.84748  -1578754.47144  24716303.621    24716300.297
 -25924192.40949 -20200658.97445  20537040.863    20537039.457
 -16403495.37649 -12781942.24845  21431387.222    21431384.787
 -22736517.62449 -17716762.36445  21107607.572    21107605.450
  -4918235.28349  -3832390.50244  23425710.844    23425708.778
 99 12  9  8 33  0.0000000  0  8G30G26G10G21G 6G23G17G22
  -4127755.49849  -3216427.97144  24411533.276    24411530.449
 -14743733.47749 -11488620.51944  21780827.420    21780826.261
  -2001031.61849  -1559240.29844  24076077.434    24076075.424
  -2207014.52447  -1719750.24344  24681871.244    24681867.446
 -25845356.54149 -20139228.45245  20552042.739    20552041.347
 -16511679.28349 -12866241.37445  21410800.467    21410798.056
 -22794563.83249 -17761993.17945  21096561.695    21096559.386
  -4933538.82749  -3844315.37644  23422799.145    23422796.775
 99 12  9  8 34  0.0000000  0  8G30G26G10G21G 6G23G17G22
  -3923818.77049  -3057516.29244  24450340.730    24450338.243
 -14773705.77349 -11511975.54144  21775123.437    21775122.711
  -1797242.11949  -1400443.32244  24114857.979    24114855.191
  -2387252.81747  -1860195.62144  24647572.094    24647569.346
 -25764617.73649 -20076315.12745  20567406.774    20567405.419
 -16618248.28949 -12949282.13645  21390521.002    21390518.621
 -22851939.22949 -17806701.28045  21085643.447    21085641.217
  -4946772.57449  -3854627.42244  23420281.763    23420278.632
 99 12  9  8 35  0.0000000  0  8G30G26G10G21G 6G23G17G22
  -3720115.53148  -2898786.53944  24489104.891    24489101.610
 -14801204.82749 -11533403.35744  21769890.654    21769889.339
  -1593212.46549  -1241459.22244  24153683.174    24153680.970
  -2566764.44648  -2000074.72944  24613412.675    24613409.330
 -25681924.89049 -20011879.17045  20583142.794    20583141.455
 -16723236.83449 -13031091.37545  21370542.311    21370539.967
 -22908633.38949 -17850878.54245  21074854.896    21074852.812
  -4957859.02949  -3863266.25244  23418171.606    23418168.723
 99 12  9  8 36  0.0000000  0  8G30G26G10G21G 6G23G17G22
  -3516640.05748  -2740234.25844  24527823.753    24527821.927
 -14826225.49649 -11552899.96344  21765129.146    21765128.251
  -1389022.69449  -1082350.35744  24192539.055    24192537.167
  -2745711.75548  -2139514.15444  24579360.383    24579356.833
 -25597270.79149 -19945914.96745  20599252.015    20599250.633
 -16826695.86949 -13111708.78545  21350854.765    21350852.321
 -22964642.04449 -17894521.64445  21064196.774    21064194.696
  -4966795.47949  -3870229.75844  23416470.842    23416468.138
 99 12  9  8 37  0.0000000  0  8G30G26G10G21G 6G23G17G22
  -3313491.42948                                  24566480.059
 -14848819.70549 -11570505.81944  21760829.788    21760828.682
  -1184737.27349   -923166.95744  24231413.566    24231411.226
  -2924237.22548  -2278624.87344  24545387.801    24545384.539
 -25510710.36949 -19878465.30945  20615724.025    20615722.646
 -16928641.43949 -13191146.87645  21331455.058    21331452.678
 -23019999.09049 -17937656.99845  21053662.806    21053660.544
  -4973663.68049  -3875581.65944  23415163.792    23415161.376
 99 12  9  8 38  0.0000000  0  8G30G26G10G21G 6G23G17G22
  -3110710.02647                                  24605067.945
 -14869001.22549 -11586231.66844  21756989.322    21756988.303
   -980307.14249   -763870.78044  24270314.604    24270313.633
  -3102196.88248  -2417294.67144  24511524.258    24511519.866
 -25422275.79249 -19809555.27745  20632552.596    20632551.128
 -17029025.10449 -13269367.90045  21312352.755    21312350.342
 -23074750.60849 -17980320.51545  21043243.879    21043241.706
  -4978470.72449  -3879327.42444  23414248.660    23414246.280
 99 12  9  8 39  0.0000000  0  8G30G26G10G21G 6G23G17G22
  -2908237.33147                                  24643597.163
 -14886788.50749 -11600091.86544  21753604.645    21753603.333
   -775675.92249   -604417.92744  24309254.981    24309253.405
  -3279383.51948  -2555362.12644  24477806.037    24477802.262
 -25331978.06849 -19739193.43845  20649735.682    20649734.215
 -17127792.68649 -13346329.63445  21293557.851    21293555.458
 -23128830.42449 -18022460.62345  21032952.771    21032950.635
  -4981155.31849  -3881419.33144  23413738.621    23413735.495
 99 12  9  8 40  0.0000000  0  8G30G26G10G21G 6G23G17G22
  -2706018.35646                                  24682078.140
 -14902240.46949 -11612132.34844  21750663.918    21750662.999
   -570839.15149   -444804.90144  24348234.778    24348232.168
  -3455738.81248  -2692781.78544  24444246.061    24444242.830
 -25239778.86349 -19667349.94145  20667280.731    20667279.156
 -17224915.49849 -13422009.72745  21275076.059    21275073.637
 -23182136.24749 -18063997.61745  21022809.010    21022806.804
  -4981731.44949  -3881868.29444  23413628.825    23413626.024
 99 12  9  8 41  0.0000000  0  8G30G26G10G21G 6G23G17G22
  -2504156.03446                                  24720491.415
 -14915388.24249 -11622377.34644  21748161.852    21748161.025
   -366004.83349   -285193.78444  24387212.850    24387211.326
  -3631453.29248  -2829702.10144  24410809.026    24410805.480
 -25145696.05649 -19594038.68645  20685183.985    20685182.611
 -17320468.52249 -13496466.61045  21256892.883    21256890.553
 -23234726.76249 -18104977.23645  21012801.633    21012799.101
  -4980329.23349  -3880775.68444  23413895.962    23413892.837
 99 12  9  8 42  0.0000000  0  8G30G26G10G21G 6G23G17G22
  -2302706.28045                                  24758825.667
 -14926005.75449 -11630650.72344  21746141.642    21746140.490
   -161277.65449   -125666.14944  24426171.992    24426169.405
  -3806629.51448  -2966203.00044  24377473.162    24377470.694
 -25049704.11049 -19519239.79245  20703450.678    20703449.326
 -17414438.41749 -13569689.90045  21239010.895    21239008.677
 -23286680.02949 -18145460.29345  21002915.281    21002912.533
  -4976992.78649  -3878175.87944  23414530.990    23414527.842
 99 12  9  8 43  0.0000000  0  8G30G26G10G21G 6G23G17G22
  -2101692.08545                                  24797077.806
 -14933988.56949 -11636871.08044  21744622.833    21744621.347
     43451.15048     33862.71644  24465130.418    24465127.779
  -3981185.52548  -3102220.59244  24344256.968    24344253.751
 -24951695.13749 -19442869.18945  20722101.170    20722099.762
 -17506707.17149 -13641587.62045  21221452.784    21221450.470
 -23337973.93449 -18185429.56545  20993154.267    20993151.733
  -4971656.55849  -3874017.77944  23415545.665    23415543.311
 99 12  9  8 44  0.0000000  0  7G26G10G21G 6G23G17G22
 -14939517.65649 -11641179.44744  21743570.769    21743569.358
    248306.06749    193489.87644  24504113.596    24504110.525
  -4155072.01648  -3237716.50444  24311167.253    24311164.104
 -24851679.33249 -19364934.81145  20741133.665    20741132.163
 -17597322.54849 -13712196.98545  21204209.254    21204206.898
 -23388642.71849 -18224911.72945  20983512.156    20983509.783
  -4964224.76149  -3868226.78444  23416960.769    23416957.456
 99 12  9  8 45  0.0000000  0  7G26G10G21G 6G23G17G22
 -14942836.19949 -11643765.31244  21742938.853    21742937.958
    453184.34349    353135.29544  24543100.672    24543097.702
  -4328366.73848  -3372751.30144  24278190.725    24278186.815
 -24749825.79949 -19285568.45645  20760515.741    20760514.164
 -17686527.81949 -13781707.56945  21187234.033    21187231.750
 -23438798.83649 -18263994.41345  20973967.750    20973965.397
  -4954755.18049  -3860847.90944  23418761.800    23418759.583
 99 12  9  8 46  0.0000000  0  7G26G10G21G 6G23G17G22
 -14943718.53449 -11644452.82844  21742770.879    21742769.578
    658124.19448    512828.66044  24582099.029    24582096.266
  -4500873.43648  -3507172.04844  24245363.626    24245359.869
 -24646091.79649 -19204736.79245  20780255.710    20780254.271
 -17774143.44549 -13849979.46745  21170561.306    21170559.007
 -23488199.01349 -18302488.05545  20964567.228    20964564.936
  -4943154.53349  -3851808.45844  23420969.859    23420967.195
 99 12  9  8 47  0.0000000  0  7G26G10G21G 6G23G17G22
 -14942039.39149 -11643144.38144  21743090.495    21743089.225
    862941.57248    672426.52144  24621074.381    24621071.799
  -4672651.78249  -3641025.27344  24212675.225    24212671.843
 -24540562.43349 -19122506.14745  20800337.341    20800335.786
 -17860082.26649 -13916944.76245  21154207.654    21154205.310
 -23536798.50149 -18340357.78345  20955318.981    20955316.807
  -4929534.39249  -3841195.39144  23423561.751    23423558.688
 99 12  9  8 48  0.0000000  0  7G26G10G21G 6G23G17G22
 -14937809.17549 -11639848.09744  21743895.505    21743894.218
   1067631.93449    831925.45344  24660025.321    24660023.227
  -4843692.13549  -3774303.42044  24180127.097    24180124.043
 -24433192.58749 -19038841.37045  20820769.184    20820767.657
 -17944350.37149 -13982608.20145  21138172.032    21138169.664
 -23584604.35249 -18377609.08945  20946221.855    20946219.686
  -4913968.56449  -3829066.18944  23426523.362    23426520.948
 99 12  9  8 49  0.0000000  0  7G26G10G21G 6G23G17G22
 -14931089.83449 -11634612.24244  21745174.474    21745173.508
   1272399.72949    991484.74244  24698990.531    24698989.199
  -5013944.37649  -3906967.46944  24147728.630    24147725.659
 -24323852.48049 -18953641.30145  20841575.843    20841574.401
 -18026990.96349 -14047003.44345  21122446.040    21122443.565
 -23631690.71849 -18414299.75345  20937261.623    20937259.443
  -4896418.97049  -3815391.20344  23429863.998    23429860.808
 99 12  9  8 50  0.0000000  0  7G26G10G21G 6G23G17G22
 -14921957.66349 -11627496.25244  21746911.810    21746910.798
   1477260.00948   1151116.12144  24737974.303    24737972.684
  -5183416.14749  -4039023.34744  24115480.562    24115476.398
 -24212544.19649 -18866907.59445  20862757.111    20862755.600
 -18107993.81049 -14110122.53045  21107031.589    21107029.277
 -23678179.54049 -18450524.81045  20928415.060    20928412.834
  -4876895.93649  -3800178.47344  23433578.693    23433575.700
 99 12  9  8 51  0.0000000  0  7G26G10G21G 6G23G17G22
 -14910405.91349 -11618494.87044  21749109.990    21749108.493
   1682117.74747                                  24776955.545
  -5352111.14449  -4170473.95644  24083377.333    24083374.726
 -24099364.66049 -18778715.77045  20884294.427    20884292.855
 -18187281.30349 -14171904.97845  21091943.789    21091941.353
 -23724039.35149 -18486259.72645  20919688.413    20919685.985
  -4855333.77849  -3783376.81444  23437681.575    23437678.838
 99 12  9  8 52  0.0000000  0  7G26G10G21G 6G23G17G22
 -14896370.84249 -11607558.43644  21751780.984    21751780.191
   1886888.53646                                  24815921.989
  -5519995.60549  -4301292.97944  24051430.771    24051427.465
 -23984420.46249 -18689148.88745  20906167.644    20906166.112
 -18264900.39449 -14232387.37645  21077173.360    21077170.871
 -23769157.49349 -18521416.71845  20911102.719    20911100.409
  -4831679.51849  -3764944.95444  23442183.034    23442180.244
 99 12  9  8 53  0.0000000  0  7G26G10G21G 6G23G17G22
 -14879780.88649 -11594631.19844  21754937.941    21754936.968
   2091637.99145                                  24854884.703
  -5687081.33849  -4431489.63144  24019635.477    24019631.902
 -23867626.34849 -18598140.52545  20928393.020    20928391.434
 -18340938.95649 -14291638.17745  21062703.676    21062701.260
 -23813455.80149 -18555934.87345  20902673.102    20902670.675
  -4805975.32849  -3744915.74144  23447074.468    23447071.804
 99 12  9  8 54  0.0000000  0  6G26G21G 6G23G17G22
 -14860634.23649 -11579711.71544  21758581.204    21758580.000
  -5853498.46749  -4561165.28744  23987967.392    23987964.004
 -23748934.72249 -18505653.57945  20950979.216    20950977.557
 -18415452.95849 -14349701.02545  21048524.068    21048521.659
 -23856992.55649 -18589859.60745  20894388.041    20894385.861
  -4778361.10149  -3723398.18244  23452329.637    23452326.435
 99 12  9  8 55  0.0000000  0  7G 3G26G21G 6G23G17G22
        -0.72457                                  25282648.329
 -14838900.53549 -11562776.35444  21762717.026    21762716.054
  -6019145.38049  -4690240.79044  23956445.453    23956442.437
 -23628384.74249 -18411718.56545  20973919.055    20973917.628
 -18488337.35549 -14406494.04345  21034654.483    21034652.319
 -23899830.96549 -18623240.18345  20886236.287    20886234.032
  -4748792.49049  -3700357.72644  23457955.715    23457953.411
 99 12  9  8 56  0.0000000  0  7G 3G26G21G 6G23G17G22
   -210340.83047                                  25242621.999
 -14814605.28349 -11543844.98144  21767340.309    21767339.398
  -6183953.15749  -4818662.42444  23925083.298    23925080.587
 -23506049.37049 -18316392.30845  20997198.723    20997197.299
 -18559600.66149 -14462023.88245  21021093.547    21021091.297
 -23942023.49249 -18656117.47645  20878207.401    20878205.089
  -4717201.07849  -3675741.05544  23463967.481    23463964.959
 99 12  9  8 57  0.0000000  0  7G 3G26G21G 6G23G17G22
   -420576.90446                                  25202615.402
 -14787861.59649 -11523005.73844  21772429.170    21772428.412
  -6347961.73549  -4946461.28244  23893873.488    23893870.689
 -23381857.47549 -18219619.43845  21020831.735    21020830.131
 -18629278.67549 -14516318.43245  21007834.283    21007832.026
 -23983517.89749 -18688450.78345  20870311.180    20870308.931
  -4683602.96449  -3649560.71644  23470361.029    23470358.630
 99 12  9  8 58  0.0000000  0  7G 3G26G21G 6G23G17G22
   -630694.06846                                  25162631.041
 -14758828.68149 -11500382.67744  21777954.324    21777953.235
  -6511293.07749  -5073732.45244  23862792.909    23862789.767
 -23255832.69849 -18121418.36645  21044813.518    21044811.929
 -18697394.95449 -14569396.04145  20994872.250    20994869.984
 -24024312.33749 -18720238.65945  20862548.211    20862545.994
  -4648176.21849  -3621955.46144  23477102.454    23477099.521
 99 12  9  8 59  0.0000000  0  7G 3G26G21G 6G23G17G22
   -840625.55447   -655033.07244  25122685.453    25122682.829
 -14727396.24649 -11475889.86944  21783935.878    21783934.599
  -6673892.34349  -5200433.16244  23831851.216    23831848.041
 -23128013.96049 -18021819.37845  21069136.575    21069134.968
 -18763922.28749 -14621235.50645  20982212.457    20982210.211
 -24064407.88049 -18751481.94045  20854918.350    20854916.070
  -4610975.89849  -3592968.19244  23484181.663    23484178.427
 99 12  9  9  0  0.0000000  0  7G 3G26G21G 6G23G17G22
  -1050309.03747   -818422.80444  25082782.136    25082781.705
 -14693409.39649 -11449406.59744  21790403.335    21790402.020
  -6835641.61449  -5326471.52044  23801071.272    23801067.842
 -22998412.16049 -17920830.99945  21093799.157    21093797.514
 -18828837.21749 -14671818.55645  20969859.503    20969857.302
 -24103756.26649 -18782143.02045  20847430.484    20847428.304
  -4571945.77749  -3562555.11044  23491609.374    23491606.083
 99 12  9  9  1  0.0000000  0  7G 3G26G21G 6G23G17G22
  -1259813.16547                                  25042914.339
 -14656973.65349 -11421015.09644  21797336.668    21797335.174
  -6996557.89349  -5451860.78844  23770449.746    23770446.585
 -22867104.71249 -17818513.51345  21118786.005    21118784.480
 -18892161.03849 -14721161.77745  20957809.390    20957807.211
 -24142397.02549 -18812252.70345  20840077.421    20840075.145
  -4531075.74049  -3530708.33144  23499386.245    23499383.395
 99 12  9  9  2  0.0000000  0  7G 3G26G21G 6G23G17G22
  -1469084.09647                                  25003091.812
 -14618176.20849 -11390783.29844  21804719.824    21804718.868
  -7156622.73149  -5576586.60544  23739990.468    23739987.333
 -22734032.25249 -17714820.70645  21144108.989    21144107.479
 -18953845.93949 -14769227.91645  20946071.098    20946068.886
 -24180320.37349 -18841803.35845  20832860.996    20832858.497
  -4488290.55849  -3497369.23644  23507527.496    23507525.350
 99 12  9  9  3  0.0000000  0  7G 3G26G21G 6G23G17G22
  -1678115.10148  -1307622.42644  24963317.582    24963314.403
 -14576930.01849 -11358643.40944  21812568.035    21812567.019
  -7315870.94149  -5700676.08444  23709687.117    23709683.434
 -22599141.11949 -17609710.75045  21169777.915    21169776.210
 -19013906.60649 -14816028.42145  20934641.957    20934639.790
 -24217554.65449 -18870817.09045  20825775.441    20825773.072
  -4443554.79049  -3462510.18744  23516040.940    23516038.077
 99 12  9  9  4  0.0000000  0  7G 3G26G21G 6G23G17G22
  -1886931.37747  -1470336.41144  24923579.151    24923577.746
 -14533109.81149 -11324497.79644  21820907.055    21820906.288
  -7474314.03749  -5824138.19644  23679535.581    23679532.798
 -22462466.48849 -17503211.07145  21195786.350    21195784.470
 -19072375.57249 -14861588.64145  20923515.717    20923513.500
 -24254059.92749 -18899262.75945  20818828.742    20818826.321
  -4396931.64649  -3426180.48344  23524913.019    23524910.181
 99 12  9  9  5  0.0000000  0  7G 3G26G21G 6G23G17G22
  -2095524.03548  -1632876.12544  24883883.940    24883884.151
 -14486808.43349 -11288418.79844  21829718.104    21829716.806
  -7631963.17649  -5946981.63944  23649536.275    23649533.359
 -22324151.19849 -17395432.95445  21222106.657    21222105.106
 -19129243.55249 -14905901.33545  20912694.118    20912691.849
 -24289790.00849 -18927104.38545  20812029.628    20812027.119
  -4348543.69149  -3388475.59944  23534121.511    23534118.269
 99 12  9  9  6  0.0000000  0  7G 3G26G21G 6G23G17G22
  -2303834.33948  -1795195.91444  24844244.887    24844243.556
 -14438082.15449 -11250450.25644  21838990.124    21838989.058
  -7788782.82549  -6069178.74644  23619694.822    23619691.621
 -22184248.27649 -17286417.73245  21248729.479    21248727.764
 -19184513.61749 -14948968.90045  20902176.510    20902174.282
 -24324701.34849 -18954308.03145  20805386.124    20805383.585
  -4298351.36649  -3349364.71244  23543671.959    23543669.761
 99 12  9  9  7  0.0000000  0  7G26G 3G21G 6G23G17G22
 -14386911.79849 -11210577.24344  21848727.642    21848726.703
  -2511750.25247  -1957208.27744  24804681.714    24804678.276
  -7944674.00649  -6190652.36844  23590029.378    23590026.228
 -22042632.90049 -17176068.12745  21275677.901    21275676.385
 -19238238.74649 -14990832.63545  20891952.920    20891950.669
 -24358819.42749 -18980893.54645  20798893.992    20798891.322
  -4246292.19649  -3308799.13344  23553579.002    23553576.050
 99 12  9  9  8  0.0000000  0  7G26G 3G21G 6G23G17G22
 -14333411.70449 -11168888.86844  21858908.129    21858907.238
  -2719310.58648  -2118943.59344  24765184.403    24765181.454
  -8099716.76249  -6311464.87044  23560525.012    23560522.190
 -21899324.94149 -17064399.61245  21302948.651    21302947.006
 -19290557.91949 -15031600.81845  20881996.861    20881994.677
 -24392327.60049 -19007003.81345  20792517.480    20792514.902
  -4192484.84049  -3266871.35744  23563817.138    23563814.973
 99 12  9  9  9  0.0000000  0  7G 3G26G21G 6G23G17G22
  -2926417.57748  -2280325.71244  24725772.624    24725769.787
 -14277481.05049 -11125306.53644  21869551.573    21869550.474
  -8253860.88649  -6431577.13944  23531192.671    23531189.510
 -21754222.57449 -16951332.87445  21330560.854    21330559.080
 -19341280.59149 -15071124.96845  20872344.692    20872342.390
 -24425083.83349 -19032528.15245  20786283.886    20786281.698
  -4136852.83349  -3223521.80044  23574404.124    23574401.179
 99 12  9  9 10  0.0000000  0  7G 3G26G21G 6G23G17G22
  -3133084.75048  -2441365.05244  24686445.695    24686442.631
 -14219027.14849 -11079758.02844  21880674.848    21880673.751
  -8407136.54349  -6551012.70244  23502025.078    23502022.256
 -21607326.26049 -16836868.24645  21358514.275    21358512.516
 -19390289.56349 -15109313.76945  20863018.694    20863016.334
 -24456995.01549 -19057394.01045  20780211.496    20780209.179
  -4079351.00249  -3178715.18344  23585346.483    23585343.613
 99 12  9  9 11  0.0000000  0  7G 3G26G21G 6G23G17G22
  -3339454.13148  -2602172.35444  24647175.657    24647172.100
 -14158117.04649 -11032295.60444  21892265.777    21892264.911
  -8559674.22149  -6669873.22244  23472998.458    23472995.434
 -21458760.94949 -16721103.10844  21386785.221    21386783.457
 -19437710.05049 -15146264.79545  20853994.822    20853992.553
 -24488124.37449 -19081650.65345  20774287.898    20774285.383
  -4020100.84149  -3132546.24244  23596622.087    23596618.765
 99 12  9  9 12  0.0000000  0  7G 3G26G21G 6G23G17G22
  -3545437.04948  -2762678.55944  24607977.534    24607974.724
 -14094744.56949 -10982914.45644  21904325.172    21904324.237
  -8711363.71849  -6788072.80744  23444132.812    23444129.891
 -21308515.92949 -16604029.11244  21415376.064    21415374.276
 -19483548.14949 -15181982.78245  20845271.959    20845269.775
 -24518446.33649 -19105278.16445  20768517.788    20768515.506
  -3959166.42649  -3085064.90844  23608217.334    23608214.312
 99 12  9  9 13  0.0000000  0  7G 3G26G21G 6G23G17G22
  -3750908.40848  -2922786.10544  24568876.502    24568874.584
 -14028910.60249 -10931615.26644  21916852.866    21916851.719
  -8862086.97849  -6905519.48844  23415451.076    23415448.411
 -21156602.33049 -16485654.90844  21444284.280    21444282.402
 -19527811.18749 -15216473.44545  20836849.112    20836846.871
 -24547990.95849 -19128299.94845  20762895.549    20762893.331
  -3896595.99349  -3036308.75544  23620124.043    23620120.906
 99 12  9  9 14  0.0000000  0  7G 3G26G21G 6G23G17G22
  -3955870.73248  -3082496.99544  24529873.532    24529871.569
 -13960685.31349 -10878452.70144  21929835.786    21929834.638
  -9011825.16249  -7022198.57744  23386956.720    23386954.134
 -21003098.56349 -16366041.61544  21473494.866    21473493.146
 -19570533.31049 -15249763.40045  20828719.227    20828716.987
 -24576832.67349 -19150774.01345  20757407.102    20757404.847
  -3832400.95749  -2986286.68144  23632339.614    23632337.049
 99 12  9  9 15  0.0000000  0  7G 3G26G21G 6G23G17G22
  -4160359.21148  -3241838.66344  24490960.975    24490958.587
 -13890171.99349 -10823507.26344  21943253.971    21943252.856
  -9160671.00049  -7138182.32844  23358632.468    23358629.223
 -20848057.89949 -16245230.73144  21502998.299    21502996.588
 -19611752.62749 -15281882.33445  20820875.462    20820873.166
 -24604907.51549 -19172650.51945  20752064.668    20752062.508
  -3766548.95849  -2934973.47644  23644870.593    23644867.961
 99 12  9  9 16  0.0000000  0  7G 3G26G21G 6G23G17G22
  -4364393.69948  -3400826.56344  24452134.306    24452132.307
 -13817382.23949 -10766787.97944  21957105.594    21957104.392
  -9308697.85449  -7253527.90444  23330463.882    23330460.903
 -20691455.07849 -16123202.59244  21532798.916    21532797.135
 -19651472.14249 -15312832.58445  20813317.021    20813314.948
 -24632135.67449 -19193867.26945  20746883.434    20746881.201
  -3698938.65649  -2882290.15644  23657736.787    23657733.931
 99 12  9  9 17  0.0000000  0  7G 3G26G21G 6G23G17G22
  -4568001.28848  -3559481.83444  24413389.727    24413386.697
 -13742208.27049 -10708210.86744  21971410.590    21971409.553
  -9455927.86649  -7368252.57344  23302446.955    23302443.859
 -20533250.71249 -15999926.50244  21562904.248    21562902.340
 -19689697.23949 -15342618.36045  20806042.966    20806040.893
 -24658526.97149 -19214431.92645  20741861.276    20741859.106
  -3629559.34249  -2828228.37744  23670939.346    23670936.428
 99 12  9  9 18  0.0000000  0  7G 3G26G21G 6G23G17G22
  -4771192.36648  -3717812.52844  24374723.891    24374721.013
 -13664563.35749 -10647708.33444  21986185.611    21986185.117
  -9602252.09649  -7482271.42644  23274602.284    23274599.216
 -20373435.30049 -15875395.05344  21593316.214    21593314.331
 -19726386.18149 -15371207.14345  20799061.312    20799059.181
 -24684120.46049 -19234374.90445  20736990.919    20736988.806
  -3558539.85249  -2772888.55144  23684454.348    23684451.016
 99 12  9  9 19  0.0000000  0  7G 3G26G21G 6G23G17G22
  -4973755.02149  -3875653.59744  24336176.335    24336174.545
 -13584372.78949 -10585222.19044  22001445.464    22001444.548
  -9747470.24149  -7595428.40044  23246968.067    23246965.288
 -20211862.51449 -15749494.21244  21624062.613    21624060.621
 -19761365.64249 -15398463.85145  20792404.978    20792402.821
 -24708832.62149 -19253631.13045  20732288.482    20732286.207
  -3485848.71649  -2716246.14044  23698287.086    23698283.989
 99 12  9  9 20  0.0000000  0  7G 3G26G21G 6G23G17G22
  -5175715.68949  -4033025.55444  24297746.176    24297742.556
 -13501952.00849 -10520998.21444  22017130.343    22017128.758
  -9891805.51049  -7707897.41244  23219501.675    23219499.267
 -20048763.34049 -15622403.98944  21655099.394    21655097.397
 -19794849.61749 -15424555.24445  20786033.113    20786030.966
 -24732858.71249 -19272352.76045  20727716.413    20727714.202
  -3411599.23549  -2658389.43244  23712416.212    23712412.936
 99 12  9  9 21  0.0000000  0  7G 3G26G21G 6G23G17G22
  -5376917.77549  -4189806.40844  24259457.511    24259455.273
 -13417252.70349 -10454998.76744  22033247.566    22033246.384
 -10035274.96049  -7819691.75944  23192200.282    23192197.940
 -19884177.32949 -15494155.19244  21686419.031    21686417.219
 -19826870.23749 -15449506.37145  20779939.847    20779937.683
 -24756110.17949 -19290470.78545  20723291.714    20723289.593
  -3335718.51349  -2599261.62044  23726855.330    23726852.426
 99 12  9  9 22  0.0000000  0  7G 3G26G21G 6G23G17G22
  -5577427.10849  -4346047.45244  24221302.033    24221299.796
 -13330229.14749 -10387188.21344  22049807.822    22049806.498
 -10177885.58549  -7930816.89544  23165062.670    23165059.904
 -19718160.53049 -15364791.49444  21718011.011    21718009.123
 -19857442.38749 -15473328.81646  20774122.238    20774120.030
 -24778531.87849 -19307942.23845  20719025.307    20719022.900
  -3258285.39249  -2538924.14144  23741590.357    23741587.872
 99 12  9  9 23  0.0000000  0  7G 3G26G21G 6G23G17G22
  -5777393.16749  -4501865.15944  24183249.102    24183247.531
 -13240900.56349 -10317581.52144  22066806.226    22066805.276
 -10319635.73449  -8041271.51844  23138088.831    23138085.747
 -19550726.41349 -15234323.39344  21749872.798    21749870.838
 -19886511.99349 -15495980.44746  20768590.419    20768588.190
 -24800092.86749 -19324743.01545  20714922.383    20714919.980
  -3179338.00049  -2477406.70444  23756613.641    23756610.829
